[[{"header":{"parameterUnit":"m.s-1","parameterCategory":1,"la1":31.0,"la2":29.5877,"lo1":-88.7671,"lo2":-86.6584,"dy":0.0162,"dx":0.0185,"nx":115,"ny":88,"refTime":"2025-05-16T12:00:00:Z","depth":0,"parameterNumber":2,"parameterNumberName":"U-component_of_WINDS"},"data":[0.0,0.0,0.0,0.0,0.0,0.0,0.0,0.0,0.0,0.0,0.0,0.0,0.0,0.0,0.0,0.0,0.0,0.0,0.0,0.0,0.0,0.0,0.0,0.0,0.0,0.0,0.0,0.0,0.0,0.0,0.0,0.0,0.0,0.0,0.0,0.0,0.0,0.0,0.0,0.0,0.0,0.0,0.0,0.0,0.0,0.0,0.0,0.0,0.0,0.0,0.0,0.0,0.0,0.0,0.0,0.0,0.0,0.0,0.0,0.0,0.0,0.0,0.0,0.0,0.0,0.0,0.0,0.0,0.0,0.0,0.0,0.0,0.0,0.0,0.0,0.0,0.0,0.0,0.0,0.0,0.0,0.0,0.0,0.0,0.0,0.0,0.0,0.0,0.0,0.0,0.0,0.0,0.0,0.0,0.0,0.0,0.0,0.0,0.0,0.0,0.0,0.0,0.0,0.0,0.0,0.0,0.0,0.0,0.0,0.0,0.0,0.0,0.0,0.0,0.0,0.0,0.0,0.0,0.0,0.0,0.0,0.0,0.0,0.0,0.0,0.0,0.0,0.0,0.0,0.0,0.0,0.0,0.0,0.0,0.0,0.0,0.0,0.0,0.0,0.0,0.0,0.0,0.0,0.0,0.0,0.0,0.0,0.0,0.0,0.0,0.0,0.0,0.0,0.0,0.0,0.0,0.0,0.0,0.0,0.0,0.0,0.0,0.0,0.0,0.0,0.0,0.0,0.0,0.0,0.0,0.0,0.0,0.0,0.0,0.0,0.0,0.0,0.0,0.0,0.0,0.0,0.0,0.0,0.0,0.0,0.0,0.0,0.0,0.0,0.0,0.0,0.0,0.0,0.0,0.0,0.0,0.0,0.0,0.0,0.0,0.0,0.0,0.0,0.0,0.0,0.0,0.0,0.0,0.0,0.0,0.0,0.0,0.0,0.0,0.0,0.0,0.0,0.0,0.0,0.0,0.0,0.0,0.0,0.0,0.0,0.0,0.0,0.0,0.0,0.0,0.0,0.0,0.0,0.0,0.0,0.0,0.0,0.0,0.0,0.0,0.0,0.0,0.0,0.0,0.0,0.0,0.0,0.0,0.0,0.0,0.0,0.0,0.0,0.0,0.0,0.0,0.0,0.0,0.0,0.0,0.0,0.0,0.0,0.0,0.0,0.0,0.0,0.0,0.0,0.0,0.0,0.0,0.0,0.0,0.0,0.0,0.0,0.0,0.0,0.0,0.0,0.0,0.0,0.0,0.0,0.0,0.0,0.0,0.0,0.0,0.0,0.0,0.0,0.0,0.0,0.0,0.0,0.0,0.0,0.0,0.0,0.0,0.0,0.0,0.0,0.0,0.0,0.0,0.0,0.0,0.0,0.0,0.0,0.0,0.0,0.0,0.0,0.0,0.0,0.0,0.0,0.0,0.0,0.0,0.0,0.0,0.0,0.0,0.0,0.0,0.0,0.0,0.0,0.0,0.0,0.0,0.0,0.0,0.0,0.0,0.0,0.0,0.0,0.0,0.0,0.0,0.0,0.0,0.0,0.0,0.0,0.0,0.0,0.0,0.0,0.0,0.0,0.0,0.0,0.0,0.0,0.0,0.0,0.0,0.0,0.0,0.0,0.0,0.0,0.0,0.0,0.0,0.0,0.0,0.0,0.0,0.0,0.0,0.0,0.0,0.0,0.0,0.0,0.0,0.0,0.0,0.0,0.0,0.0,0.0,0.0,0.0,0.0,0.0,0.0,0.0,0.0,0.0,0.0,0.0,0.0,0.0,0.0,0.0,0.0,0.0,0.0,0.0,0.0,0.0,0.0,0.0,0.0,0.0,0.0,0.0,0.0,0.0,0.0,0.0,0.0,0.0,0.0,0.0,0.0,0.0,0.0,0.0,0.0,0.0,0.0,0.0,0.0,0.0,0.0,0.0,0.0,0.0,0.0,0.0,0.0,0.0,0.0,0.0,0.0,0.0,0.0,0.0,0.0,0.0,0.0,0.0,0.0,0.0,0.0,0.0,0.0,0.0,0.0,0.0,0.0,0.0,0.0,0.0,0.0,0.0,0.0,0.0,0.0,0.0,0.0,0.0,0.0,0.0,0.0,0.0,0.0,0.0,0.0,0.0,0.0,0.0,0.0,0.0,0.0,0.0,0.0,0.0,0.0,0.0,0.0,0.0,0.0,0.0,0.0,0.0,0.0,0.0,0.0,0.0,0.0,0.0,0.0,0.0,0.0,0.0,0.0,0.0,0.0,0.0,0.0,0.0,0.0,0.0,0.0,0.0,0.0,0.0,0.0,0.0,0.0,0.0,0.0,0.0,0.0,0.0,0.0,0.0,0.0,0.0,0.0,0.0,0.0,0.0,0.0,0.0,0.0,0.0,0.0,0.0,0.0,0.0,0.0,0.0,0.0,0.0,0.0,0.0,0.0,0.0,0.0,0.0,0.0,0.0,0.0,0.0,0.0,0.0,0.0,0.0,0.0,0.0,0.0,0.0,0.0,0.0,0.0,0.0,0.0,0.0,0.0,0.0,0.0,0.0,0.0,0.0,0.0,0.0,0.0,0.0,0.0,0.0,0.0,0.0,0.0,0.0,0.0,0.0,0.0,0.0,0.0,0.0,0.0,0.0,0.0,0.0,0.0,0.0,0.0,0.0,0.0,0.0,0.0,0.0,0.0,0.0,0.0,0.0,0.0,0.0,0.0,0.0,0.0,0.0,0.0,0.0,0.0,0.0,0.0,0.0,0.0,0.0,0.0,0.0,0.0,0.0,0.0,0.0,0.0,0.0,0.0,0.0,0.0,0.0,0.0,0.0,0.0,0.0,0.0,0.0,0.0,0.0,0.0,0.0,0.0,0.0,0.0,0.0,0.0,0.0,0.0,0.0,0.0,0.0,0.0,0.0,0.0,0.0,0.0,0.0,0.0,0.0,0.0,0.0,0.0,0.0,0.0,0.0,0.0,0.0,0.0,0.0,0.0,0.0,0.0,0.0,0.0,0.0,0.0,0.0,0.0,0.0,0.0,0.0,0.0,0.0,0.0,0.0,0.0,0.0,0.0,0.0,0.0,0.0,0.0,0.0,0.0,0.0,0.0,0.0,0.0,0.0,0.0,0.0,0.0,0.0,0.0,0.0,0.0,0.0,0.0,0.0,0.0,0.0,0.0,0.0,0.0,0.0,0.0,0.0,0.0,0.0,0.0,0.0,0.0,0.0,0.0,0.0,0.0,0.0,0.0,0.0,0.0,0.0,0.0,0.0,0.0,0.0,0.0,0.0,0.0,0.0,0.0,0.0,0.0,0.0,0.0,0.0,0.0,0.0,0.0,0.0,0.0,0.0,0.0,0.0,0.0,0.0,0.0,0.0,0.0,0.0,0.0,0.0,0.0,0.0,0.0,0.0,0.0,0.0,0.0,0.0,0.0,0.0,0.0,0.0,0.0,0.0,0.0,0.0,0.0,0.0,0.0,0.0,0.0,0.0,0.0,0.0,0.0,0.0,0.0,0.0,0.0,0.0,0.0,0.0,0.0,0.0,0.0,0.0,0.0,0.0,0.0,0.0,0.0,0.0,0.0,0.0,0.0,0.0,0.0,0.0,0.0,0.0,0.0,0.0,0.0,0.0,0.0,0.0,0.0,0.0,0.0,0.0,0.0,0.0,0.0,0.0,0.0,0.0,0.0,0.0,0.0,0.0,0.0,0.0,0.0,0.0,0.0,0.0,0.0,0.0,0.0,0.0,0.0,0.0,0.0,0.0,0.0,0.0,0.0,0.0,0.0,0.0,0.0,0.0,0.0,0.0,0.0,0.0,0.0,0.0,0.0,0.0,0.0,0.0,0.0,0.0,0.0,0.0,0.0,0.0,0.0,0.0,0.0,0.0,0.0,0.0,0.0,0.0,0.0,0.0,0.0,0.0,0.0,0.0,0.0,0.0,0.0,0.0,0.0,0.0,0.0,0.0,0.0,0.0,0.0,0.0,0.0,0.0,0.0,0.0,0.0,0.0,0.0,0.0,0.0,0.0,0.0,0.0,0.0,0.0,0.0,0.0,0.0,0.0,0.0,0.0,0.0,0.0,0.0,0.0,0.0,0.0,0.0,0.0,0.0,0.0,0.0,0.0,0.0,0.0,0.0,0.0,0.0,0.0,0.0,0.0,0.0,0.0,0.0,0.0,0.0,0.0,0.0,0.0,0.0,0.0,0.0,0.0,0.0,0.0,0.0,0.0,0.0,0.0,0.0,0.0,0.0,0.0,0.0,0.0,0.0,0.0,0.0,0.0,1.8073,0.0,0.0,0.0,0.0,0.0,0.0,0.0,0.0,0.0,0.0,0.0,0.0,0.0,0.0,0.0,0.0,0.0,0.0,0.0,0.0,0.0,0.0,0.0,0.0,0.0,0.0,0.0,0.0,0.0,0.0,0.0,0.0,0.0,0.0,0.0,0.0,0.0,0.0,0.0,0.0,0.0,0.0,0.0,0.0,0.0,0.0,0.0,0.0,0.0,0.0,0.0,0.0,0.0,0.0,0.0,0.0,0.0,0.0,0.0,0.0,0.0,0.0,0.0,0.0,0.0,0.0,0.0,0.0,0.0,0.0,0.0,0.0,0.0,0.0,0.0,0.0,0.0,0.0,0.0,0.0,0.0,0.0,0.0,0.0,0.0,0.0,0.0,0.0,0.0,0.0,0.0,0.0,0.0,0.0,0.0,0.0,0.0,0.0,0.0,0.0,0.0,0.0,0.0,0.0,0.0,0.0,0.0,0.0,0.0,0.0,1.8084,1.8084,1.8084,1.8084,1.8084,0.0,0.0,0.0,0.0,0.0,0.0,0.0,0.0,0.0,0.0,0.0,0.0,0.0,0.0,0.0,0.0,0.0,0.0,0.0,0.0,0.0,0.0,0.0,0.0,0.0,0.0,0.0,0.0,0.0,0.0,0.0,0.0,0.0,0.0,0.0,0.0,0.0,0.0,0.0,0.0,0.0,0.0,0.0,0.0,0.0,0.0,0.0,0.0,0.0,0.0,0.0,0.0,0.0,0.0,0.0,0.0,0.0,0.0,0.0,0.0,0.0,0.0,0.0,0.0,0.0,0.0,0.0,0.0,0.0,0.0,0.0,0.0,0.0,0.0,0.0,0.0,0.0,0.0,0.0,0.0,0.0,0.0,0.0,0.0,0.0,0.0,0.0,0.0,0.0,0.0,0.0,0.0,0.0,0.0,0.0,0.0,0.0,0.0,0.0,0.0,0.0,0.0,0.0,0.0,0.0,0.0,0.0,0.0,0.0,0.0,0.0,0.0,1.8599,1.8542,1.845,0.0,0.0,0.0,0.0,0.0,0.0,0.0,0.0,0.0,0.0,0.0,0.0,0.0,0.0,0.0,0.0,0.0,0.0,0.0,0.0,0.0,0.0,0.0,0.0,0.0,0.0,0.0,0.0,0.0,0.0,0.0,0.0,0.0,0.0,0.0,0.0,0.0,0.0,0.0,0.0,0.0,0.0,0.0,0.0,0.0,0.0,0.0,0.0,0.0,0.0,0.0,0.0,0.0,0.0,0.0,0.0,0.0,0.0,0.0,0.0,0.0,0.0,0.0,0.0,0.0,0.0,0.0,0.0,0.0,0.0,0.0,0.0,0.0,0.0,0.0,0.0,0.0,0.0,0.0,0.0,0.0,0.0,0.0,0.0,0.0,0.0,0.0,0.0,0.0,0.0,0.0,0.0,0.0,0.0,0.0,0.0,0.0,0.0,0.0,0.0,0.0,0.0,0.0,0.0,0.0,0.0,0.0,0.0,0.0,0.0,1.8737,2.0159,2.0182,0.0,1.9597,0.0,0.0,0.0,0.0,0.0,0.0,0.0,0.0,0.0,0.0,0.0,0.0,0.0,0.0,0.0,0.0,0.0,0.0,0.0,0.0,0.0,0.0,0.0,0.0,0.0,0.0,0.0,0.0,0.0,0.0,0.0,0.0,0.0,0.0,0.0,0.0,0.0,0.0,0.0,0.0,0.0,0.0,0.0,0.0,0.0,0.0,0.0,0.0,0.0,0.0,0.0,0.0,0.0,0.0,0.0,0.0,0.0,0.0,0.0,0.0,0.0,0.0,0.0,0.0,0.0,0.0,0.0,0.0,0.0,0.0,0.0,0.0,0.0,0.0,0.0,0.0,0.0,0.0,0.0,0.0,0.0,0.0,0.0,0.0,0.0,0.0,0.0,0.0,0.0,0.0,0.0,0.0,0.0,0.0,0.0,0.0,0.0,0.0,0.0,0.0,0.0,0.0,0.0,0.0,0.0,0.0,0.0,0.0,0.0,0.0,0.0,2.04,2.0136,1.9895,0.0,0.0,0.0,0.0,0.0,0.0,0.0,0.0,0.0,0.0,0.0,0.0,0.0,0.0,0.0,0.0,0.0,0.0,0.0,0.0,0.0,0.0,0.0,0.0,0.0,0.0,0.0,0.0,0.0,0.0,0.0,0.0,0.0,0.0,0.0,0.0,0.0,0.0,0.0,0.0,0.0,0.0,0.0,0.0,0.0,0.0,0.0,0.0,0.0,0.0,0.0,0.0,0.0,0.0,0.0,0.0,0.0,0.0,0.0,0.0,0.0,0.0,0.0,0.0,0.0,0.0,0.0,0.0,0.0,0.0,0.0,0.0,0.0,0.0,0.0,0.0,0.0,0.0,0.0,0.0,0.0,0.0,0.0,0.0,0.0,0.0,0.0,0.0,0.0,0.0,0.0,0.0,0.0,0.0,0.0,0.0,0.0,0.0,0.0,0.0,0.0,0.0,0.0,0.0,0.0,0.0,0.0,0.0,0.0,0.0,2.0067,0.0,2.0997,2.0699,2.0194,1.9493,0.0,0.0,0.0,0.0,0.0,0.0,0.0,0.0,0.0,0.0,0.0,0.0,0.0,0.0,0.0,0.0,0.0,0.0,0.0,0.0,0.0,0.0,0.0,0.0,0.0,0.0,0.0,0.0,0.0,0.0,0.0,0.0,0.0,0.0,0.0,0.0,0.0,0.0,0.0,0.0,0.0,0.0,0.0,0.0,0.0,0.0,0.0,0.0,0.0,0.0,0.0,0.0,0.0,0.0,0.0,0.0,0.0,0.0,0.0,0.0,0.0,0.0,0.0,0.0,0.0,0.0,0.0,0.0,0.0,0.0,0.0,0.0,0.0,0.0,0.0,0.0,0.0,0.0,0.0,0.0,0.0,0.0,0.0,0.0,0.0,0.0,0.0,0.0,0.0,0.0,0.0,0.0,0.0,0.0,0.0,0.0,0.0,0.0,0.0,0.0,0.0,0.0,0.0,0.0,0.0,0.0,0.0,0.0,0.0,2.1089,2.1112,2.2513,2.2547,2.141,0.0,0.0,0.0,0.0,0.0,0.0,0.0,0.0,0.0,0.0,0.0,0.0,0.0,0.0,0.0,0.0,0.0,0.0,0.0,0.0,0.0,0.0,0.0,0.0,0.0,0.0,0.0,0.0,0.0,0.0,0.0,0.0,0.0,0.0,0.0,0.0,0.0,0.0,0.0,0.0,0.0,0.0,0.0,0.0,0.0,0.0,0.0,0.0,0.0,0.0,0.0,0.0,0.0,0.0,0.0,0.0,0.0,0.0,0.0,0.0,0.0,0.0,0.0,0.0,0.0,0.0,0.0,0.0,0.0,0.0,0.0,0.0,0.0,0.0,0.0,0.0,0.0,0.0,0.0,0.0,0.0,0.0,0.0,0.0,0.0,0.0,0.0,0.0,0.0,0.0,0.0,0.0,0.0,0.0,0.0,0.0,0.0,0.0,0.0,0.0,0.0,0.0,0.0,0.0,0.0,0.0,0.0,0.0,0.0,1.9723,2.0171,2.1594,2.3902,2.1617,2.0274,0.0,0.0,0.0,0.0,0.0,0.0,0.0,0.0,0.0,0.0,0.0,0.0,0.0,0.0,0.0,0.0,0.0,0.0,0.0,0.0,0.0,0.0,0.0,0.0,0.0,0.0,0.0,0.0,0.0,0.0,0.0,0.0,0.0,0.0,0.0,0.0,0.0,0.0,0.0,0.0,0.0,0.0,0.0,0.0,0.0,0.0,0.0,0.0,0.0,0.0,0.0,0.0,0.0,0.0,0.0,0.0,0.0,0.0,0.0,0.0,0.0,0.0,0.0,0.0,0.0,0.0,0.0,0.0,0.0,0.0,0.0,0.0,0.0,0.0,0.0,0.0,0.0,0.0,0.0,0.0,0.0,0.0,0.0,0.0,0.0,0.0,0.0,0.0,0.0,0.0,0.0,0.0,0.0,0.0,0.0,0.0,0.0,0.0,0.0,0.0,0.0,0.0,0.0,0.0,0.0,0.0,0.0,0.0,0.0,1.9667,0.0,2.2831,0.0,2.1516,1.9874,0.0,0.0,0.0,0.0,0.0,0.0,0.0,0.0,0.0,0.0,0.0,0.0,0.0,0.0,0.0,0.0,0.0,0.0,0.0,0.0,0.0,0.0,0.0,0.0,0.0,0.0,0.0,0.0,0.0,0.0,0.0,0.0,0.0,0.0,0.0,0.0,0.0,0.0,0.0,0.0,0.0,0.0,0.0,0.0,0.0,0.0,0.0,0.0,0.0,0.0,0.0,0.0,0.0,0.0,0.0,0.0,0.0,0.0,0.0,0.0,0.0,0.0,0.0,0.0,0.0,0.0,0.0,0.0,0.0,0.0,0.0,0.0,0.0,0.0,0.0,0.0,0.0,0.0,0.0,0.0,0.0,0.0,0.0,0.0,0.0,0.0,0.0,0.0,0.0,0.0,0.0,0.0,0.0,0.0,0.0,0.0,0.0,0.0,0.0,0.0,0.0,0.0,0.0,0.0,0.0,0.0,0.0,0.0,1.976,2.2759,2.4554,2.4708,2.3141,2.2418,2.0435,0.0,0.0,0.0,0.0,0.0,0.0,0.0,0.0,0.0,0.0,0.0,0.0,0.0,0.0,0.0,0.0,0.0,0.0,0.0,0.0,0.0,0.0,0.0,0.0,0.0,0.0,0.0,0.0,0.0,0.0,0.0,0.0,0.0,0.0,0.0,0.0,0.0,0.0,0.0,0.0,0.0,0.0,0.0,0.0,0.0,0.0,0.0,0.0,0.0,0.0,0.0,0.0,0.0,0.0,0.0,0.0,0.0,0.0,0.0,0.0,0.0,0.0,0.0,0.0,0.0,0.0,0.0,0.0,0.0,0.0,0.0,0.0,0.0,0.0,0.0,0.0,0.0,0.0,0.0,0.0,0.0,0.0,0.0,0.0,0.0,0.0,0.0,0.0,0.0,0.0,0.0,0.0,0.0,0.0,0.0,0.0,0.0,0.0,0.0,0.0,0.0,0.0,0.0,0.0,0.0,0.0,0.0,0.0,0.0,2.125,2.3695,2.5007,2.4811,2.2293,2.0878,0.0,0.0,0.0,0.0,0.0,0.0,0.0,0.0,0.0,0.0,0.0,0.0,0.0,0.0,0.0,0.0,0.0,0.0,0.0,0.0,0.0,0.0,0.0,0.0,0.0,0.0,0.0,0.0,0.0,0.0,0.0,0.0,0.0,0.0,0.0,0.0,0.0,0.0,0.0,0.0,0.0,0.0,0.0,0.0,0.0,0.0,0.0,0.0,0.0,0.0,0.0,0.0,0.0,0.0,0.0,0.0,0.0,0.0,0.0,0.0,0.0,0.0,0.0,0.0,0.0,0.0,0.0,0.0,0.0,0.0,0.0,0.0,0.0,0.0,0.0,0.0,0.0,0.0,0.0,0.0,0.0,0.0,0.0,0.0,0.0,0.0,0.0,0.0,0.0,0.0,0.0,0.0,0.0,0.0,0.0,0.0,0.0,0.0,0.0,0.0,0.0,0.0,0.0,0.0,0.0,0.0,0.0,0.0,0.0,2.2977,2.5838,2.7043,2.6277,2.3655,2.1958,2.1371,0.0,0.0,0.0,0.0,0.0,0.0,0.0,0.0,0.0,0.0,0.0,0.0,0.0,0.0,0.0,0.0,0.0,0.0,0.0,0.0,0.0,0.0,0.0,0.0,0.0,0.0,0.0,0.0,0.0,0.0,0.0,0.0,0.0,0.0,0.0,0.0,0.0,0.0,0.0,0.0,0.0,0.0,0.0,0.0,0.0,0.0,0.0,0.0,0.0,0.0,0.0,0.0,0.0,0.0,0.0,0.0,0.0,0.0,0.0,0.0,0.0,0.0,0.0,0.0,0.0,0.0,0.0,0.0,0.0,0.0,0.0,0.0,0.0,0.0,0.0,0.0,0.0,0.0,0.0,0.0,0.0,0.0,0.0,0.0,0.0,0.0,0.0,0.0,0.0,0.0,0.0,0.0,0.0,0.0,0.0,0.0,0.0,0.0,0.0,0.0,0.0,0.0,0.0,0.0,0.0,0.0,0.0,0.0,2.6909,3.0173,3.0377,2.7519,2.604,2.3511,0.0,0.0,0.0,0.0,0.0,0.0,0.0,0.0,0.0,0.0,0.0,0.0,0.0,0.0,0.0,0.0,0.0,0.0,0.0,0.0,0.0,0.0,0.0,0.0,0.0,0.0,0.0,0.0,0.0,0.0,0.0,0.0,0.0,0.0,0.0,0.0,0.0,0.0,0.0,0.0,0.0,0.0,0.0,0.0,0.0,0.0,0.0,0.0,0.0,0.0,0.0,0.0,0.0,0.0,0.0,0.0,0.0,0.0,0.0,0.0,0.0,0.0,0.0,0.0,0.0,0.0,0.0,0.0,0.0,0.0,0.0,0.0,0.0,0.0,0.0,0.0,0.0,0.0,0.0,0.0,0.0,0.0,0.0,0.0,0.0,0.0,0.0,0.0,0.0,0.0,0.0,0.0,0.0,0.0,0.0,0.0,0.0,0.0,0.0,0.0,0.0,0.0,0.0,0.0,0.0,0.0,0.0,0.0,0.0,2.7761,3.1126,3.1947,2.9799,2.6825,2.4366,0.0,0.0,0.0,0.0,0.0,0.0,0.0,0.0,0.0,0.0,0.0,0.0,0.0,0.0,0.0,0.0,0.0,0.0,0.0,0.0,0.0,0.0,0.0,0.0,0.0,0.0,0.0,0.0,0.0,0.0,0.0,0.0,0.0,0.0,0.0,0.0,0.0,0.0,0.0,0.0,0.0,0.0,0.0,0.0,0.0,0.0,0.0,0.0,0.0,0.0,0.0,0.0,0.0,0.0,0.0,0.0,0.0,0.0,0.0,0.0,0.0,0.0,0.0,0.0,0.0,0.0,0.0,0.0,0.0,0.0,0.0,0.0,0.0,0.0,0.0,0.0,0.0,0.0,0.0,0.0,0.0,0.0,0.0,0.0,0.0,0.0,0.0,0.0,0.0,0.0,0.0,0.0,0.0,0.0,0.0,0.0,0.0,0.0,0.0,0.0,0.0,0.0,0.0,0.0,0.0,0.0,0.0,0.0,2.7507,2.9651,3.2343,3.3372,3.2478,2.9126,2.6284,0.0,0.0,0.0,0.0,0.0,0.0,0.0,0.0,0.0,0.0,0.0,0.0,0.0,0.0,0.0,0.0,0.0,0.0,0.0,0.0,0.0,0.0,0.0,0.0,0.0,0.0,0.0,0.0,0.0,0.0,0.0,0.0,0.0,0.0,0.0,0.0,0.0,0.0,0.0,0.0,0.0,0.0,0.0,0.0,0.0,0.0,0.0,0.0,0.0,0.0,0.0,0.0,0.0,0.0,0.0,0.0,0.0,0.0,0.0,0.0,0.0,0.0,0.0,0.0,0.0,0.0,0.0,0.0,0.0,0.0,0.0,0.0,0.0,0.0,0.0,0.0,0.0,0.0,0.0,0.0,0.0,0.0,0.0,0.0,0.0,0.0,0.0,0.0,0.0,0.0,0.0,0.0,0.0,0.0,0.0,0.0,0.0,0.0,0.0,0.0,0.0,0.0,0.0,0.0,0.0,0.0,0.0,0.0,2.8545,3.1577,3.3187,3.4114,3.4286,3.1834,2.8509,0.0,0.0,0.0,0.0,0.0,0.0,0.0,0.0,0.0,0.0,0.0,0.0,0.0,0.0,0.0,0.0,0.0,0.0,0.0,0.0,0.0,0.0,0.0,0.0,0.0,0.0,0.0,0.0,0.0,0.0,0.0,0.0,0.0,0.0,0.0,0.0,0.0,0.0,0.0,0.0,0.0,0.0,0.0,0.0,0.0,0.0,0.0,0.0,0.0,0.0,0.0,0.0,0.0,0.0,0.0,0.0,0.0,0.0,0.0,0.0,0.0,0.0,0.0,0.0,0.0,0.0,0.0,0.0,0.0,0.0,0.0,0.0,0.0,0.0,0.0,0.0,0.0,0.0,0.0,0.0,0.0,0.0,0.0,0.0,0.0,0.0,0.0,0.0,0.0,0.0,0.0,0.0,0.0,0.0,0.0,0.0,0.0,0.0,0.0,0.0,0.0,0.0,0.0,0.0,0.0,0.0,0.0,0.0,2.7722,2.9488,3.0991,3.1547,3.1248,3.0896,2.9157,0.0,0.0,0.0,0.0,0.0,0.0,0.0,0.0,0.0,0.0,0.0,0.0,0.0,0.0,0.0,0.0,0.0,0.0,0.0,0.0,0.0,0.0,0.0,0.0,0.0,0.0,0.0,0.0,0.0,0.0,0.0,0.0,0.0,0.0,0.0,0.0,0.0,0.0,0.0,0.0,0.0,0.0,0.0,0.0,0.0,0.0,0.0,0.0,1.4679,0.0,0.0,0.0,0.0,0.0,0.0,0.0,0.0,0.0,0.0,0.0,0.0,0.0,0.0,0.0,0.0,0.0,0.0,0.0,0.0,0.0,0.0,0.0,0.0,0.0,0.0,0.0,0.0,0.0,0.0,0.0,0.0,0.0,0.0,0.0,0.0,0.0,0.0,0.0,0.0,0.0,0.0,0.0,0.0,0.0,0.0,0.0,0.0,0.0,0.0,0.0,0.0,0.0,0.0,0.0,0.0,0.0,0.0,0.0,2.8655,3.0382,3.1736,3.2216,3.1804,3.1932,3.0087,0.0,0.0,0.0,0.0,0.0,0.0,0.0,0.0,0.0,0.0,0.0,0.0,0.0,0.0,0.0,0.0,0.0,0.0,0.0,0.0,0.0,0.0,0.0,0.0,0.0,0.0,0.0,0.0,0.0,0.0,0.0,0.0,0.0,0.0,0.0,0.0,0.0,0.0,0.0,0.0,0.0,0.0,0.0,0.0,0.0,0.0,0.0,0.0,0.0,0.0,0.0,0.0,0.0,0.0,0.0,0.0,0.0,0.0,0.0,0.0,0.0,0.0,0.0,0.0,0.0,0.0,0.0,0.0,0.0,0.0,0.0,0.0,0.0,0.0,0.0,0.0,0.0,0.0,0.0,0.0,0.0,0.0,0.0,0.0,0.0,0.0,0.0,0.0,0.0,0.0,0.0,0.0,0.0,0.0,0.0,0.0,0.0,0.0,0.0,0.0,0.0,0.0,0.0,0.0,0.0,0.0,0.0,2.7131,2.9726,3.1975,3.2997,3.3379,3.298,3.3131,3.0675,2.5534,0.0,0.0,0.0,0.0,0.0,0.0,0.0,0.0,0.0,0.0,0.0,0.0,0.0,0.0,0.0,0.0,0.0,0.0,0.0,0.0,0.0,0.0,0.0,0.0,0.0,0.0,0.0,0.0,0.0,0.0,0.0,0.0,0.0,0.0,0.0,0.0,0.0,0.0,1.5294,1.6646,0.0,0.0,0.0,0.0,0.0,0.0,0.0,0.0,1.6307,0.0,0.0,0.0,0.0,0.0,0.0,0.0,0.0,0.0,0.0,0.0,0.0,0.0,0.0,0.0,0.0,0.0,0.0,0.0,0.0,0.0,0.0,0.0,0.0,0.0,0.0,0.0,0.0,0.0,0.0,0.0,0.0,0.0,0.0,0.0,0.0,0.0,0.0,0.0,0.0,0.0,0.0,0.0,0.0,0.0,0.0,0.0,0.0,0.0,0.0,0.0,0.0,0.0,0.0,0.0,0.0,2.7761,2.7387,2.8515,3.1356,3.1436,3.1221,3.0769,3.1672,2.9991,2.5644,0.0,0.0,0.0,0.0,0.0,0.0,0.0,0.0,0.0,0.0,0.0,0.0,0.0,0.0,0.0,0.0,0.0,0.0,0.0,0.0,0.0,0.0,0.0,0.0,0.0,0.0,0.0,0.0,0.0,0.0,0.0,0.0,0.0,0.0,0.0,0.0,0.0,0.0,0.0,2.0407,2.1052,0.0,0.0,0.0,0.0,0.0,0.0,0.0,0.0,1.5905,0.0,0.0,0.0,0.0,0.0,0.0,0.0,0.0,0.0,0.0,0.0,0.0,0.0,0.0,0.0,0.0,0.0,0.0,0.0,0.0,0.0,0.0,0.0,0.0,0.0,0.0,0.0,0.0,0.0,0.0,0.0,0.0,0.0,0.0,0.0,0.0,0.0,0.0,0.0,0.0,0.0,0.0,0.0,0.0,0.0,0.0,0.0,0.0,0.0,0.0,0.0,0.0,0.0,0.0,0.0,2.6317,2.772,2.9324,3.1247,3.1229,3.098,3.0608,3.0579,2.896,0.0,0.0,0.0,0.0,0.0,0.0,0.0,0.0,0.0,0.0,0.0,0.0,0.0,0.0,0.0,0.0,0.0,0.0,0.0,0.0,0.0,0.0,0.0,0.0,0.0,0.0,0.0,0.0,0.0,0.0,0.0,0.0,0.0,0.0,0.0,0.0,0.0,0.0,0.0,0.0,2.1513,2.202,2.2521,0.0,0.0,0.0,0.0,0.0,0.0,1.6947,1.6042,0.0,0.0,0.0,0.0,0.0,0.0,0.0,0.0,0.0,0.0,0.0,0.0,0.0,0.0,0.0,0.0,0.0,0.0,0.0,0.0,0.0,0.0,0.0,0.0,0.0,0.0,0.0,0.0,0.0,0.0,0.0,0.0,0.0,0.0,0.0,0.0,0.0,0.0,0.0,0.0,0.0,0.0,0.0,0.0,0.0,0.0,0.0,0.0,0.0,0.0,0.0,0.0,0.0,0.0,0.0,2.4865,2.7894,3.0033,3.1181,3.1306,3.1192,3.0949,3.0277,2.8546,0.0,0.0,0.0,0.0,0.0,0.0,0.0,0.0,0.0,0.0,0.0,0.0,0.0,0.0,0.0,0.0,0.0,0.0,0.0,0.0,0.0,0.0,0.0,0.0,0.0,0.0,0.0,0.0,0.0,0.0,0.0,0.0,0.0,0.0,0.0,0.0,0.0,0.0,0.0,0.0,0.0,2.3075,2.4237,2.2402,0.0,0.0,0.0,0.0,1.9167,1.8051,0.0,0.0,0.0,0.0,0.0,0.0,0.0,0.0,0.0,0.0,0.0,0.0,0.0,0.0,0.0,0.0,0.0,0.0,0.0,0.0,0.0,0.0,0.0,0.0,0.0,0.0,0.0,0.0,0.0,0.0,0.0,0.0,0.0,0.0,0.0,0.0,0.0,0.0,0.0,0.0,0.0,0.0,0.0,0.0,0.0,0.0,0.0,0.0,0.0,0.0,0.0,0.0,0.0,0.0,0.0,0.0,2.5832,2.765,2.9332,3.0979,3.1229,3.127,3.13,3.165,3.0077,0.0,0.0,0.0,0.0,0.0,0.0,0.0,0.0,0.0,0.0,0.0,0.0,0.0,0.0,0.0,0.0,0.0,0.0,0.0,0.0,0.0,0.0,0.0,0.0,0.0,0.0,0.0,0.0,0.0,0.0,0.0,0.0,0.0,0.0,0.0,0.0,0.0,0.0,0.0,0.0,0.0,2.6281,2.3387,2.3456,2.3265,0.0,0.0,2.0044,2.1667,2.0725,0.0,0.0,0.0,0.0,0.0,0.0,0.0,0.0,0.0,0.0,0.0,0.0,0.0,0.0,0.0,0.0,0.0,0.0,0.0,0.0,0.0,0.0,0.0,0.0,0.0,0.0,0.0,0.0,0.0,0.0,0.0,0.0,0.0,0.0,0.0,0.0,0.0,0.0,0.0,0.0,0.0,0.0,0.0,0.0,0.0,0.0,0.0,0.0,0.0,0.0,0.0,0.0,0.0,0.0,0.0,2.3098,2.5847,2.8661,3.0536,3.1372,3.1964,3.217,3.1962,3.1065,2.8955,0.0,0.0,0.0,0.0,0.0,0.0,0.0,0.0,0.0,0.0,0.0,0.0,0.0,0.0,0.0,0.0,0.0,0.0,0.0,0.0,0.0,0.0,0.0,0.0,0.0,0.0,0.0,0.0,0.0,0.0,0.0,0.0,0.0,0.0,0.0,0.0,0.0,0.0,0.0,0.0,0.0,0.0,2.5636,2.4787,0.0,0.0,0.0,2.153,2.2217,0.0,0.0,0.0,0.0,0.0,0.0,0.0,0.0,0.0,0.0,0.0,0.0,0.0,0.0,0.0,0.0,0.0,0.0,0.0,0.0,0.0,0.0,0.0,0.0,0.0,0.0,0.0,0.0,0.0,0.0,0.0,0.0,0.0,0.0,0.0,0.0,0.0,0.0,0.0,0.0,0.0,0.0,0.0,0.0,0.0,0.0,0.0,0.0,0.0,0.0,0.0,0.0,0.0,0.0,0.0,0.0,0.0,2.5793,2.9468,3.146,3.1644,3.244,3.2742,3.2285,3.0589,0.0,0.0,0.0,0.0,0.0,0.0,0.0,0.0,0.0,0.0,0.0,0.0,0.0,0.0,0.0,0.0,0.0,0.0,0.0,0.0,0.0,0.0,0.0,0.0,0.0,0.0,0.0,1.1573,0.0,0.0,0.0,0.0,0.0,0.0,0.0,0.0,0.0,0.0,0.0,0.0,0.0,0.0,2.4479,2.7133,2.5974,2.5041,0.0,0.0,2.2703,2.2905,2.251,2.1589,0.0,0.0,0.0,0.0,0.0,0.0,0.0,0.0,0.0,0.0,0.0,0.0,0.0,0.0,0.0,0.0,0.0,0.0,0.0,0.0,0.0,0.0,0.0,0.0,0.0,0.0,0.0,0.0,0.0,0.0,0.0,0.0,0.0,0.0,0.0,0.0,0.0,0.0,0.0,0.0,0.0,0.0,0.0,0.0,0.0,0.0,0.0,0.0,0.0,0.0,0.0,0.0,0.0,0.0,0.0,2.6123,2.9567,3.1391,3.1495,3.2416,3.2521,3.1804,3.1085,2.9355,0.0,0.0,0.0,0.0,0.0,0.0,0.0,0.0,0.0,0.0,0.0,0.0,0.0,0.0,0.0,0.0,0.0,0.0,0.0,0.0,0.0,0.0,0.0,0.0,0.0,0.0,0.0,0.0,0.0,0.0,0.0,0.0,0.0,0.0,0.0,0.0,0.0,0.0,0.0,0.0,0.0,2.5522,2.6051,2.667,2.6965,0.0,0.0,2.373,2.45,2.4253,2.3213,2.081,0.0,0.0,0.0,0.0,0.0,0.0,0.0,0.0,0.0,0.0,0.0,0.0,0.0,0.0,0.0,0.0,0.0,0.0,0.0,0.0,0.0,0.0,0.0,0.0,0.0,0.0,0.0,0.0,0.0,0.0,0.0,0.0,0.0,0.0,0.0,0.0,0.0,0.0,0.0,0.0,0.0,0.0,0.0,0.0,0.0,0.0,0.0,0.0,0.0,0.0,0.0,0.0,0.0,2.3904,2.632,2.992,3.1983,3.2392,3.3278,3.3589,3.2901,3.2249,3.0229,0.0,0.0,0.0,0.0,0.0,0.0,0.0,0.0,0.0,0.0,0.0,0.0,0.0,0.0,0.0,0.0,0.0,0.0,0.0,0.0,0.0,0.0,0.0,0.0,0.0,0.0,0.0,0.0,1.3992,1.4139,1.4378,0.0,0.0,0.0,0.0,0.0,0.0,0.0,0.0,0.0,0.0,2.5217,2.6019,2.6423,0.0,0.0,2.5862,2.4968,2.4812,2.4427,2.3459,2.1356,2.0413,0.0,0.0,0.0,0.0,0.0,0.0,0.0,0.0,0.0,0.0,0.0,0.0,0.0,0.0,0.0,0.0,0.0,0.0,0.0,0.0,0.0,0.0,0.0,0.0,0.0,0.0,0.0,0.0,0.0,0.0,0.0,0.0,0.0,0.0,0.0,0.0,0.0,0.0,0.0,0.0,0.0,0.0,0.0,0.0,0.0,0.0,0.0,0.0,0.0,0.0,0.0,0.0,2.4146,2.6676,3.0388,3.2546,3.3168,3.4074,3.4292,3.3684,3.2963,3.0877,0.0,0.0,0.0,0.0,0.0,0.0,0.0,0.0,0.0,0.0,0.0,0.0,0.0,0.0,0.0,0.0,0.0,0.0,0.0,0.0,0.0,0.0,0.0,0.0,0.0,0.0,0.0,0.0,1.4866,1.4684,1.49,0.0,0.0,0.0,0.0,0.0,0.0,0.0,0.0,0.0,0.0,2.5088,2.6329,2.652,2.6652,2.6778,2.6162,2.5454,2.5023,2.4611,2.3831,2.207,0.0,0.0,0.0,0.0,0.0,0.0,0.0,0.0,0.0,0.0,0.0,0.0,0.0,0.0,0.0,0.0,0.0,0.0,0.0,0.0,0.0,0.0,0.0,0.0,0.0,0.0,0.0,0.0,0.0,0.0,1.813,0.0,0.0,0.0,0.0,0.0,0.0,0.0,0.0,0.0,0.0,0.0,0.0,0.0,0.0,0.0,0.0,0.0,0.0,0.0,0.0,0.0,0.0,2.4649,2.7148,3.0655,3.2842,3.3696,3.4377,3.4401,3.3696,3.2963,3.1368,2.8986,0.0,0.0,0.0,0.0,0.0,0.0,0.0,0.0,0.0,0.0,0.0,0.0,0.0,0.0,0.0,0.0,0.0,0.0,0.0,0.0,0.0,0.0,0.0,0.0,0.0,0.0,1.5643,1.5196,1.4814,0.0,0.0,0.0,0.0,0.0,0.0,0.0,0.0,0.0,0.0,2.4087,2.5641,2.6748,2.7305,2.7324,2.6707,2.5592,2.4968,2.5326,2.5032,2.4245,0.0,0.0,0.0,0.0,0.0,0.0,0.0,0.0,0.0,0.0,0.0,0.0,0.0,0.0,0.0,0.0,0.0,0.0,0.0,0.0,0.0,0.0,0.0,0.0,0.0,0.0,0.0,2.1941,2.0317,0.0,0.0,0.0,0.0,0.0,0.0,0.0,0.0,0.0,0.0,0.0,2.6529,2.8134,0.0,0.0,0.0,0.0,0.0,0.0,0.0,0.0,0.0,0.0,0.0,0.0,2.5182,2.7707,3.0714,3.2732,3.3684,3.4252,3.4447,3.4183,3.3385,3.1584,2.8674,0.0,0.0,0.0,0.0,0.0,0.0,0.0,0.0,0.0,0.0,0.0,0.0,0.0,0.0,0.0,0.0,0.0,0.0,0.0,0.0,0.0,0.0,0.0,0.0,0.0,1.5652,0.0,0.0,0.0,0.0,0.0,0.0,0.0,0.0,0.0,0.0,0.0,2.195,2.2734,2.4756,2.627,2.6276,2.6854,2.7241,0.0,0.0,0.0,0.0,0.0,0.0,0.0,0.0,0.0,0.0,0.0,0.0,0.0,0.0,2.178,1.7897,1.6684,1.6082,1.5417,0.0,0.0,0.0,0.0,0.0,0.0,0.0,0.0,0.0,0.0,0.0,0.0,0.0,0.0,2.6065,0.0,2.5099,0.0,0.0,0.0,0.0,0.0,0.0,0.0,0.0,2.8763,2.9784,2.9356,3.0886,3.0632,0.0,2.881,2.6943,0.0,0.0,0.0,0.0,0.0,0.0,0.0,0.0,2.5968,2.8641,3.0904,3.2707,3.3906,3.415,3.4347,3.4507,3.3551,3.1673,2.8778,2.7131,2.5516,0.0,0.0,0.0,0.0,0.0,0.0,0.0,0.0,0.0,0.0,0.0,0.0,0.0,0.0,0.0,0.0,0.0,0.0,0.0,0.0,0.0,0.0,0.0,1.6478,0.0,0.0,0.0,0.0,0.0,0.0,0.0,0.0,0.0,1.9448,2.1738,2.3653,2.3966,2.5507,2.6588,2.624,0.0,0.0,0.0,0.0,0.0,0.0,0.0,2.5656,2.5554,2.5372,2.5213,2.5165,2.5772,2.5961,2.5249,0.0,0.0,2.098,1.9741,1.9,1.7939,1.7784,1.7417,1.6264,1.6561,1.6942,0.0,0.0,0.0,0.0,0.0,0.0,0.0,0.0,2.724,3.1216,0.0,2.9878,0.0,0.0,0.0,0.0,0.0,0.0,0.0,0.0,3.1704,3.2851,3.3308,3.3368,3.3104,3.2647,3.2754,3.1556,2.8964,2.5201,0.0,0.0,0.0,0.0,0.0,0.0,2.7117,2.9811,3.1379,3.2814,3.4299,3.4162,3.4359,3.4666,3.3332,3.1565,2.952,2.8733,2.7311,2.5038,2.3346,0.0,0.0,0.0,0.0,0.0,0.0,0.0,0.0,0.0,0.0,0.0,0.0,0.0,0.0,0.0,0.0,0.0,0.0,0.0,0.0,1.7546,0.0,0.0,0.0,0.0,0.0,0.0,0.0,0.0,0.0,0.0,2.2071,2.3299,2.4666,2.5803,0.0,0.0,0.0,0.0,2.7215,2.7224,2.7224,2.7251,2.7242,2.7224,2.7086,2.6756,0.0,0.0,2.6528,2.7293,2.756,2.6265,2.6628,2.6876,2.5963,2.43,2.2835,2.1851,2.0424,1.9252,1.8212,1.8088,1.8318,3.6146,0.0,0.0,0.0,0.0,3.2534,3.1658,3.0861,3.2906,3.4312,3.5076,3.2092,0.0,0.0,0.0,0.0,0.0,0.0,3.0123,3.1598,3.3148,3.4342,3.4956,3.534,3.5232,3.4727,3.439,3.3707,3.2544,3.0497,2.7419,2.3443,0.0,0.0,0.0,0.0,2.8563,3.0088,3.1596,3.2982,3.415,3.3977,3.3899,3.4006,3.3407,3.2599,3.1613,3.0699,2.9332,2.7655,2.6059,0.0,0.0,0.0,0.0,0.0,0.0,0.0,0.0,0.0,0.0,0.0,0.0,0.0,0.0,0.0,0.0,0.0,0.0,0.0,1.6796,1.7957,1.8841,0.0,0.0,0.0,0.0,0.0,0.0,0.0,0.0,0.0,2.5839,2.6188,2.6334,0.0,0.0,2.7315,2.705,2.7609,2.8049,2.8049,2.8278,0.0,0.0,2.8223,2.8196,2.8645,2.903,2.8958,2.8487,2.8404,2.8306,2.7693,2.7723,2.7801,2.7455,2.5822,2.4057,2.2889,2.1651,2.0407,1.9382,1.9229,1.9428,4.1626,3.826,3.6771,3.679,3.759,3.6469,3.6049,3.6281,3.6702,3.6553,3.5966,3.4763,3.2826,3.0541,2.952,0.0,0.0,0.0,3.234,3.3588,3.4497,3.5314,3.593,3.6254,3.6242,3.5918,3.5505,3.5086,3.4655,3.3517,3.1039,2.7278,0.0,0.0,2.6805,2.8561,2.9996,3.1088,3.2114,3.3036,3.3965,3.3878,3.3742,3.3516,3.3279,3.2835,3.2309,3.1649,3.0623,2.9195,2.7975,2.6001,0.0,0.0,0.0,0.0,0.0,0.0,0.0,0.0,0.0,0.0,0.0,1.7829,1.5667,0.0,0.0,0.0,1.7921,1.8417,1.974,2.0449,0.0,0.0,0.0,0.0,0.0,0.0,0.0,2.4088,2.5179,2.6371,2.782,2.8232,2.8223,2.7829,2.8177,2.8342,2.7948,0.0,2.8865,2.8856,2.9204,2.947,2.9461,2.9269,2.9278,2.9605,2.9777,2.9789,2.9295,2.9165,2.9015,2.8631,2.8238,2.7844,2.7852,2.5782,2.4043,2.3669,2.2639,2.1378,2.0178,2.008,2.0195,4.6083,4.5202,4.1936,4.0884,4.1379,3.9959,3.9848,4.0684,3.903,3.8176,3.808,3.7517,3.6357,3.4602,3.2972,0.0,0.0,3.3744,3.4605,3.5737,3.5785,3.6062,3.6531,3.6543,3.6531,3.6531,3.6176,3.6016,3.5737,3.49,3.3838,3.2528,3.1102,3.047,3.0566,3.0694,3.1368,3.2443,3.2816,3.318,3.3668,3.3988,3.3852,3.337,3.3019,3.2673,3.2162,3.1872,3.108,2.9969,2.9183,2.7637,2.5176,0.0,0.0,0.0,0.0,0.0,0.0,0.0,0.0,0.0,0.0,0.0,0.0,0.0,0.0,0.0,2.2237,0.0,2.4208,2.403,0.0,0.0,0.0,2.2126,2.3238,2.3861,2.4545,2.5518,0.0,0.0,2.8581,2.9562,3.0103,2.9718,2.9644,2.9479,2.9085,2.9342,2.9617,2.9599,2.9975,3.0241,3.0204,3.0231,3.0144,2.994,3.0095,3.0066,2.9445,2.9543,2.9657,2.9265,2.8238,2.7278,2.7294,2.5055,2.3276,2.403,2.3075,2.1842,2.0827,2.0617,2.0617,4.7586,4.7317,4.647,4.5455,4.419,4.299,4.2226,4.1852,4.0904,3.9841,3.8802,3.856,3.7541,3.5913,3.5529,3.5218,3.5002,3.5925,3.6579,3.6843,3.724,3.7481,3.7613,3.7601,3.7601,3.7577,3.7088,3.6836,3.6783,3.6189,3.5645,3.5075,3.4516,3.2978,3.0705,3.1739,3.2399,3.2477,3.2978,3.3254,3.3381,3.3878,3.3918,3.3592,3.3101,3.2746,3.2394,3.1782,3.1069,3.047,2.9526,2.824,2.6726,2.4281,0.0,0.0,0.0,0.0,0.0,0.0,0.0,0.0,0.0,2.1922,1.8549,0.0,2.2533,0.0,2.5228,2.5719,2.4868,2.4732,0.0,0.0,2.5286,2.4783,2.6597,2.684,2.7105,2.7618,2.8636,2.9534,3.014,3.047,3.0616,3.0506,3.0241,2.9901,2.9516,2.9791,3.0048,3.0094,3.0406,3.0644,3.0662,3.091,3.0938,3.0719,3.0552,3.0219,2.9812,2.9492,2.9438,2.9307,2.9036,2.8362,2.7302,2.5674,2.4167,2.327,2.2056,2.0995,2.0792,2.0665,2.0665,4.8935,4.8935,4.8388,4.7453,4.6385,4.4792,4.3623,4.2744,4.1663,4.0599,3.9564,3.9273,3.8671,3.7841,3.7829,3.7661,3.7457,3.801,3.8274,3.8286,3.8575,3.8575,3.8359,3.8359,3.8226,3.7974,3.7685,3.7553,3.7517,3.6908,3.6462,3.6359,3.5812,3.4633,3.2762,3.3494,3.3696,3.3166,3.3247,3.3281,3.3281,3.3568,3.3674,3.3319,3.284,3.2394,3.1973,3.1474,3.0855,3.0163,2.963,2.8866,2.7587,2.5807,2.4055,0.0,0.0,0.0,0.0,0.0,0.0,0.0,0.0,0.0,0.0,0.0,2.52,2.5741,2.7689,2.8632,2.8055,2.8156,2.8655,2.9372,2.8131,2.7564,2.8416,2.8524,2.8737,2.9149,2.9736,3.0286,3.0736,3.0947,3.1047,3.1047,3.0864,3.058,3.0241,3.0461,3.0726,3.0726,3.091,3.1057,3.1057,3.1231,3.1249,3.075,3.0499,3.0239,2.9691,2.9438,2.9307,2.9307,2.8774,2.7833,2.6486,2.5001,2.3509,2.2153,2.1207,2.0804,2.0665,2.0665,2.0665,4.9946,4.9629,4.8598,4.792,4.751,4.5503,4.4138,4.3437,4.192,4.0884,4.0254,3.9798,3.9705,3.9705,3.9645,3.9609,3.9609,3.9609,3.9609,3.9609,3.9609,3.9357,3.8924,3.8852,3.8563,3.8094,3.8022,3.7974,3.7962,3.7226,3.6918,3.6894,3.6154,3.5607,3.541,3.5399,3.4901,3.4108,3.3694,3.3442,3.3384,3.3373,3.3185,3.2889,3.2378,3.1879,3.1402,3.1073,3.0504,2.9708,2.9692,2.9254,2.8207,2.7151,2.6117,0.0,2.4041,0.0,0.0,0.0,0.0,0.0,0.0,0.0,0.0,2.7732,2.8228,2.7583,2.9985,3.1632,3.1958,3.2197,3.1945,3.1354,3.0541,2.9813,2.9204,2.9489,2.9865,3.0231,3.0626,3.0864,3.0892,3.1167,3.1368,3.135,3.1322,3.1185,3.0956,3.1121,3.1313,3.1377,3.1377,3.1332,3.1341,3.1359,3.1129,3.0499,3.0369,3.01,2.9447,2.9307,2.9307,2.9176,2.8238,2.6761,2.5285,2.391,2.2415,2.1069,2.0804,2.0665,2.0665,2.0665,2.0678,4.9389,4.8476,4.8151,4.7039,4.5119,4.4687,4.4244,4.3501,4.194,4.1124,4.098,4.0463,4.0258,4.021,3.9789,3.9609,3.9609,3.9609,3.9609,3.9609,3.9609,3.9549,3.9441,3.902,3.8755,3.8635,3.8202,3.7974,3.7974,3.7583,3.7453,3.7453,3.6789,3.6421,3.6421,0.0,0.0,0.0,3.4567,3.4303,3.3889,3.3866,3.343,3.2609,3.2271,0.0,3.1124,3.0777,3.0453,3.0078,2.9699,0.0,0.0,0.0,0.0,0.0,0.0,0.0,0.0,0.0,0.0,0.0,2.9748,2.9625,2.7852,3.0733,3.2092,3.0526,3.2611,3.365,3.2721,3.2197,3.1819,3.1337,3.0344,2.974,2.992,3.0314,3.0598,3.0671,3.102,3.1258,3.1258,3.1341,3.1377,3.1377,3.1377,3.135,3.1267,3.1322,3.1377,3.1377,3.1377,3.1377,3.1377,3.1129,3.0879,3.0499,3.0091,2.9822,2.9438,2.9307,2.9307,2.9176,2.8106,2.6761,2.5278,2.3774,2.2421,2.0937,2.0671,2.0665,2.0665,2.0671,2.0732,5.0509,0.0,4.924,4.79,0.0,4.533,4.4481,4.3492,4.2405,4.181,4.1545,4.1016,4.0787,4.0775,4.0511,4.0379,4.0379,4.0391,4.0379,4.0391,4.0379,4.0222,3.9822,3.9705,3.9429,3.8995,3.8623,3.8395,3.8383,3.7703,3.737,3.737,3.682,3.6483,3.6495,3.6375,3.591,3.5164,3.4923,3.467,3.4406,3.4395,3.3912,3.2925,0.0,0.0,0.0,0.0,0.0,0.0,0.0,0.0,0.0,0.0,0.0,2.8607,2.8508,2.841,2.8399,2.9396,3.0458,3.1439,3.283,3.286,3.1043,3.3012,3.3957,3.2772,3.4092,3.4527,3.3395,3.3059,3.256,3.1719,3.1245,3.0992,3.0604,3.0837,3.1066,3.1093,3.1249,3.1377,3.1377,3.1377,3.1377,3.1377,3.1377,3.1377,3.1377,3.1377,3.1377,3.1377,3.1377,3.1377,3.1377,3.1129,3.075,3.0499,3.0091,2.9683,2.9307,2.9307,2.9045,2.8378,2.77,2.6486,2.4452,2.3229,2.2461,2.1235,2.0859,2.0919,2.1016,2.0961,2.0943,5.0975,5.074,4.9689,4.8532,4.7352,4.5855,4.4593,4.3625,0.0,0.0,0.0,4.1557,4.1329,4.1317,4.122,4.1184,4.1184,4.1184,4.1184,4.1184,4.1184,4.092,4.0338,4.0403,4.0026,3.9522,3.9067,3.8839,3.8827,3.7736,3.7272,3.7153,3.6638,3.6266,3.6266,3.6266,3.6071,3.5657,3.5267,3.5014,3.4934,3.4923,3.4452,3.343,3.3327,3.265,3.1329,3.1192,3.0767,2.9952,2.9894,3.0112,3.0572,3.0618,3.1042,3.1961,3.2408,3.2661,3.2753,3.3258,3.366,3.3924,3.5164,3.552,3.4613,3.5026,3.5228,3.5001,3.507,3.4898,3.4062,3.3735,3.3176,3.205,3.2152,3.1988,3.1027,3.1176,3.1359,3.1377,3.1368,3.1377,3.1377,3.1377,3.1377,3.1377,3.1377,3.1377,3.1377,3.1377,3.1377,3.1377,3.1377,3.1249,3.1249,3.0861,3.062,3.0361,2.9961,2.9691,2.9438,2.9307,2.8774,2.7576,2.7035,2.5704,2.3577,2.2651,2.219,2.1359,2.1136,2.1215,2.145,2.1372,2.1293,4.7977,4.7036,4.6798,4.5972,4.4816,4.462,4.435,4.4154,4.3192,4.2723,4.2615,4.2098,4.1858,4.1834,4.1389,4.1184,4.1184,4.1184,4.1184,0.0,4.1184,4.1136,4.1028,4.0607,4.0552,4.0801,3.9937,3.9378,3.8963,3.8158,3.779,3.7622,3.6812,3.6266,3.6266,3.6266,3.6231,3.6151,3.6094,3.5853,3.5439,3.5416,3.4934,3.3947,3.3511,3.2982,3.2317,3.1892,3.1593,3.1444,3.1444,3.1662,3.2133,3.2156,3.2443,3.3017,3.3143,3.3361,3.3763,3.4291,3.5152,3.6392,3.7104,3.7219,3.6691,3.7069,3.7301,3.7224,3.6126,3.5392,3.4496,3.3374,3.2411,3.1621,3.1496,3.1542,3.1267,3.1322,3.1377,3.1377,3.1377,3.1377,3.1377,3.1377,3.1377,3.1377,3.1377,3.1377,3.1377,3.1377,3.1377,3.1377,3.112,3.1,3.087,3.0343,3.0074,2.9944,2.9691,2.9307,2.9176,2.9176,2.8502,2.7294,2.6107,2.4725,2.3278,2.2109,2.1537,2.1354,2.1414,2.151,2.1758,2.1764,2.1758,4.7743,4.7272,4.7272,4.6453,4.5294,4.4582,4.4347,4.4311,4.383,4.3445,4.3132,4.2627,4.2399,4.2351,4.1846,4.1617,4.1605,4.1317,4.1184,4.1184,4.1184,4.1184,4.116,4.0932,4.0836,4.0595,4.0057,3.9558,3.9297,3.8477,3.7979,3.7589,3.6737,3.6266,3.6266,3.6266,3.6266,3.6266,3.6266,3.6162,3.5933,3.5921,3.5577,3.4842,3.4601,3.4119,3.3338,3.3097,3.2856,3.2592,3.2581,3.2799,3.3269,3.3304,3.3545,3.4073,3.4349,3.4716,3.5198,3.5979,3.6496,3.6823,3.6999,3.6911,3.6241,3.6783,3.6516,3.5219,3.47,3.4085,3.3047,3.2333,3.1804,3.1479,3.1377,3.1377,3.1377,3.1377,3.1377,3.1377,3.1377,3.1377,3.1377,3.1377,3.1377,3.1377,3.1258,3.1138,3.0879,3.0879,3.087,3.1129,3.1,3.0879,3.062,3.0213,2.9805,2.9805,2.9561,2.9045,2.837,2.8238,2.7294,2.5278,2.4316,2.3528,2.2313,2.1753,2.1527,2.1613,2.1685,2.1794,2.1999,2.2084,2.2084,4.7272,4.7272,4.7272,4.6679,4.5755,4.4693,4.4347,4.4347,4.4347,4.4106,4.3661,4.3156,4.294,4.288,4.2387,4.2086,4.193,4.1545,4.1293,4.1184,4.1184,4.1184,4.1184,4.1184,4.0906,4.0441,4.0133,3.9978,3.96,3.8777,3.804,3.7565,3.6927,3.6622,3.661,3.661,3.661,3.661,3.661,3.6507,3.6277,3.6266,3.6082,3.5715,3.5566,3.5141,3.4395,3.4234,3.4004,3.3648,3.3625,3.3843,3.4303,3.4452,3.475,3.5279,3.5761,3.6197,3.661,3.7212,3.7286,3.6706,3.6481,3.5965,3.516,3.5533,3.5202,3.354,3.3529,3.298,3.2237,3.1616,3.1377,3.1377,3.1377,3.1377,3.1377,3.1377,3.1377,3.1377,3.1377,3.1377,3.1377,3.1377,3.1249,3.1129,3.087,3.075,3.0499,3.0378,3.0499,3.0611,3.0602,3.0482,3.023,2.9961,2.9683,2.9683,2.943,2.8774,2.7716,2.735,2.6199,2.3934,2.3325,2.2845,2.1666,2.1408,2.1655,2.1891,2.1957,2.2023,2.2186,2.2241,2.2253,4.4705,4.4705,4.4816,4.4582,4.4458,4.4347,4.4347,4.4347,4.4347,4.4335,4.419,4.3685,4.3445,4.3373,4.2916,4.2447,4.2026,4.193,4.1653,4.122,4.1184,4.1184,4.1184,4.1184,4.1172,4.1045,4.0767,4.0361,3.9966,3.9267,3.8549,3.7883,3.7666,3.7609,3.762,3.7632,3.7632,3.7643,3.7643,3.7196,3.6323,3.6266,3.6243,3.6197,3.5772,3.5485,3.5405,3.4969,3.4716,3.467,3.4693,3.49,3.537,3.5807,3.6289,3.6771,3.7276,3.762,3.7553,3.7088,3.6706,3.6524,3.5829,3.4974,3.3786,3.3737,3.4188,3.4487,3.3998,3.3292,3.3126,3.2166,3.146,3.1488,3.146,3.1377,3.1433,3.1377,3.1377,3.1377,3.1469,3.1387,3.134,3.1229,3.0933,3.0754,3.0651,3.0511,3.0372,3.0372,3.0354,3.0022,2.997,2.997,2.9839,2.9569,2.9299,2.9307,2.9316,2.8411,2.7398,2.6908,2.6535,2.3545,2.3199,2.2892,2.223,2.1836,2.1915,2.209,2.218,2.2229,2.2265,2.2265,2.2265,4.4347,4.4347,4.4347,4.4347,4.4347,4.4347,4.4347,4.4347,4.4347,4.4347,4.4323,4.4106,4.401,4.3974,4.3445,4.3072,4.2844,4.2254,4.187,4.1629,4.1341,4.1184,4.1184,4.0954,4.0838,4.0595,4.0258,4.0025,3.958,3.9024,3.8562,3.824,3.7953,3.7793,3.7793,3.7793,3.7793,3.7793,3.7793,3.7586,3.723,3.7173,3.7161,3.715,3.6966,3.6863,3.684,3.6668,3.6564,3.6576,3.6576,3.6656,3.684,3.7058,3.7253,3.7382,3.7233,3.7039,3.7039,3.6296,3.569,3.5087,3.477,3.4103,3.3094,3.2861,3.3253,3.3474,3.3034,3.2718,3.2814,3.2478,3.2102,3.2102,3.2093,3.2093,3.2093,3.1952,3.1697,3.1697,3.1565,3.1432,3.1441,3.1318,3.1052,3.0804,3.0795,3.0626,3.0502,3.0377,3.0377,3.0235,3.0101,2.9886,2.9585,2.9438,2.8922,2.842,2.8153,2.7597,2.5603,2.5135,2.4512,2.2576,2.2669,2.257,2.1959,2.2017,2.215,2.2259,2.2265,2.2265,2.2265,2.2265,2.2265,4.4347,4.4347,4.4347,4.4347,4.4347,4.4347,4.4347,4.4347,4.4347,4.4347,4.4347,4.4347,4.4347,4.4287,4.3914,4.3661,4.3421,4.2735,4.223,4.1966,4.1557,4.1329,4.1208,4.0954,4.0548,4.0012,3.9978,3.9673,3.9274,3.8975,3.878,3.8723,3.839,3.8206,3.8194,3.8194,3.8206,3.8217,3.8206,3.8206,3.8206,3.8206,3.808,3.7827,3.7793,3.7793,3.7793,3.7793,3.7793,3.7793,3.744,3.72,3.72,3.7084,3.6976,3.7133,3.661,3.6273,3.6391,3.55,3.4745,3.425,3.3931,3.3293,3.2781,3.2597,3.2661,3.2735,3.2505,3.2459,3.2542,3.2597,3.2597,3.2454,3.2463,3.2463,3.2311,3.2061,3.1899,3.1783,3.1586,3.1396,3.1396,3.1369,3.1217,3.0811,3.0828,3.0718,3.0429,3.0403,3.0403,3.0293,3.014,2.9792,2.9585,2.9135,2.8535,2.7764,2.7421,2.6298,2.3834,2.3654,2.3275,2.2463,2.2117,2.1963,2.2023,2.2174,2.2253,2.2259,2.2265,2.2265,2.2265,2.2265,2.2265,4.4347,4.4347,4.4347,4.4347,4.4347,4.4347,4.4347,4.4347,4.4347,4.4347,4.4347,4.4347,4.4347,4.4347,4.4275,4.401,4.3565,4.3421,4.288,4.211,4.1978,4.1665,4.1208,4.1184,4.0568,3.957,3.9884,3.9767,3.9308,3.9274,3.9274,3.9251,3.917,3.9205,3.9159,3.9136,3.9216,3.9124,3.9136,3.9193,3.9193,3.9193,3.8734,3.7965,3.7827,3.7873,3.7839,3.7816,3.7827,3.7816,3.6671,3.5943,3.5849,3.5251,3.5181,3.5477,3.5448,3.5666,3.5758,3.4722,3.418,3.4299,3.3482,3.2712,3.2698,3.2716,3.2863,3.3156,3.3156,3.3,3.2735,3.2753,3.2573,3.2277,3.2106,3.1989,3.1702,3.1782,3.154,3.1584,3.1502,3.1401,3.1068,3.1007,3.0941,3.066,3.0472,3.0498,3.0549,3.0506,3.0515,3.0105,2.9402,2.8753,2.9825,2.8824,2.8043,2.7223,2.6069,2.5376,2.4499,2.3621,2.2904,2.2465,2.235,2.2168,2.2223,2.2253,2.2259,2.2265,2.2265,2.2265,2.2265,2.2265,2.2265,4.4347,4.4347,4.4347,4.4347,4.4347,4.4347,4.4347,4.4347,4.4347,4.4347,4.4347,4.4347,4.4347,4.4347,4.4347,4.4239,4.4022,4.3685,4.3301,4.2928,4.2389,4.1816,4.1198,4.0952,4.054,4.0001,3.9744,3.9532,3.9308,3.9308,3.9308,3.9308,3.9308,3.9308,3.9308,3.9308,3.9308,3.9308,3.9308,3.9308,3.9308,3.9308,3.9101,3.8791,3.8757,3.8757,3.8757,3.8757,3.8384,3.7517,3.7044,3.6318,3.5628,3.5279,3.5314,3.5614,3.4921,3.4732,3.4873,3.379,3.3331,3.3591,3.3262,3.3111,3.3312,3.3376,3.3441,3.356,3.3596,3.3505,3.3431,3.3376,3.3367,3.323,3.2956,3.2663,3.2552,3.2267,3.1843,3.1852,3.1713,3.1583,3.1401,3.1444,3.1305,3.1157,3.1148,3.1131,3.1148,3.1148,3.0827,2.9864,2.9151,2.8578,2.7994,2.729,2.6386,2.5462,2.452,2.3948,2.3207,2.2936,2.2356,2.2356,2.2372,2.2247,2.2253,2.2259,2.2265,2.2265,2.2265,2.2265,2.2265,2.2265,2.2265,4.4347,4.4347,4.4347,4.4347,4.4347,4.4347,4.4347,4.4347,4.4347,4.4347,4.4347,4.4347,4.4347,4.4347,4.4347,4.4211,4.4175,4.3827,4.3563,4.325,4.2806,4.2113,4.1412,4.1006,4.0511,3.9928,3.9484,3.9308,3.9308,3.9308,3.9308,3.9308,3.9308,3.9308,3.9308,3.9308,3.9308,3.9308,3.9308,3.9308,3.9308,3.9308,3.9308,3.919,3.8919,3.893,3.9308,3.8919,3.8302,3.7309,3.6571,3.5468,3.4258,3.4273,3.4472,3.4624,3.4011,3.3771,3.4022,3.3326,3.2973,3.3367,3.3413,3.3551,3.3789,3.3817,3.3817,3.3817,3.3678,3.3678,3.3678,3.353,3.34,3.34,3.3121,3.2841,3.2701,3.2263,3.1956,3.1939,3.1781,3.1534,3.1559,3.1551,3.1542,3.1559,3.1559,3.1559,3.1559,3.1559,3.0985,2.9528,2.8757,2.7582,2.6532,2.5394,2.524,2.4562,2.3681,2.2936,2.2577,2.2311,2.2253,2.2259,2.2265,2.2265,2.2265,2.2265,2.2265,2.2265,2.2265,2.2265,2.2265,2.2265,2.2265,4.4347,4.4347,4.4347,4.4347,4.4347,4.4347,4.4347,4.4347,4.4347,4.4347,4.4347,4.4347,4.4347,4.4347,4.4347,4.4087,4.3939,4.4015,4.3764,4.3124,4.2942,4.2536,4.1857,4.17,4.094,3.9636,3.9327,3.9342,3.9377,3.9331,3.9308,3.9308,3.9308,3.9308,3.9308,3.9308,3.9308,3.9308,3.9308,3.9308,3.9308,3.9178,3.906,3.906,3.7921,3.7823,3.9094,3.7943,3.7188,3.6814,3.4891,3.2892,3.216,3.219,3.2151,3.2533,3.2537,3.279,3.3283,3.3221,3.3386,3.367,3.378,3.3771,3.3798,3.3817,3.3817,3.3817,3.3548,3.3269,3.3269,3.299,3.2701,3.2701,3.2403,3.2123,3.185,3.1709,3.1559,3.1559,3.1559,3.1559,3.1559,3.1559,3.1559,3.1559,3.1559,3.1559,3.1559,3.1418,3.0693,2.9242,2.7787,2.6342,2.4891,2.3574,2.3844,2.3831,2.3047,2.2335,2.2454,2.2259,2.2259,2.2265,2.2265,2.2265,2.2265,2.2265,2.2265,2.2265,2.2265,2.2265,2.2265,2.2265,2.2265,4.4347,4.4347,4.4347,4.4347,4.4347,4.4347,4.4347,4.4347,4.4347,4.4347,4.4347,4.4347,4.4347,4.4347,4.4347,4.4087,4.3814,4.3939,4.3719,4.3215,4.2942,4.2903,4.2609,4.204,4.1165,4.0346,4.0008,3.9825,3.9756,3.948,3.9308,3.9308,3.932,3.9308,3.9308,3.9308,3.9308,3.9308,3.9308,3.9308,3.9178,3.8421,3.7932,3.7812,3.6714,3.6364,3.6918,3.6396,3.5612,3.4757,3.416,3.3311,3.243,3.234,3.2542,3.2817,3.2955,3.3202,3.356,3.3624,3.3661,3.3789,3.3817,3.3817,3.3817,3.3817,3.3817,3.3817,3.3548,3.3269,3.313,3.2693,3.2403,3.271,3.2403,3.1965,3.1833,3.1709,3.1559,3.1559,3.1559,3.1559,3.1559,3.1559,3.1418,3.1559,3.1559,3.1418,3.1418,3.0551,2.9385,2.778,2.6335,2.5038,2.3729,2.285,2.2999,2.329,2.2707,2.2265,2.2265,2.2265,2.2265,2.2265,2.2265,2.2265,2.2265,2.2265,2.2265,2.2265,2.2265,2.2265,2.2265,2.2265,2.2265,4.4347,4.4347,4.4347,4.4347,4.4347,4.4347,4.4347,4.4347,4.4347,4.4347,4.4347,4.4347,4.4347,4.4347,4.4347,4.4075,4.3802,4.3689,4.3439,4.3075,4.2949,4.2879,4.2806,4.1957,4.1409,4.1065,4.0582,4.0341,4.0307,3.9848,3.9584,3.9572,3.94,3.9308,3.9308,3.9308,3.9308,3.9297,3.88,3.88,3.8812,3.7572,3.6911,3.7173,3.5852,3.5098,3.5335,3.4762,3.424,3.3768,3.3614,3.3237,3.2712,3.2735,3.2955,3.3175,3.3376,3.356,3.378,3.3789,3.3817,3.3817,3.3817,3.3817,3.3817,3.3817,3.3817,3.3817,3.34,3.313,3.299,3.2403,3.2123,3.2272,3.2123,3.1973,3.1833,3.17,3.1559,3.1559,3.1559,3.1559,3.1559,3.0977,3.1118,3.1268,3.0543,3.0258,3.0116,2.9242,2.778,2.6481,2.5472,2.4166,2.2707,2.2414,2.2414,2.2414,2.2414,2.2265,2.2265,2.2265,2.2265,2.2265,2.2265,2.2265,2.2265,2.2265,2.2265,2.2265,2.2265,2.2265,2.2265,2.2265,2.2265,4.4347,4.4347,4.4347,4.4347,4.4347,4.4347,4.4347,4.4347,4.4347,4.4347,4.4347,4.4347,4.4347,4.4347,4.4347,4.4087,4.3814,4.3439,4.32,4.2834,4.2708,4.2558,4.2351,4.1834,4.1513,4.1547,4.1099,4.0869,4.0835,4.0353,4.0089,4.0054,3.9721,3.9434,3.9515,3.9411,3.9186,3.9039,3.7934,3.7912,3.8732,3.6753,3.6049,3.731,3.5194,3.4118,3.4367,3.3558,3.3425,3.4191,3.3397,3.2795,3.2753,3.3046,3.3276,3.3321,3.3624,3.3743,3.3817,3.3817,3.3817,3.3817,3.3817,3.3817,3.3817,3.3817,3.3817,3.3817,3.3121,3.271,3.257,3.2131,3.17,3.1559,3.17,3.17,3.1559,3.1568,3.1559,3.1559,3.1559,3.1559,3.1559,3.04,3.0258,3.04,2.9091,2.8364,2.8364,2.778,2.6335,2.5325,2.4603,2.358,2.2414,2.2265,2.2265,2.2265,2.2265,2.2265,2.2265,2.2265,2.2265,2.2265,2.2265,2.2265,2.2265,2.2265,2.2265,2.2265,2.2265,2.2265,2.2265,2.2265,2.2265,4.4347,4.4347,4.4347,4.4347,4.4347,4.4347,4.4347,4.4347,4.4347,4.4347,4.4347,4.4347,4.4347,4.4347,4.4347,4.3962,4.3576,4.3314,4.2949,4.2454,4.2466,4.2339,4.2327,4.219,4.2098,4.204,4.1616,4.1386,4.134,4.0869,4.0628,4.0617,4.0456,4.0376,4.0266,3.914,3.8575,3.8528,3.7121,3.6644,3.7033,3.5682,3.5022,3.5231,3.3848,3.3301,3.3569,3.3476,3.3467,3.348,3.3326,3.3202,3.3422,3.3569,3.3624,3.3651,3.3734,3.3817,3.3817,3.3817,3.3817,3.3817,3.3817,3.3817,3.3817,3.3817,3.3817,3.3678,3.3121,3.271,3.2561,3.1991,3.1709,3.1559,3.1559,3.1559,3.1559,3.1559,3.1559,3.1559,3.1559,3.1559,3.1127,3.0116,2.925,2.9385,2.8076,2.6765,2.691,2.6189,2.4743,2.4455,2.3877,2.2992,2.2408,2.2414,2.2265,2.2265,2.2265,2.2265,2.2265,2.2265,2.2265,2.2265,2.2265,2.2265,2.2265,2.2265,2.2265,2.2265,2.2265,2.2265,2.2265,2.2265,2.2265,4.4347,4.4347,4.4347,4.4347,4.4347,4.4347,4.4347,4.4347,4.4347,4.4347,4.4347,4.4347,4.4347,4.4347,4.4223,4.3826,4.3565,4.32,4.2822,4.257,4.2339,4.2339,4.2327,4.2327,4.2327,4.2316,4.204,4.1914,4.1799,4.1386,4.1168,4.1076,4.0927,4.0835,4.0621,3.9299,3.8477,3.8276,3.6696,3.5706,3.6424,3.4658,3.4409,3.4354,3.3641,3.3055,3.345,3.3697,3.3688,3.3514,3.3477,3.3587,3.378,3.3817,3.3817,3.3817,3.3817,3.3817,3.3817,3.3817,3.3817,3.3817,3.3817,3.3817,3.3817,3.3817,3.3817,3.3548,3.299,3.2701,3.2412,3.1991,3.17,3.1559,3.1559,3.1559,3.1559,3.1559,3.1559,3.1559,3.1559,3.1268,3.0693,2.9234,2.8516,2.7787,2.6182,2.5604,2.5611,2.4455,2.3729,2.3438,2.329,2.2707,2.2414,2.2265,2.2265,2.2265,2.2265,2.2265,2.2265,2.2265,2.2265,2.2265,2.2265,2.2265,2.2265,2.2265,2.2265,2.2265,2.2265,2.2265,2.2265,2.2265,2.2265,4.4347,4.4347,4.4347,4.4347,4.4347,4.4347,4.4347,4.4347,4.4347,4.4347,4.4347,4.4347,4.4347,4.4235,4.3962,4.3814,4.3678,4.3075,4.2822,4.257,4.2454,4.2327,4.2327,4.2327,4.2327,4.2327,4.2327,4.2293,4.2155,4.1811,4.1673,4.1581,4.1237,4.1053,4.0716,3.9427,3.8608,3.8082,3.5831,3.5077,3.557,3.4175,3.3801,3.4403,3.3928,3.3422,3.3679,3.3817,3.3789,3.3807,3.3817,3.3798,3.3817,3.3817,3.3817,3.3817,3.3817,3.3817,3.3817,3.3817,3.3817,3.3817,3.3817,3.3817,3.3817,3.3817,3.3678,3.3409,3.2999,3.2561,3.2123,3.1692,3.1559,3.1559,3.1559,3.1559,3.1559,3.1559,3.1559,3.1559,3.1559,3.0543,2.9377,2.778,2.6627,2.6488,2.4884,2.4153,2.4012,2.3432,2.2999,2.2707,2.2558,2.2414,2.2265,2.2265,2.2265,2.2265,2.2265,2.2265,2.2265,2.2265,2.2265,2.2265,2.2265,2.2265,2.2265,2.2265,2.2265,2.2265,2.2265,2.2265,2.2265,2.2265,2.2265,4.4347,4.4347,4.4347,4.4347,4.4347,4.4347,4.4347,4.4347,4.4347,4.4347,4.4347,4.4347,4.4347,4.4223,4.395,4.3689,4.3314,4.296,4.2708,4.2466,4.2327,4.2327,4.2327,4.2327,4.2327,4.2327,4.2327,4.2327,4.227,4.2213,4.2167,4.2098,4.1971,4.1994,4.1513,3.9215,3.7968,3.7643,3.5228,3.4036,3.4369,3.3997,3.3651,3.4175,3.3789,3.3707,3.378,3.3817,3.3817,3.3817,3.3817,3.3817,3.3817,3.3817,3.3817,3.3817,3.3817,3.3817,3.3817,3.3817,3.3817,3.3817,3.3817,3.3817,3.3817,3.3817,3.3678,3.3269,3.299,3.2412,3.1841,3.1709,3.1568,3.1559,3.1559,3.1559,3.1559,3.1559,3.1559,3.1418,3.0551,2.9536,2.9099,2.6634,2.5472,2.5038,2.4018,2.2701,2.2558,2.2551,2.2408,2.2265,2.2265,2.2265,2.2265,2.2265,2.2265,2.2265,2.2265,2.2265,2.2265,2.2265,2.2265,2.2265,2.2265,2.2265,2.2265,2.2265,2.2265,2.2265,2.2265,2.2265,2.2265,2.2265,2.2265,4.4347,4.4347,4.4347,4.4347,4.4347,4.4347,4.4347,4.4347,4.4347,4.4347,4.4347,4.4347,4.4211,4.4075,4.3689,4.3439,4.3075,4.2708,4.2454,4.2339,4.2327,4.2327,4.2327,4.2327,4.2327,4.2327,4.2327,4.2327,4.2327,4.2327,4.2304,4.2327,4.2327,4.227,4.1934,3.9271,3.8103,3.7555,3.5084,3.3615,3.378,3.3817,3.3817,3.3817,3.3817,3.3817,3.3817,3.3817,3.3817,3.3817,3.3817,3.3817,3.3817,3.3817,3.3817,3.3817,3.3817,3.3817,3.3817,3.3817,3.3817,3.3817,3.3817,3.3817,3.3817,3.3678,3.3409,3.2981,3.2693,3.2123,3.17,3.1559,3.1559,3.1559,3.1559,3.1559,3.1559,3.1559,3.1559,3.1268,3.0258,2.9099,2.765,2.5911,2.4455,2.387,2.3432,2.2408,2.2414,2.2408,2.2414,2.2265,2.2265,2.2265,2.2265,2.2265,2.2265,2.2265,2.2265,2.2265,2.2265,2.2265,2.2265,2.2265,2.2265,2.2265,2.2265,2.2265,2.2265,2.2265,2.2265,2.2265,2.2265,2.2265,2.2265,4.4347,4.4347,4.4347,4.4347,4.4347,4.4347,4.4347,4.4347,4.4347,4.4347,4.4347,4.4347,4.4087,4.3814,4.3439,4.3063,4.2696,4.2454,4.2327,4.2327,4.2327,4.2327,4.2327,4.2327,4.2327,4.2327,4.2327,4.2327,4.2327,4.2327,4.2327,4.2327,4.2327,4.2061,4.1399,3.9529,3.7903,3.7256,3.511,3.3762,3.3807,3.3817,3.3817,3.3817,3.3817,3.3817,3.3817,3.3817,3.3817,3.3817,3.3817,3.3817,3.3817,3.3817,3.3817,3.3817,3.3817,3.3817,3.3817,3.3817,3.3817,3.3817,3.3817,3.3817,3.3817,3.3539,3.313,3.2701,3.2412,3.1973,3.1559,3.1559,3.1559,3.1559,3.1559,3.1559,3.1559,3.1559,3.1559,3.1418,3.0258,2.8955,2.7498,2.605,2.4308,2.2992,2.2558,2.2265,2.2265,2.2265,2.2265,2.2265,2.2265,2.2265,2.2265,2.2265,2.2265,2.2265,2.2265,2.2265,2.2265,2.2265,2.2265,2.2265,2.2265,2.2265,2.2265,2.2265,2.2265,2.2265,2.2265,2.2265,2.2265,2.2265,2.2265,4.4347,4.4347,4.4347,4.4347,4.4347,4.4347,4.4347,4.4347,4.4347,4.4347,4.4347,4.4347,4.4075,4.3814,4.3439,4.2949,4.2454,4.2327,4.2327,4.2327,4.2327,4.2327,4.2327,4.2327,4.2327,4.2327,4.22,4.2073,4.2339,4.2327,4.22,4.22,4.22,4.1795,4.0333,3.8872,3.7411,3.6479,3.4756,3.3817,3.3817,3.3817,3.3817,3.3817,3.3817,3.3817,3.3817,3.3817,3.3817,3.3817,3.3817,3.3817,3.3817,3.3817,3.3817,3.3817,3.3817,3.3817,3.3817,3.3817,3.3817,3.3817,3.3817,3.3817,3.3678,3.34,3.299,3.2561,3.2131,3.17,3.1559,3.1559,3.1559,3.1559,3.1559,3.1559,3.1559,3.1559,3.1559,3.1418,3.0258,2.8812,2.7498,2.605,2.4455,2.329,2.2701,2.2414,2.2265,2.2265,2.2265,2.2265,2.2265,2.2265,2.2265,2.2265,2.2265,2.2265,2.2265,2.2265,2.2265,2.2265,2.2265,2.2265,2.2265,2.2265,2.2265,2.2265,2.2265,2.2265,2.2265,2.2265,2.2265,2.2265,2.2265,4.4347,4.4347,4.4347,4.4347,4.4347,4.4347,4.4347,4.4347,4.4347,4.4347,4.4347,4.4223,4.3962,4.3576,4.3439,4.2949,4.2454,4.2327,4.2327,4.2327,4.2327,4.2327,4.2327,4.2327,4.2327,4.2073,4.1667,4.1667,4.2212,4.2327,4.1806,4.1271,4.1271,4.0473,3.9135,3.7678,3.6749,3.5685,3.4618,3.3817,3.3817,3.3817,3.3817,3.3817,3.3817,3.3817,3.3817,3.3817,3.3817,3.3817,3.3817,3.3817,3.3817,3.3817,3.3817,3.3817,3.3817,3.3817,3.3817,3.3817,3.3817,3.3817,3.3817,3.3817,3.3678,3.326,3.285,3.2281,3.1991,3.1559,3.1559,3.1559,3.1559,3.1559,3.1559,3.1559,3.1559,3.1559,3.1559,3.1418,3.0116,2.8804,2.7498,2.605,2.4455,2.358,2.285,2.2558,2.2265,2.2265,2.2265,2.2265,2.2265,2.2265,2.2265,2.2265,2.2265,2.2265,2.2265,2.2265,2.2265,2.2265,2.2265,2.2265,2.2265,2.2265,2.2265,2.2265,2.2265,2.2265,2.2265,2.2265,2.2265,2.2265,2.2265,4.4347,4.4347,4.4347,4.4347,4.4347,4.4347,4.4347,4.4347,4.4347,4.4347,4.4347,4.4223,4.3838,4.3451,4.3075,4.2822,4.2327,4.2327,4.2327,4.2327,4.2327,4.2327,4.2327,4.2327,4.2327,4.2073,4.1002,4.0732,4.1399,4.1259,4.0732,4.0073,3.9801,3.9135,3.7678,3.6604,3.5947,3.5148,3.448,3.3817,3.3817,3.3817,3.3817,3.3817,3.3817,3.3817,3.3817,3.3817,3.3817,3.3817,3.3817,3.3817,3.3817,3.3817,3.3817,3.3817,3.3817,3.3817,3.3817,3.3817,3.3817,3.3817,3.3817,3.3817,3.3539,3.2972,3.2281,3.1709,3.1559,3.1559,3.1559,3.1559,3.1559,3.1559,3.1559,3.1559,3.1559,3.1559,3.1559,3.0985,2.9973,2.8955,2.7787,2.6627,2.5325,2.387,2.2992,2.2408,2.2265,2.2265,2.2265,2.2265,2.2265,2.2265,2.2265,2.2265,2.2265,2.2265,2.2265,2.2265,2.2265,2.2265,2.2265,2.2265,2.2265,2.2265,2.2265,2.2265,2.2265,2.2265,2.2265,2.2265,2.2265,2.2265,2.2265,4.4347,4.4347,4.4347,4.4347,4.4347,4.4347,4.4347,4.4347,4.4347,4.4347,4.4223,4.395,4.3565,4.2925,4.2431,4.2316,4.22,4.2073,4.22,4.22,4.2327,4.2327,4.2327,4.2327,4.2327,4.1945,4.0732,4.0333,4.0203,3.9398,3.8729,3.8465,3.82,3.7668,3.6219,3.5811,3.5285,3.4352,3.3946,3.3817,3.3817,3.3817,3.3817,3.3817,3.3817,3.3817,3.3817,3.3817,3.3817,3.3817,3.3817,3.3817,3.3817,3.3817,3.3817,3.3817,3.3817,3.3817,3.3817,3.3817,3.3817,3.3817,3.3807,3.3678,3.3251,3.2684,3.2114,3.17,3.1559,3.1559,3.1559,3.1559,3.1559,3.1559,3.1559,3.1559,3.1559,3.0977,3.0985,3.0543,2.9528,2.8955,2.8228,2.7208,2.6189,2.4589,2.3283,2.2701,2.2265,2.2265,2.2265,2.2265,2.2265,2.2265,2.2265,2.2265,2.2265,2.2265,2.2265,2.2265,2.2265,2.2265,2.2265,2.2265,2.2265,2.2265,2.2265,2.2265,2.2265,2.2265,2.2265,2.2265,2.2265,2.2265,2.2265,4.4347,4.4347,4.4347,4.4347,4.4347,4.4347,4.4347,4.4347,4.4347,4.4223,4.3814,4.3028,4.1981,4.0828,4.0062,4.0344,4.0873,4.1142,4.1667,4.2073,4.22,4.22,4.2327,4.2327,4.2327,4.1539,4.0203,3.9004,3.874,3.8333,3.7801,3.6874,3.6749,3.6083,3.5021,3.4756,3.4342,3.3946,3.3817,3.3817,3.3817,3.3817,3.3817,3.3817,3.3817,3.3817,3.3817,3.3817,3.3817,3.3817,3.3817,3.3817,3.3817,3.3817,3.3817,3.3817,3.3817,3.3817,3.3817,3.3817,3.3678,3.3539,3.3539,3.3251,3.2684,3.2395,3.1973,3.1568,3.1559,3.1559,3.1559,3.1559,3.1559,3.1559,3.1559,3.1559,3.1277,3.04,2.9965,2.9528,2.8947,2.8084,2.736,2.6196,2.5031,2.3722,2.285,2.2558,2.2265,2.2265,2.2265,2.2265,2.2265,2.2265,2.2265,2.2265,2.2265,2.2265,2.2265,2.2265,2.2265,2.2265,2.2265,2.2265,2.2265,2.2265,2.2265,2.2265,2.2265,2.2265,2.2265,2.2265,2.2265,2.2265,2.2265,4.4347,4.4347,4.4347,4.4347,4.4223,4.3962,4.3838,4.3701,4.3177,4.2902,4.25,4.146,4.004,3.8729,3.8465,3.8861,3.967,3.967,4.0333,4.1002,4.1271,4.1131,4.0873,4.1131,4.1002,4.1271,3.8608,3.7678,3.74,3.6998,3.6209,3.5422,3.5422,3.4883,3.4223,3.3946,3.3807,3.3817,3.3817,3.3817,3.3817,3.3817,3.3817,3.3817,3.3817,3.3817,3.3817,3.3817,3.3817,3.3817,3.3817,3.3817,3.3817,3.3817,3.3817,3.3817,3.3817,3.3817,3.3817,3.3817,3.3678,3.34,3.313,3.2981,3.2403,3.2114,3.1982,3.1568,3.1559,3.1559,3.1559,3.1559,3.1559,3.1559,3.1559,3.1559,3.1268,3.0107,2.9385,2.8955,2.8084,2.6196,2.5472,2.4603,2.358,2.2707,2.2265,2.2265,2.2265,2.2265,2.2265,2.2265,2.2265,2.2265,2.2265,2.2265,2.2265,2.2265,2.2265,2.2265,2.2265,2.2265,2.2265,2.2265,2.2265,2.2265,2.2265,2.2265,2.2265,2.2265,2.2265,2.2265,2.2265,2.2265,2.2265,4.4347,4.4347,4.4347,4.4223,4.4087,4.2937,4.242,4.2281,4.0817,4.0159,3.9888,3.9125,3.8587,3.7934,3.7668,3.7801,3.821,3.819,3.8597,3.8597,3.8465,3.8893,3.9035,3.9035,3.8719,3.8444,3.7132,3.6479,3.5811,3.5275,3.4471,3.3937,3.4352,3.4084,3.3817,3.3817,3.3817,3.3817,3.3817,3.3817,3.3817,3.3817,3.3817,3.3817,3.3817,3.3817,3.3817,3.3817,3.3817,3.3817,3.3817,3.3817,3.3817,3.3817,3.3817,3.3817,3.3678,3.3678,3.3817,3.3817,3.3817,3.3539,3.3121,3.2701,3.2412,3.185,3.1709,3.1568,3.1559,3.1559,3.1559,3.1559,3.1559,3.1559,3.1559,3.1277,3.0693,2.9528,2.8804,2.8524,2.707,2.5038,2.416,2.358,2.329,2.2414,2.2265,2.2265,2.2265,2.2265,2.2265,2.2265,2.2265,2.2265,2.2265,2.2265,2.2265,2.2265,2.2265,2.2265,2.2265,2.2265,2.2265,2.2265,2.2265,2.2265,2.2265,2.2265,2.2265,2.2265,2.2265,2.2265,2.2265,2.2265,2.2265,4.4347,4.4347,4.4347,4.3838,4.3063,4.2546,4.1761,4.098,4.004,3.884,3.7637,3.7132,3.6344,3.5675,3.5549,3.5947,3.6614,3.6749,3.7277,3.7934,3.8078,3.8437,3.8601,3.8119,3.7872,3.7125,3.6255,3.5947,3.5811,3.448,3.3946,3.3817,3.3817,3.3817,3.3817,3.3817,3.3817,3.3817,3.3817,3.3817,3.3817,3.3817,3.3817,3.3817,3.3817,3.3817,3.3817,3.3817,3.3817,3.3817,3.3817,3.3817,3.3817,3.3817,3.3817,3.3817,3.3678,3.3678,3.3817,3.3817,3.3678,3.3121,3.2693,3.2263,3.2131,3.1709,3.1568,3.1559,3.1559,3.1559,3.1559,3.1559,3.1559,3.1559,3.1418,3.0985,3.0116,2.8804,2.7643,2.6925,2.5332,2.329,2.2992,2.2701,2.2558,2.2265,2.2265,2.2265,2.2265,2.2265,2.2265,2.2265,2.2265,2.2265,2.2265,2.2265,2.2265,2.2265,2.2265,2.2265,2.2265,2.2265,2.2265,2.2265,2.2265,2.2265,2.2265,2.2265,2.2265,2.2265,2.2265,2.2265,2.2265,2.2115,2.2115,4.4347,4.4223,4.3838,4.3189,4.2281,4.19,4.0851,3.955,3.8608,3.7544,3.5802,3.5412,3.4746,3.3946,3.3946,3.4342,3.5148,3.5412,3.5947,3.6344,3.6634,3.7254,3.7429,3.7109,3.614,3.5877,3.5559,3.5148,3.5011,3.4214,3.3946,3.3817,3.3817,3.3817,3.3817,3.3817,3.3817,3.3817,3.3817,3.3817,3.3817,3.3817,3.3817,3.3817,3.3817,3.3817,3.3817,3.3817,3.3817,3.3817,3.3817,3.3817,3.3817,3.3817,3.3817,3.3678,3.3678,3.3539,3.3678,3.3678,3.34,3.313,3.2403,3.2123,3.1841,3.1709,3.1559,3.1559,3.1559,3.1559,3.1559,3.1559,3.1559,3.1559,3.0685,3.0107,2.8947,2.7787,2.6342,2.5185,2.358,2.2564,2.2558,2.2408,2.2408,2.2265,2.2265,2.2265,2.2265,2.2265,2.2265,2.2265,2.2265,2.2265,2.2265,2.2265,2.2265,2.2265,2.2265,2.2265,2.2265,2.2265,2.2265,2.2265,2.2265,2.2265,2.2265,2.2265,2.2265,2.2265,2.2265,2.2265,2.2265,2.2115,2.1816,4.4347,4.4087,4.2937,4.2293,4.2027,4.0851,3.9419,3.8109,3.6664,3.546,3.4637,3.4223,3.4075,3.3817,3.3817,3.3946,3.4084,3.4084,3.4214,3.448,3.4746,3.4361,3.437,3.448,3.4718,3.4075,3.4084,3.4214,3.4084,3.3946,3.3817,3.3817,3.3817,3.3817,3.3817,3.3817,3.3817,3.3817,3.3817,3.3817,3.3817,3.3817,3.3817,3.3817,3.3817,3.3817,3.3817,3.3817,3.3817,3.3817,3.3817,3.3817,3.3817,3.3817,3.3817,3.3817,3.3817,3.3678,3.3678,3.3409,3.3269,3.299,3.2403,3.2114,3.1973,3.1841,3.1559,3.1559,3.1559,3.1559,3.1559,3.1559,3.1559,3.0977,3.0107,2.8947,2.7787,2.6772,2.5325,2.4166,2.3141,2.2265,2.2265,2.2265,2.2265,2.2265,2.2265,2.2265,2.2265,2.2265,2.2265,2.2265,2.2265,2.2265,2.2265,2.2265,2.2265,2.2265,2.2265,2.2265,2.2265,2.2265,2.2265,2.2265,2.2265,2.2265,2.2265,2.2265,2.2265,2.2265,2.2265,2.2265,2.2115,2.1966,2.1666,4.4347,4.4223,4.2811,4.1761,4.0721,3.9419,3.7986,3.6664,3.5879,3.5068,3.4518,3.4232,3.4094,3.3955,3.3817,3.3817,3.3817,3.3817,3.3817,3.3817,3.3817,3.3817,3.3817,3.3817,3.3817,3.3817,3.3817,3.3817,3.3817,3.3817,3.3817,3.3817,3.3817,3.3817,3.3817,3.3817,3.3817,3.3817,3.3817,3.3817,3.3817,3.3817,3.3817,3.3817,3.3817,3.3817,3.3817,3.3817,3.3817,3.3817,3.3817,3.3817,3.3817,3.3817,3.3817,3.3678,3.3678,3.326,3.3121,3.2832,3.2684,3.2553,3.2403,3.1973,3.1841,3.1709,3.1568,3.1559,3.1559,3.1559,3.1559,3.1568,3.1277,3.0107,2.9091,2.7643,2.6481,2.5618,2.4462,2.3432,2.2408,2.2265,2.2265,2.2265,2.2265,2.2265,2.2265,2.2265,2.2265,2.2265,2.2265,2.2265,2.2265,2.2265,2.2265,2.2265,2.2265,2.2265,2.2265,2.2265,2.2265,2.2265,2.2265,2.2265,2.2265,2.2265,2.2265,2.2265,2.2265,2.2265,2.2265,2.2115,2.1966,2.1666,2.1216,4.4347,4.4087,4.2281,4.1108,4.0062,3.8629,3.7327,3.6152,3.5616,3.5205,3.4784,3.4646,3.437,3.4094,3.3955,3.3817,3.3817,3.3817,3.3817,3.3817,3.3817,3.3817,3.3817,3.3817,3.3817,3.3817,3.3817,3.3817,3.3817,3.3817,3.3817,3.3817,3.3817,3.3817,3.3817,3.3817,3.3817,3.3817,3.3817,3.3817,3.3817,3.3817,3.3817,3.3817,3.3817,3.3817,3.3817,3.3817,3.3817,3.3817,3.3817,3.3817,3.3817,3.3817,3.3817,3.3678,3.34,3.313,3.2841,3.2395,3.2395,3.2403,3.2114,3.1841,3.1709,3.1568,3.1559,3.1559,3.1559,3.1559,3.1418,3.1418,3.0258,2.9099,2.7643,2.6342,2.5472,2.4455,2.3729,2.2558,2.2265,2.2265,2.2265,2.2265,2.2265,2.2265,2.2265,2.2265,2.2265,2.2265,2.2265,2.2265,2.2265,2.2265,2.2265,2.2265,2.2265,2.2265,2.2265,2.2265,2.2265,2.2265,2.2265,2.2265,2.2265,2.2265,2.2265,2.2265,2.2265,2.2259,2.2109,2.196,2.1666,2.121,2.0609,4.4347,4.395,4.1365,4.0203,3.9942,3.8496,3.7193,3.6016,3.5616,3.5479,3.5479,3.5068,3.4646,3.437,3.438,3.4094,3.3817,3.3817,3.3817,3.3817,3.3817,3.3817,3.3817,3.3817,3.3817,3.3817,3.3817,3.3817,3.3817,3.3817,3.3817,3.3817,3.3817,3.3817,3.3817,3.3817,3.3817,3.3817,3.3817,3.3817,3.3817,3.3817,3.3817,3.3817,3.3817,3.3817,3.3817,3.3817,3.3817,3.3817,3.3817,3.3817,3.3817,3.3817,3.3817,3.3678,3.34,3.299,3.2701,3.2254,3.2105,3.2114,3.1841,3.1709,3.1568,3.1559,3.1559,3.1418,3.1268,3.1268,3.1268,3.0116,2.8955,2.765,2.6196,2.5178,2.4455,2.358,2.285,2.2265,2.2265,2.2265,2.2265,2.2265,2.2265,2.2265,2.2265,2.2265,2.2265,2.2265,2.2265,2.2265,2.2265,2.2265,2.2265,2.2265,2.2265,2.2265,2.2265,2.2265,2.2265,2.2265,2.2265,2.2265,2.2265,2.2265,2.2115,2.2115,2.2109,2.196,2.1504,2.1043,2.0586,2.0447,1.9838,4.4347,4.3962,4.1377,4.0203,3.9812,3.7585,3.6413,3.6025,3.5889,3.5918,3.584,3.5215,3.4784,3.438,3.4094,3.3946,3.3817,3.3817,3.3817,3.3817,3.3817,3.3817,3.3817,3.3817,3.3817,3.3817,3.3817,3.3817,3.3817,3.3817,3.3817,3.3817,3.3817,3.3817,3.3817,3.3817,3.3817,3.3817,3.3817,3.3817,3.3817,3.3817,3.3817,3.3817,3.3817,3.3817,3.3817,3.3817,3.3817,3.3817,3.3817,3.3817,3.3817,3.3817,3.3826,3.3409,3.313,3.271,3.2263,3.1973,3.1692,3.1833,3.17,3.1559,3.1559,3.1559,3.1559,3.1418,3.0693,3.04,2.9822,2.8804,2.7505,2.6203,2.5038,2.416,2.358,2.2999,2.2265,2.2265,2.2265,2.2265,2.2265,2.2265,2.2265,2.2265,2.2265,2.2265,2.2265,2.2265,2.2265,2.2265,2.2265,2.2265,2.2265,2.2265,2.2265,2.2265,2.2265,2.2265,2.2265,2.2265,2.2265,2.2265,2.2265,2.2115,2.1816,2.181,2.181,2.1048,2.0441,1.9822,1.9364,1.9062,1.8304,4.4347,4.3962,4.1365,3.954,3.8374,3.6674,3.6025,3.6025,3.6025,3.6064,3.5957,3.5489,3.5059,3.4646,3.4361,3.4094,3.3817,3.3817,3.3817,3.3817,3.3817,3.3817,3.3817,3.3817,3.3817,3.3817,3.3817,3.3817,3.3817,3.3817,3.3817,3.3817,3.3817,3.3817,3.3817,3.3817,3.3817,3.3817,3.3817,3.3817,3.3817,3.3817,3.3817,3.3817,3.3817,3.3817,3.3817,3.3817,3.3817,3.3817,3.3817,3.3817,3.3817,3.3817,3.3548,3.313,3.285,3.2421,3.1982,3.17,3.1559,3.1559,3.1559,3.1559,3.1559,3.1559,3.1559,3.1418,3.0258,2.9099,2.8372,2.7353,2.6057,2.4757,2.4018,2.3283,2.285,2.2414,2.2265,2.2265,2.2265,2.2265,2.2265,2.2265,2.2265,2.2265,2.2265,2.2265,2.2265,2.2265,2.2265,2.2265,2.2265,2.2265,2.2265,2.2265,2.2265,2.2265,2.2265,2.2265,2.2265,2.2265,2.2265,2.2115,2.1966,2.1816,2.151,2.136,2.121,2.0291,1.9062,1.7991,1.7374,1.6913,1.585,4.4275,4.4015,4.1343,3.8629,3.6287,3.6025,3.6025,3.6025,3.6025,3.6025,3.6025,3.5889,3.547,3.4912,3.4637,3.4223,3.3955,3.3817,3.3817,3.3817,3.3817,3.3817,3.3817,3.3817,3.3817,3.3817,3.3817,3.3817,3.3817,3.3817,3.3817,3.3817,3.3817,3.3817,3.3817,3.3817,3.3817,3.3817,3.3817,3.3817,3.3817,3.3817,3.3817,3.3817,3.3817,3.3817,3.3817,3.3817,3.3817,3.3817,3.3817,3.3817,3.3817,3.3678,3.326,3.2981,3.2701,3.2281,3.185,3.1559,3.1559,3.1559,3.1559,3.1559,3.1559,3.1559,3.1559,3.0685,2.9385,2.8084,2.7208,2.5758,2.4308,2.3729,2.329,2.285,2.2558,2.2265,2.2265,2.2265,2.2265,2.2265,2.2265,2.2265,2.2265,2.2265,2.2265,2.2265,2.2265,2.2265,2.2265,2.2265,2.2265,2.2265,2.2265,2.2265,2.2265,2.2265,2.2265,2.2265,2.2265,2.2265,2.2115,2.1966,2.1816,2.151,2.121,2.0753,1.9984,1.8916,1.7535,1.6002,1.5234,1.4774,1.3857,4.3721,4.3489,4.1197,3.8639,3.6152,3.6025,3.6025,3.6025,3.6025,3.6025,3.6025,3.5743,3.5333,3.4912,3.4646,3.4232,3.3955,3.3817,3.3817,3.3817,3.3817,3.3817,3.3817,3.3817,3.3817,3.3817,3.3817,3.3817,3.3817,3.3817,3.3817,3.3817,3.3817,3.3817,3.3817,3.3817,3.3817,3.3817,3.3817,3.3817,3.3817,3.3817,3.3817,3.3817,3.3817,3.3817,3.3817,3.3817,3.3817,3.3817,3.3817,3.3817,3.3817,3.3539,3.326,3.2701,3.2412,3.2123,3.1709,3.1559,3.1559,3.1559,3.1559,3.1559,3.1559,3.1559,3.0977,2.9814,2.8508,2.7353,2.5904,2.4308,2.2992,2.285,2.2551,2.2408,2.2265,2.2265,2.2265,2.2265,2.2265,2.2265,2.2265,2.2265,2.2265,2.2265,2.2265,2.2265,2.2265,2.2265,2.2265,2.2265,2.2265,2.2265,2.2265,2.2265,2.2265,2.2265,2.2265,2.2265,2.2265,2.2115,2.181,2.166,2.151,2.0904,2.014,1.9223,1.8456,1.7231,1.6007,1.4322,1.3095,1.2478,1.1556,4.2937,4.2303,4.0243,3.7986,3.6287,3.6025,3.6025,3.6025,3.6025,3.6025,3.6025,3.5753,3.547,3.4912,3.4646,3.4232,3.3946,3.3817,3.3817,3.3817,3.3817,3.3817,3.3817,3.3817,3.3817,3.3817,3.3817,3.3817,3.3817,3.3817,3.3817,3.3817,3.3817,3.3817,3.3817,3.3817,3.3817,3.3817,3.3817,3.3817,3.3817,3.3817,3.3817,3.3817,3.3817,3.3817,3.3817,3.3817,3.3817,3.3817,3.3817,3.3687,3.3548,3.3409,3.2981,3.2544,3.2254,3.1973,3.17,3.1559,3.1559,3.1559,3.1559,3.1559,3.1559,3.1559,3.0843,2.9671,2.8068,2.6765,2.5178,2.358,2.285,2.2408,2.2408,2.2414,2.2265,2.2265,2.2265,2.2265,2.2265,2.2265,2.2265,2.2265,2.2265,2.2265,2.2265,2.2265,2.2265,2.2265,2.2265,2.2265,2.2265,2.2265,2.2265,2.2265,2.2265,2.2265,2.2265,2.2115,2.1966,2.181,2.166,2.1354,2.0898,2.014,1.9223,1.8304,1.6469,1.494,1.3711,1.2484,1.1563,1.0791,1.0483,4.2072,4.0921,3.8859,3.7246,3.6083,3.6006,3.6025,3.6025,3.6025,3.6025,3.6025,3.6025,3.5606,3.5196,3.4912,3.4361,3.4084,3.3817,3.3817,3.3817,3.3817,3.3817,3.3817,3.3817,3.3817,3.3817,3.3817,3.3817,3.3817,3.3817,3.3817,3.3817,3.3817,3.3817,3.3817,3.3817,3.3817,3.3817,3.3817,3.3817,3.3817,3.3817,3.3817,3.3817,3.3817,3.3817,3.3817,3.3817,3.3817,3.3817,3.3817,3.3687,3.3409,3.3269,3.2981,3.2553,3.2114,3.1973,3.17,3.17,3.1559,3.1559,3.1559,3.1559,3.1559,3.1277,3.0551,2.9385,2.778,2.6182,2.4596,2.3432,2.2707,2.2265,2.2265,2.2265,2.2265,2.2265,2.2265,2.2265,2.2265,2.2265,2.2265,2.2265,2.2265,2.2265,2.2265,2.2265,2.2265,2.2265,2.2265,2.2265,2.2265,2.2265,2.2265,2.2265,2.2265,2.2265,2.2109,2.1966,2.1666,2.136,2.1054,2.0748,2.0291,1.9531,1.8461,1.7241,1.525,1.3252,1.2179,1.1408,1.0946,1.0328,1.0172,4.1038,3.9143,3.8013,3.68,3.5701,3.5859,3.6025,3.6025,3.6025,3.6025,3.6025,3.6025,3.5753,3.5343,3.5059,3.4637,3.4232,3.3955,3.3817,3.3817,3.3817,3.3817,3.3817,3.3817,3.3817,3.3817,3.3817,3.3817,3.3817,3.3817,3.3817,3.3817,3.3817,3.3817,3.3817,3.3817,3.3817,3.3817,3.3817,3.3817,3.3817,3.3817,3.3817,3.3817,3.3817,3.3817,3.3817,3.3817,3.3817,3.3817,3.3817,3.3678,3.34,3.3121,3.2841,3.2553,3.2123,3.1833,3.17,3.17,3.1559,3.1559,3.1559,3.1559,3.1559,3.1559,3.0693,2.9385,2.7643,2.5604,2.4012,2.2992,2.2259,2.2265,2.2265,2.2265,2.2265,2.2265,2.2265,2.2265,2.2265,2.2265,2.2265,2.2265,2.2265,2.2265,2.2265,2.2265,2.2265,2.2265,2.2265,2.2265,2.2265,2.2265,2.2265,2.2265,2.2259,2.2109,2.196,2.166,2.136,2.0904,2.0597,2.0447,1.9838,1.9077,1.7859,1.6173,1.4483,1.2639,1.1256,1.033,1.0019,1.0019,1.0019]},{"header":{"parameterUnit":"m.s-1","parameterCategory":1,"la1":31.0,"la2":29.5877,"lo1":-88.7671,"lo2":-86.6584,"dy":0.0162,"dx":0.0185,"nx":115,"ny":88,"refTime":"2025-05-16T12:00:00:Z","depth":0,"parameterNumber":3,"parameterNumberName":"V-component_of_WINDS"},"data":[0.0,0.0,0.0,0.0,0.0,0.0,0.0,0.0,0.0,0.0,0.0,0.0,0.0,0.0,0.0,0.0,0.0,0.0,0.0,0.0,0.0,0.0,0.0,0.0,0.0,0.0,0.0,0.0,0.0,0.0,0.0,0.0,0.0,0.0,0.0,0.0,0.0,0.0,0.0,0.0,0.0,0.0,0.0,0.0,0.0,0.0,0.0,0.0,0.0,0.0,0.0,0.0,0.0,0.0,0.0,0.0,0.0,0.0,0.0,0.0,0.0,0.0,0.0,0.0,0.0,0.0,0.0,0.0,0.0,0.0,0.0,0.0,0.0,0.0,0.0,0.0,0.0,0.0,0.0,0.0,0.0,0.0,0.0,0.0,0.0,0.0,0.0,0.0,0.0,0.0,0.0,0.0,0.0,0.0,0.0,0.0,0.0,0.0,0.0,0.0,0.0,0.0,0.0,0.0,0.0,0.0,0.0,0.0,0.0,0.0,0.0,0.0,0.0,0.0,0.0,0.0,0.0,0.0,0.0,0.0,0.0,0.0,0.0,0.0,0.0,0.0,0.0,0.0,0.0,0.0,0.0,0.0,0.0,0.0,0.0,0.0,0.0,0.0,0.0,0.0,0.0,0.0,0.0,0.0,0.0,0.0,0.0,0.0,0.0,0.0,0.0,0.0,0.0,0.0,0.0,0.0,0.0,0.0,0.0,0.0,0.0,0.0,0.0,0.0,0.0,0.0,0.0,0.0,0.0,0.0,0.0,0.0,0.0,0.0,0.0,0.0,0.0,0.0,0.0,0.0,0.0,0.0,0.0,0.0,0.0,0.0,0.0,0.0,0.0,0.0,0.0,0.0,0.0,0.0,0.0,0.0,0.0,0.0,0.0,0.0,0.0,0.0,0.0,0.0,0.0,0.0,0.0,0.0,0.0,0.0,0.0,0.0,0.0,0.0,0.0,0.0,0.0,0.0,0.0,0.0,0.0,0.0,0.0,0.0,0.0,0.0,0.0,0.0,0.0,0.0,0.0,0.0,0.0,0.0,0.0,0.0,0.0,0.0,0.0,0.0,0.0,0.0,0.0,0.0,0.0,0.0,0.0,0.0,0.0,0.0,0.0,0.0,0.0,0.0,0.0,0.0,0.0,0.0,0.0,0.0,0.0,0.0,0.0,0.0,0.0,0.0,0.0,0.0,0.0,0.0,0.0,0.0,0.0,0.0,0.0,0.0,0.0,0.0,0.0,0.0,0.0,0.0,0.0,0.0,0.0,0.0,0.0,0.0,0.0,0.0,0.0,0.0,0.0,0.0,0.0,0.0,0.0,0.0,0.0,0.0,0.0,0.0,0.0,0.0,0.0,0.0,0.0,0.0,0.0,0.0,0.0,0.0,0.0,0.0,0.0,0.0,0.0,0.0,0.0,0.0,0.0,0.0,0.0,0.0,0.0,0.0,0.0,0.0,0.0,0.0,0.0,0.0,0.0,0.0,0.0,0.0,0.0,0.0,0.0,0.0,0.0,0.0,0.0,0.0,0.0,0.0,0.0,0.0,0.0,0.0,0.0,0.0,0.0,0.0,0.0,0.0,0.0,0.0,0.0,0.0,0.0,0.0,0.0,0.0,0.0,0.0,0.0,0.0,0.0,0.0,0.0,0.0,0.0,0.0,0.0,0.0,0.0,0.0,0.0,0.0,0.0,0.0,0.0,0.0,0.0,0.0,0.0,0.0,0.0,0.0,0.0,0.0,0.0,0.0,0.0,0.0,0.0,0.0,0.0,0.0,0.0,0.0,0.0,0.0,0.0,0.0,0.0,0.0,0.0,0.0,0.0,0.0,0.0,0.0,0.0,0.0,0.0,0.0,0.0,0.0,0.0,0.0,0.0,0.0,0.0,0.0,0.0,0.0,0.0,0.0,0.0,0.0,0.0,0.0,0.0,0.0,0.0,0.0,0.0,0.0,0.0,0.0,0.0,0.0,0.0,0.0,0.0,0.0,0.0,0.0,0.0,0.0,0.0,0.0,0.0,0.0,0.0,0.0,0.0,0.0,0.0,0.0,0.0,0.0,0.0,0.0,0.0,0.0,0.0,0.0,0.0,0.0,0.0,0.0,0.0,0.0,0.0,0.0,0.0,0.0,0.0,0.0,0.0,0.0,0.0,0.0,0.0,0.0,0.0,0.0,0.0,0.0,0.0,0.0,0.0,0.0,0.0,0.0,0.0,0.0,0.0,0.0,0.0,0.0,0.0,0.0,0.0,0.0,0.0,0.0,0.0,0.0,0.0,0.0,0.0,0.0,0.0,0.0,0.0,0.0,0.0,0.0,0.0,0.0,0.0,0.0,0.0,0.0,0.0,0.0,0.0,0.0,0.0,0.0,0.0,0.0,0.0,0.0,0.0,0.0,0.0,0.0,0.0,0.0,0.0,0.0,0.0,0.0,0.0,0.0,0.0,0.0,0.0,0.0,0.0,0.0,0.0,0.0,0.0,0.0,0.0,0.0,0.0,0.0,0.0,0.0,0.0,0.0,0.0,0.0,0.0,0.0,0.0,0.0,0.0,0.0,0.0,0.0,0.0,0.0,0.0,0.0,0.0,0.0,0.0,0.0,0.0,0.0,0.0,0.0,0.0,0.0,0.0,0.0,0.0,0.0,0.0,0.0,0.0,0.0,0.0,0.0,0.0,0.0,0.0,0.0,0.0,0.0,0.0,0.0,0.0,0.0,0.0,0.0,0.0,0.0,0.0,0.0,0.0,0.0,0.0,0.0,0.0,0.0,0.0,0.0,0.0,0.0,0.0,0.0,0.0,0.0,0.0,0.0,0.0,0.0,0.0,0.0,0.0,0.0,0.0,0.0,0.0,0.0,0.0,0.0,0.0,0.0,0.0,0.0,0.0,0.0,0.0,0.0,0.0,0.0,0.0,0.0,0.0,0.0,0.0,0.0,0.0,0.0,0.0,0.0,0.0,0.0,0.0,0.0,0.0,0.0,0.0,0.0,0.0,0.0,0.0,0.0,0.0,0.0,0.0,0.0,0.0,0.0,0.0,0.0,0.0,0.0,0.0,0.0,0.0,0.0,0.0,0.0,0.0,0.0,0.0,0.0,0.0,0.0,0.0,0.0,0.0,0.0,0.0,0.0,0.0,0.0,0.0,0.0,0.0,0.0,0.0,0.0,0.0,0.0,0.0,0.0,0.0,0.0,0.0,0.0,0.0,0.0,0.0,0.0,0.0,0.0,0.0,0.0,0.0,0.0,0.0,0.0,0.0,0.0,0.0,0.0,0.0,0.0,0.0,0.0,0.0,0.0,0.0,0.0,0.0,0.0,0.0,0.0,0.0,0.0,0.0,0.0,0.0,0.0,0.0,0.0,0.0,0.0,0.0,0.0,0.0,0.0,0.0,0.0,0.0,0.0,0.0,0.0,0.0,0.0,0.0,0.0,0.0,0.0,0.0,0.0,0.0,0.0,0.0,0.0,0.0,0.0,0.0,0.0,0.0,0.0,0.0,0.0,0.0,0.0,0.0,0.0,0.0,0.0,0.0,0.0,0.0,0.0,0.0,0.0,0.0,0.0,0.0,0.0,0.0,0.0,0.0,0.0,0.0,0.0,0.0,0.0,0.0,0.0,0.0,0.0,0.0,0.0,0.0,0.0,0.0,0.0,0.0,0.0,0.0,0.0,0.0,0.0,0.0,0.0,0.0,0.0,0.0,0.0,0.0,0.0,0.0,0.0,0.0,0.0,0.0,0.0,0.0,0.0,0.0,0.0,0.0,0.0,0.0,0.0,0.0,0.0,0.0,0.0,0.0,0.0,0.0,0.0,0.0,0.0,0.0,0.0,0.0,0.0,0.0,0.0,0.0,0.0,0.0,0.0,0.0,0.0,0.0,0.0,0.0,0.0,0.0,0.0,0.0,0.0,0.0,0.0,0.0,0.0,0.0,0.0,0.0,0.0,0.0,0.0,0.0,0.0,0.0,0.0,0.0,0.0,0.0,0.0,0.0,0.0,0.0,0.0,0.0,0.0,0.0,0.0,0.0,0.0,0.0,0.0,0.0,0.0,0.0,0.0,0.0,0.0,0.0,0.0,0.0,0.0,0.0,0.0,0.0,0.0,0.0,0.0,0.0,0.0,0.0,0.0,0.0,0.0,0.0,0.0,0.0,0.0,0.0,0.0,0.0,0.0,0.0,0.0,0.0,0.0,0.0,0.0,0.0,0.0,0.0,0.0,0.0,0.0,0.0,0.0,0.0,0.0,0.0,0.0,0.0,0.0,0.0,0.0,0.0,0.0,-2.4989,0.0,0.0,0.0,0.0,0.0,0.0,0.0,0.0,0.0,0.0,0.0,0.0,0.0,0.0,0.0,0.0,0.0,0.0,0.0,0.0,0.0,0.0,0.0,0.0,0.0,0.0,0.0,0.0,0.0,0.0,0.0,0.0,0.0,0.0,0.0,0.0,0.0,0.0,0.0,0.0,0.0,0.0,0.0,0.0,0.0,0.0,0.0,0.0,0.0,0.0,0.0,0.0,0.0,0.0,0.0,0.0,0.0,0.0,0.0,0.0,0.0,0.0,0.0,0.0,0.0,0.0,0.0,0.0,0.0,0.0,0.0,0.0,0.0,0.0,0.0,0.0,0.0,0.0,0.0,0.0,0.0,0.0,0.0,0.0,0.0,0.0,0.0,0.0,0.0,0.0,0.0,0.0,0.0,0.0,0.0,0.0,0.0,0.0,0.0,0.0,0.0,0.0,0.0,0.0,0.0,0.0,0.0,0.0,0.0,0.0,-2.5005,-2.5005,-2.5005,-2.5005,-2.5005,0.0,0.0,0.0,0.0,0.0,0.0,0.0,0.0,0.0,0.0,0.0,0.0,0.0,0.0,0.0,0.0,0.0,0.0,0.0,0.0,0.0,0.0,0.0,0.0,0.0,0.0,0.0,0.0,0.0,0.0,0.0,0.0,0.0,0.0,0.0,0.0,0.0,0.0,0.0,0.0,0.0,0.0,0.0,0.0,0.0,0.0,0.0,0.0,0.0,0.0,0.0,0.0,0.0,0.0,0.0,0.0,0.0,0.0,0.0,0.0,0.0,0.0,0.0,0.0,0.0,0.0,0.0,0.0,0.0,0.0,0.0,0.0,0.0,0.0,0.0,0.0,0.0,0.0,0.0,0.0,0.0,0.0,0.0,0.0,0.0,0.0,0.0,0.0,0.0,0.0,0.0,0.0,0.0,0.0,0.0,0.0,0.0,0.0,0.0,0.0,0.0,0.0,0.0,0.0,0.0,0.0,0.0,0.0,0.0,0.0,0.0,0.0,-2.5717,-2.5638,-2.5512,0.0,0.0,0.0,0.0,0.0,0.0,0.0,0.0,0.0,0.0,0.0,0.0,0.0,0.0,0.0,0.0,0.0,0.0,0.0,0.0,0.0,0.0,0.0,0.0,0.0,0.0,0.0,0.0,0.0,0.0,0.0,0.0,0.0,0.0,0.0,0.0,0.0,0.0,0.0,0.0,0.0,0.0,0.0,0.0,0.0,0.0,0.0,0.0,0.0,0.0,0.0,0.0,0.0,0.0,0.0,0.0,0.0,0.0,0.0,0.0,0.0,0.0,0.0,0.0,0.0,0.0,0.0,0.0,0.0,0.0,0.0,0.0,0.0,0.0,0.0,0.0,0.0,0.0,0.0,0.0,0.0,0.0,0.0,0.0,0.0,0.0,0.0,0.0,0.0,0.0,0.0,0.0,0.0,0.0,0.0,0.0,0.0,0.0,0.0,0.0,0.0,0.0,0.0,0.0,0.0,0.0,0.0,0.0,0.0,0.0,-2.5907,-2.7747,-2.7778,0.0,-2.6972,0.0,0.0,0.0,0.0,0.0,0.0,0.0,0.0,0.0,0.0,0.0,0.0,0.0,0.0,0.0,0.0,0.0,0.0,0.0,0.0,0.0,0.0,0.0,0.0,0.0,0.0,0.0,0.0,0.0,0.0,0.0,0.0,0.0,0.0,0.0,0.0,0.0,0.0,0.0,0.0,0.0,0.0,0.0,0.0,0.0,0.0,0.0,0.0,0.0,0.0,0.0,0.0,0.0,0.0,0.0,0.0,0.0,0.0,0.0,0.0,0.0,0.0,0.0,0.0,0.0,0.0,0.0,0.0,0.0,0.0,0.0,0.0,0.0,0.0,0.0,0.0,0.0,0.0,0.0,0.0,0.0,0.0,0.0,0.0,0.0,0.0,0.0,0.0,0.0,0.0,0.0,0.0,0.0,0.0,0.0,0.0,0.0,0.0,0.0,0.0,0.0,0.0,0.0,0.0,0.0,0.0,0.0,0.0,0.0,0.0,0.0,-2.8079,-2.7715,-2.7383,0.0,0.0,0.0,0.0,0.0,0.0,0.0,0.0,0.0,0.0,0.0,0.0,0.0,0.0,0.0,0.0,0.0,0.0,0.0,0.0,0.0,0.0,0.0,0.0,0.0,0.0,0.0,0.0,0.0,0.0,0.0,0.0,0.0,0.0,0.0,0.0,0.0,0.0,0.0,0.0,0.0,0.0,0.0,0.0,0.0,0.0,0.0,0.0,0.0,0.0,0.0,0.0,0.0,0.0,0.0,0.0,0.0,0.0,0.0,0.0,0.0,0.0,0.0,0.0,0.0,0.0,0.0,0.0,0.0,0.0,0.0,0.0,0.0,0.0,0.0,0.0,0.0,0.0,0.0,0.0,0.0,0.0,0.0,0.0,0.0,0.0,0.0,0.0,0.0,0.0,0.0,0.0,0.0,0.0,0.0,0.0,0.0,0.0,0.0,0.0,0.0,0.0,0.0,0.0,0.0,0.0,0.0,0.0,0.0,0.0,-2.762,0.0,-2.89,-2.8489,-2.7794,-2.683,0.0,0.0,0.0,0.0,0.0,0.0,0.0,0.0,0.0,0.0,0.0,0.0,0.0,0.0,0.0,0.0,0.0,0.0,0.0,0.0,0.0,0.0,0.0,0.0,0.0,0.0,0.0,0.0,0.0,0.0,0.0,0.0,0.0,0.0,0.0,0.0,0.0,0.0,0.0,0.0,0.0,0.0,0.0,0.0,0.0,0.0,0.0,0.0,0.0,0.0,0.0,0.0,0.0,0.0,0.0,0.0,0.0,0.0,0.0,0.0,0.0,0.0,0.0,0.0,0.0,0.0,0.0,0.0,0.0,0.0,0.0,0.0,0.0,0.0,0.0,0.0,0.0,0.0,0.0,0.0,0.0,0.0,0.0,0.0,0.0,0.0,0.0,0.0,0.0,0.0,0.0,0.0,0.0,0.0,0.0,0.0,0.0,0.0,0.0,0.0,0.0,0.0,0.0,0.0,0.0,0.0,0.0,0.0,0.0,-2.9027,-2.9058,-3.0986,-3.1033,-2.9469,0.0,0.0,0.0,0.0,0.0,0.0,0.0,0.0,0.0,0.0,0.0,0.0,0.0,0.0,0.0,0.0,0.0,0.0,0.0,0.0,0.0,0.0,0.0,0.0,0.0,0.0,0.0,0.0,0.0,0.0,0.0,0.0,0.0,0.0,0.0,0.0,0.0,0.0,0.0,0.0,0.0,0.0,0.0,0.0,0.0,0.0,0.0,0.0,0.0,0.0,0.0,0.0,0.0,0.0,0.0,0.0,0.0,0.0,0.0,0.0,0.0,0.0,0.0,0.0,0.0,0.0,0.0,0.0,0.0,0.0,0.0,0.0,0.0,0.0,0.0,0.0,0.0,0.0,0.0,0.0,0.0,0.0,0.0,0.0,0.0,0.0,0.0,0.0,0.0,0.0,0.0,0.0,0.0,0.0,0.0,0.0,0.0,0.0,0.0,0.0,0.0,0.0,0.0,0.0,0.0,0.0,0.0,0.0,0.0,-2.7146,-2.7762,-2.9722,-3.2898,-2.9753,-2.7905,0.0,0.0,0.0,0.0,0.0,0.0,0.0,0.0,0.0,0.0,0.0,0.0,0.0,0.0,0.0,0.0,0.0,0.0,0.0,0.0,0.0,0.0,0.0,0.0,0.0,0.0,0.0,0.0,0.0,0.0,0.0,0.0,0.0,0.0,0.0,0.0,0.0,0.0,0.0,0.0,0.0,0.0,0.0,0.0,0.0,0.0,0.0,0.0,0.0,0.0,0.0,0.0,0.0,0.0,0.0,0.0,0.0,0.0,0.0,0.0,0.0,0.0,0.0,0.0,0.0,0.0,0.0,0.0,0.0,0.0,0.0,0.0,0.0,0.0,0.0,0.0,0.0,0.0,0.0,0.0,0.0,0.0,0.0,0.0,0.0,0.0,0.0,0.0,0.0,0.0,0.0,0.0,0.0,0.0,0.0,0.0,0.0,0.0,0.0,0.0,0.0,0.0,0.0,0.0,0.0,0.0,0.0,0.0,0.0,-2.6945,0.0,-3.0995,0.0,-2.9344,-2.7229,0.0,0.0,0.0,0.0,0.0,0.0,0.0,0.0,0.0,0.0,0.0,0.0,0.0,0.0,0.0,0.0,0.0,0.0,0.0,0.0,0.0,0.0,0.0,0.0,0.0,0.0,0.0,0.0,0.0,0.0,0.0,0.0,0.0,0.0,0.0,0.0,0.0,0.0,0.0,0.0,0.0,0.0,0.0,0.0,0.0,0.0,0.0,0.0,0.0,0.0,0.0,0.0,0.0,0.0,0.0,0.0,0.0,0.0,0.0,0.0,0.0,0.0,0.0,0.0,0.0,0.0,0.0,0.0,0.0,0.0,0.0,0.0,0.0,0.0,0.0,0.0,0.0,0.0,0.0,0.0,0.0,0.0,0.0,0.0,0.0,0.0,0.0,0.0,0.0,0.0,0.0,0.0,0.0,0.0,0.0,0.0,0.0,0.0,0.0,0.0,0.0,0.0,0.0,0.0,0.0,0.0,0.0,0.0,-2.695,-3.0757,-3.2585,-3.264,-3.113,-3.0159,-2.7617,0.0,0.0,0.0,0.0,0.0,0.0,0.0,0.0,0.0,0.0,0.0,0.0,0.0,0.0,0.0,0.0,0.0,0.0,0.0,0.0,0.0,0.0,0.0,0.0,0.0,0.0,0.0,0.0,0.0,0.0,0.0,0.0,0.0,0.0,0.0,0.0,0.0,0.0,0.0,0.0,0.0,0.0,0.0,0.0,0.0,0.0,0.0,0.0,0.0,0.0,0.0,0.0,0.0,0.0,0.0,0.0,0.0,0.0,0.0,0.0,0.0,0.0,0.0,0.0,0.0,0.0,0.0,0.0,0.0,0.0,0.0,0.0,0.0,0.0,0.0,0.0,0.0,0.0,0.0,0.0,0.0,0.0,0.0,0.0,0.0,0.0,0.0,0.0,0.0,0.0,0.0,0.0,0.0,0.0,0.0,0.0,0.0,0.0,0.0,0.0,0.0,0.0,0.0,0.0,0.0,0.0,0.0,0.0,0.0,-2.8982,-2.9392,-3.1019,-3.3684,-2.9053,-2.7087,0.0,0.0,0.0,0.0,0.0,0.0,0.0,0.0,0.0,0.0,0.0,0.0,0.0,0.0,0.0,0.0,0.0,0.0,0.0,0.0,0.0,0.0,0.0,0.0,0.0,0.0,0.0,0.0,0.0,0.0,0.0,0.0,0.0,0.0,0.0,0.0,0.0,0.0,0.0,0.0,0.0,0.0,0.0,0.0,0.0,0.0,0.0,0.0,0.0,0.0,0.0,0.0,0.0,0.0,0.0,0.0,0.0,0.0,0.0,0.0,0.0,0.0,0.0,0.0,0.0,0.0,0.0,0.0,0.0,0.0,0.0,0.0,0.0,0.0,0.0,0.0,0.0,0.0,0.0,0.0,0.0,0.0,0.0,0.0,0.0,0.0,0.0,0.0,0.0,0.0,0.0,0.0,0.0,0.0,0.0,0.0,0.0,0.0,0.0,0.0,0.0,0.0,0.0,0.0,0.0,0.0,0.0,0.0,0.0,-2.9809,-3.0253,-3.1664,-3.4244,-2.9474,-2.7605,-2.9014,0.0,0.0,0.0,0.0,0.0,0.0,0.0,0.0,0.0,0.0,0.0,0.0,0.0,0.0,0.0,0.0,0.0,0.0,0.0,0.0,0.0,0.0,0.0,0.0,0.0,0.0,0.0,0.0,0.0,0.0,0.0,0.0,0.0,0.0,0.0,0.0,0.0,0.0,0.0,0.0,0.0,0.0,0.0,0.0,0.0,0.0,0.0,0.0,0.0,0.0,0.0,0.0,0.0,0.0,0.0,0.0,0.0,0.0,0.0,0.0,0.0,0.0,0.0,0.0,0.0,0.0,0.0,0.0,0.0,0.0,0.0,0.0,0.0,0.0,0.0,0.0,0.0,0.0,0.0,0.0,0.0,0.0,0.0,0.0,0.0,0.0,0.0,0.0,0.0,0.0,0.0,0.0,0.0,0.0,0.0,0.0,0.0,0.0,0.0,0.0,0.0,0.0,0.0,0.0,0.0,0.0,0.0,0.0,-3.2643,-3.4405,-3.4486,-3.2796,-3.1309,-2.9164,0.0,0.0,0.0,0.0,0.0,0.0,0.0,0.0,0.0,0.0,0.0,0.0,0.0,0.0,0.0,0.0,0.0,0.0,0.0,0.0,0.0,0.0,0.0,0.0,0.0,0.0,0.0,0.0,0.0,0.0,0.0,0.0,0.0,0.0,0.0,0.0,0.0,0.0,0.0,0.0,0.0,0.0,0.0,0.0,0.0,0.0,0.0,0.0,0.0,0.0,0.0,0.0,0.0,0.0,0.0,0.0,0.0,0.0,0.0,0.0,0.0,0.0,0.0,0.0,0.0,0.0,0.0,0.0,0.0,0.0,0.0,0.0,0.0,0.0,0.0,0.0,0.0,0.0,0.0,0.0,0.0,0.0,0.0,0.0,0.0,0.0,0.0,0.0,0.0,0.0,0.0,0.0,0.0,0.0,0.0,0.0,0.0,0.0,0.0,0.0,0.0,0.0,0.0,0.0,0.0,0.0,0.0,0.0,0.0,-3.3231,-3.5492,-3.659,-3.631,-3.2687,-3.0632,0.0,0.0,0.0,0.0,0.0,0.0,0.0,0.0,0.0,0.0,0.0,0.0,0.0,0.0,0.0,0.0,0.0,0.0,0.0,0.0,0.0,0.0,0.0,0.0,0.0,0.0,0.0,0.0,0.0,0.0,0.0,0.0,0.0,0.0,0.0,0.0,0.0,0.0,0.0,0.0,0.0,0.0,0.0,0.0,0.0,0.0,0.0,0.0,0.0,0.0,0.0,0.0,0.0,0.0,0.0,0.0,0.0,0.0,0.0,0.0,0.0,0.0,0.0,0.0,0.0,0.0,0.0,0.0,0.0,0.0,0.0,0.0,0.0,0.0,0.0,0.0,0.0,0.0,0.0,0.0,0.0,0.0,0.0,0.0,0.0,0.0,0.0,0.0,0.0,0.0,0.0,0.0,0.0,0.0,0.0,0.0,0.0,0.0,0.0,0.0,0.0,0.0,0.0,0.0,0.0,0.0,0.0,0.0,-3.2781,-3.4109,-3.6397,-3.739,-3.7034,-3.4558,-3.2749,0.0,0.0,0.0,0.0,0.0,0.0,0.0,0.0,0.0,0.0,0.0,0.0,0.0,0.0,0.0,0.0,0.0,0.0,0.0,0.0,0.0,0.0,0.0,0.0,0.0,0.0,0.0,0.0,0.0,0.0,0.0,0.0,0.0,0.0,0.0,0.0,0.0,0.0,0.0,0.0,0.0,0.0,0.0,0.0,0.0,0.0,0.0,0.0,0.0,0.0,0.0,0.0,0.0,0.0,0.0,0.0,0.0,0.0,0.0,0.0,0.0,0.0,0.0,0.0,0.0,0.0,0.0,0.0,0.0,0.0,0.0,0.0,0.0,0.0,0.0,0.0,0.0,0.0,0.0,0.0,0.0,0.0,0.0,0.0,0.0,0.0,0.0,0.0,0.0,0.0,0.0,0.0,0.0,0.0,0.0,0.0,0.0,0.0,0.0,0.0,0.0,0.0,0.0,0.0,0.0,0.0,0.0,0.0,-3.3719,-3.5379,-3.7346,-3.7721,-3.6447,-3.63,-3.4893,0.0,0.0,0.0,0.0,0.0,0.0,0.0,0.0,0.0,0.0,0.0,0.0,0.0,0.0,0.0,0.0,0.0,0.0,0.0,0.0,0.0,0.0,0.0,0.0,0.0,0.0,0.0,0.0,0.0,0.0,0.0,0.0,0.0,0.0,0.0,0.0,0.0,0.0,0.0,0.0,0.0,0.0,0.0,0.0,0.0,0.0,0.0,0.0,0.0,0.0,0.0,0.0,0.0,0.0,0.0,0.0,0.0,0.0,0.0,0.0,0.0,0.0,0.0,0.0,0.0,0.0,0.0,0.0,0.0,0.0,0.0,0.0,0.0,0.0,0.0,0.0,0.0,0.0,0.0,0.0,0.0,0.0,0.0,0.0,0.0,0.0,0.0,0.0,0.0,0.0,0.0,0.0,0.0,0.0,0.0,0.0,0.0,0.0,0.0,0.0,0.0,0.0,0.0,0.0,0.0,0.0,0.0,0.0,-3.5966,-3.7238,-3.9312,-4.0017,-3.9108,-3.6335,-3.3839,0.0,0.0,0.0,0.0,0.0,0.0,0.0,0.0,0.0,0.0,0.0,0.0,0.0,0.0,0.0,0.0,0.0,0.0,0.0,0.0,0.0,0.0,0.0,0.0,0.0,0.0,0.0,0.0,0.0,0.0,0.0,0.0,0.0,0.0,0.0,0.0,0.0,0.0,0.0,0.0,0.0,0.0,0.0,0.0,0.0,0.0,0.0,0.0,-2.9281,0.0,0.0,0.0,0.0,0.0,0.0,0.0,0.0,0.0,0.0,0.0,0.0,0.0,0.0,0.0,0.0,0.0,0.0,0.0,0.0,0.0,0.0,0.0,0.0,0.0,0.0,0.0,0.0,0.0,0.0,0.0,0.0,0.0,0.0,0.0,0.0,0.0,0.0,0.0,0.0,0.0,0.0,0.0,0.0,0.0,0.0,0.0,0.0,0.0,0.0,0.0,0.0,0.0,0.0,0.0,0.0,0.0,0.0,0.0,-3.6676,-3.8025,-3.9191,-3.943,-3.8581,-3.6733,-3.4765,0.0,0.0,0.0,0.0,0.0,0.0,0.0,0.0,0.0,0.0,0.0,0.0,0.0,0.0,0.0,0.0,0.0,0.0,0.0,0.0,0.0,0.0,0.0,0.0,0.0,0.0,0.0,0.0,0.0,0.0,0.0,0.0,0.0,0.0,0.0,0.0,0.0,0.0,0.0,0.0,0.0,0.0,0.0,0.0,0.0,0.0,0.0,0.0,0.0,0.0,0.0,0.0,0.0,0.0,0.0,0.0,0.0,0.0,0.0,0.0,0.0,0.0,0.0,0.0,0.0,0.0,0.0,0.0,0.0,0.0,0.0,0.0,0.0,0.0,0.0,0.0,0.0,0.0,0.0,0.0,0.0,0.0,0.0,0.0,0.0,0.0,0.0,0.0,0.0,0.0,0.0,0.0,0.0,0.0,0.0,0.0,0.0,0.0,0.0,0.0,0.0,0.0,0.0,0.0,0.0,0.0,0.0,-3.457,-3.6873,-3.8617,-3.8805,-3.8399,-3.7607,-3.7448,-3.6395,-3.4194,0.0,0.0,0.0,0.0,0.0,0.0,0.0,0.0,0.0,0.0,0.0,0.0,0.0,0.0,0.0,0.0,0.0,0.0,0.0,0.0,0.0,0.0,0.0,0.0,0.0,0.0,0.0,0.0,0.0,0.0,0.0,0.0,0.0,0.0,0.0,0.0,0.0,0.0,-2.7877,-2.8977,0.0,0.0,0.0,0.0,0.0,0.0,0.0,0.0,-3.0349,0.0,0.0,0.0,0.0,0.0,0.0,0.0,0.0,0.0,0.0,0.0,0.0,0.0,0.0,0.0,0.0,0.0,0.0,0.0,0.0,0.0,0.0,0.0,0.0,0.0,0.0,0.0,0.0,0.0,0.0,0.0,0.0,0.0,0.0,0.0,0.0,0.0,0.0,0.0,0.0,0.0,0.0,0.0,0.0,0.0,0.0,0.0,0.0,0.0,0.0,0.0,0.0,0.0,0.0,0.0,0.0,-3.6674,-3.6344,-3.7499,-4.0315,-4.06,-4.0322,-3.956,-3.8765,-3.7036,-3.4185,0.0,0.0,0.0,0.0,0.0,0.0,0.0,0.0,0.0,0.0,0.0,0.0,0.0,0.0,0.0,0.0,0.0,0.0,0.0,0.0,0.0,0.0,0.0,0.0,0.0,0.0,0.0,0.0,0.0,0.0,0.0,0.0,0.0,0.0,0.0,0.0,0.0,0.0,0.0,-3.2342,-3.3205,0.0,0.0,0.0,0.0,0.0,0.0,0.0,0.0,-3.0716,0.0,0.0,0.0,0.0,0.0,0.0,0.0,0.0,0.0,0.0,0.0,0.0,0.0,0.0,0.0,0.0,0.0,0.0,0.0,0.0,0.0,0.0,0.0,0.0,0.0,0.0,0.0,0.0,0.0,0.0,0.0,0.0,0.0,0.0,0.0,0.0,0.0,0.0,0.0,0.0,0.0,0.0,0.0,0.0,0.0,0.0,0.0,0.0,0.0,0.0,0.0,0.0,0.0,0.0,0.0,-3.5243,-3.7291,-3.9091,-4.0721,-4.0882,-4.0557,-3.9709,-3.8616,-3.6735,0.0,0.0,0.0,0.0,0.0,0.0,0.0,0.0,0.0,0.0,0.0,0.0,0.0,0.0,0.0,0.0,0.0,0.0,0.0,0.0,0.0,0.0,0.0,0.0,0.0,0.0,0.0,0.0,0.0,0.0,0.0,0.0,0.0,0.0,0.0,0.0,0.0,0.0,0.0,0.0,-3.3606,-3.407,-3.435,0.0,0.0,0.0,0.0,0.0,0.0,-3.2904,-3.1655,0.0,0.0,0.0,0.0,0.0,0.0,0.0,0.0,0.0,0.0,0.0,0.0,0.0,0.0,0.0,0.0,0.0,0.0,0.0,0.0,0.0,0.0,0.0,0.0,0.0,0.0,0.0,0.0,0.0,0.0,0.0,0.0,0.0,0.0,0.0,0.0,0.0,0.0,0.0,0.0,0.0,0.0,0.0,0.0,0.0,0.0,0.0,0.0,0.0,0.0,0.0,0.0,0.0,0.0,0.0,-3.345,-3.7696,-4.0219,-4.082,-4.0799,-4.0467,-3.9791,-3.8407,-3.6538,0.0,0.0,0.0,0.0,0.0,0.0,0.0,0.0,0.0,0.0,0.0,0.0,0.0,0.0,0.0,0.0,0.0,0.0,0.0,0.0,0.0,0.0,0.0,0.0,0.0,0.0,0.0,0.0,0.0,0.0,0.0,0.0,0.0,0.0,0.0,0.0,0.0,0.0,0.0,0.0,0.0,-3.5364,-3.5764,-3.4007,0.0,0.0,0.0,0.0,-3.6239,-3.4861,0.0,0.0,0.0,0.0,0.0,0.0,0.0,0.0,0.0,0.0,0.0,0.0,0.0,0.0,0.0,0.0,0.0,0.0,0.0,0.0,0.0,0.0,0.0,0.0,0.0,0.0,0.0,0.0,0.0,0.0,0.0,0.0,0.0,0.0,0.0,0.0,0.0,0.0,0.0,0.0,0.0,0.0,0.0,0.0,0.0,0.0,0.0,0.0,0.0,0.0,0.0,0.0,0.0,0.0,0.0,0.0,-3.4751,-3.7197,-3.928,-4.0925,-4.0882,-4.0752,-4.0607,-3.9085,-3.7142,0.0,0.0,0.0,0.0,0.0,0.0,0.0,0.0,0.0,0.0,0.0,0.0,0.0,0.0,0.0,0.0,0.0,0.0,0.0,0.0,0.0,0.0,0.0,0.0,0.0,0.0,0.0,0.0,0.0,0.0,0.0,0.0,0.0,0.0,0.0,0.0,0.0,0.0,0.0,0.0,0.0,-3.9332,-3.6186,-3.6467,-3.7051,0.0,0.0,-3.7897,-4.075,-3.9392,0.0,0.0,0.0,0.0,0.0,0.0,0.0,0.0,0.0,0.0,0.0,0.0,0.0,0.0,0.0,0.0,0.0,0.0,0.0,0.0,0.0,0.0,0.0,0.0,0.0,0.0,0.0,0.0,0.0,0.0,0.0,0.0,0.0,0.0,0.0,0.0,0.0,0.0,0.0,0.0,0.0,0.0,0.0,0.0,0.0,0.0,0.0,0.0,0.0,0.0,0.0,0.0,0.0,0.0,0.0,-3.1647,-3.525,-3.8733,-4.0892,-4.1632,-4.1845,-4.1736,-4.1279,-3.9054,-3.6565,0.0,0.0,0.0,0.0,0.0,0.0,0.0,0.0,0.0,0.0,0.0,0.0,0.0,0.0,0.0,0.0,0.0,0.0,0.0,0.0,0.0,0.0,0.0,0.0,0.0,0.0,0.0,0.0,0.0,0.0,0.0,0.0,0.0,0.0,0.0,0.0,0.0,0.0,0.0,0.0,0.0,0.0,-3.8916,-3.8351,0.0,0.0,0.0,-4.0491,-4.1785,0.0,0.0,0.0,0.0,0.0,0.0,0.0,0.0,0.0,0.0,0.0,0.0,0.0,0.0,0.0,0.0,0.0,0.0,0.0,0.0,0.0,0.0,0.0,0.0,0.0,0.0,0.0,0.0,0.0,0.0,0.0,0.0,0.0,0.0,0.0,0.0,0.0,0.0,0.0,0.0,0.0,0.0,0.0,0.0,0.0,0.0,0.0,0.0,0.0,0.0,0.0,0.0,0.0,0.0,0.0,0.0,0.0,-3.5338,-4.0006,-4.2322,-4.2185,-4.2661,-4.2478,-4.1696,-3.9329,0.0,0.0,0.0,0.0,0.0,0.0,0.0,0.0,0.0,0.0,0.0,0.0,0.0,0.0,0.0,0.0,0.0,0.0,0.0,0.0,0.0,0.0,0.0,0.0,0.0,0.0,0.0,-2.1652,0.0,0.0,0.0,0.0,0.0,0.0,0.0,0.0,0.0,0.0,0.0,0.0,0.0,0.0,-3.7875,-4.0994,-4.0188,-3.988,0.0,0.0,-4.2699,-4.3078,-4.2558,-4.1034,0.0,0.0,0.0,0.0,0.0,0.0,0.0,0.0,0.0,0.0,0.0,0.0,0.0,0.0,0.0,0.0,0.0,0.0,0.0,0.0,0.0,0.0,0.0,0.0,0.0,0.0,0.0,0.0,0.0,0.0,0.0,0.0,0.0,0.0,0.0,0.0,0.0,0.0,0.0,0.0,0.0,0.0,0.0,0.0,0.0,0.0,0.0,0.0,0.0,0.0,0.0,0.0,0.0,0.0,0.0,-3.5143,-3.9957,-4.2422,-4.2369,-4.263,-4.2574,-4.2015,-4.0328,-3.7913,0.0,0.0,0.0,0.0,0.0,0.0,0.0,0.0,0.0,0.0,0.0,0.0,0.0,0.0,0.0,0.0,0.0,0.0,0.0,0.0,0.0,0.0,0.0,0.0,0.0,0.0,0.0,0.0,0.0,0.0,0.0,0.0,0.0,0.0,0.0,0.0,0.0,0.0,0.0,0.0,0.0,-4.0061,-4.109,-4.227,-4.3789,0.0,0.0,-4.463,-4.6079,-4.5613,-4.3888,-4.0405,0.0,0.0,0.0,0.0,0.0,0.0,0.0,0.0,0.0,0.0,0.0,0.0,0.0,0.0,0.0,0.0,0.0,0.0,0.0,0.0,0.0,0.0,0.0,0.0,0.0,0.0,0.0,0.0,0.0,0.0,0.0,0.0,0.0,0.0,0.0,0.0,0.0,0.0,0.0,0.0,0.0,0.0,0.0,0.0,0.0,0.0,0.0,0.0,0.0,0.0,0.0,0.0,0.0,-3.2751,-3.5896,-4.0619,-4.3223,-4.3576,-4.3962,-4.3774,-4.3267,-4.165,-3.8866,0.0,0.0,0.0,0.0,0.0,0.0,0.0,0.0,0.0,0.0,0.0,0.0,0.0,0.0,0.0,0.0,0.0,0.0,0.0,0.0,0.0,0.0,0.0,0.0,0.0,0.0,0.0,0.0,-2.6316,-2.6592,-2.704,0.0,0.0,0.0,0.0,0.0,0.0,0.0,0.0,0.0,0.0,-4.0553,-4.3518,-4.4414,0.0,0.0,-4.6896,-4.6958,-4.6665,-4.5941,-4.4354,-4.1244,-3.9423,0.0,0.0,0.0,0.0,0.0,0.0,0.0,0.0,0.0,0.0,0.0,0.0,0.0,0.0,0.0,0.0,0.0,0.0,0.0,0.0,0.0,0.0,0.0,0.0,0.0,0.0,0.0,0.0,0.0,0.0,0.0,0.0,0.0,0.0,0.0,0.0,0.0,0.0,0.0,0.0,0.0,0.0,0.0,0.0,0.0,0.0,0.0,0.0,0.0,0.0,0.0,0.0,-3.3082,-3.6216,-4.088,-4.3584,-4.4216,-4.4607,-4.4489,-4.3898,-4.2381,-3.9699,0.0,0.0,0.0,0.0,0.0,0.0,0.0,0.0,0.0,0.0,0.0,0.0,0.0,0.0,0.0,0.0,0.0,0.0,0.0,0.0,0.0,0.0,0.0,0.0,0.0,0.0,0.0,0.0,-2.8107,-2.7762,-2.8023,0.0,0.0,0.0,0.0,0.0,0.0,0.0,0.0,0.0,0.0,-4.1753,-4.5375,-4.6167,-4.6632,-4.7571,-4.7935,-4.7872,-4.7062,-4.6286,-4.482,-4.2171,0.0,0.0,0.0,0.0,0.0,0.0,0.0,0.0,0.0,0.0,0.0,0.0,0.0,0.0,0.0,0.0,0.0,0.0,0.0,0.0,0.0,0.0,0.0,0.0,0.0,0.0,0.0,0.0,0.0,0.0,-2.5069,0.0,0.0,0.0,0.0,0.0,0.0,0.0,0.0,0.0,0.0,0.0,0.0,0.0,0.0,0.0,0.0,0.0,0.0,0.0,0.0,0.0,0.0,-3.3464,-3.5864,-4.068,-4.3385,-4.3913,-4.4399,-4.443,-4.3913,-4.2381,-4.0331,-3.7606,0.0,0.0,0.0,0.0,0.0,0.0,0.0,0.0,0.0,0.0,0.0,0.0,0.0,0.0,0.0,0.0,0.0,0.0,0.0,0.0,0.0,0.0,0.0,0.0,0.0,0.0,-2.942,-2.8883,-2.8157,0.0,0.0,0.0,0.0,0.0,0.0,0.0,0.0,0.0,0.0,-4.1302,-4.3968,-4.6329,-4.7293,-4.8294,-4.9705,-4.8131,-4.6958,-4.7631,-4.7079,-4.5839,0.0,0.0,0.0,0.0,0.0,0.0,0.0,0.0,0.0,0.0,0.0,0.0,0.0,0.0,0.0,0.0,0.0,0.0,0.0,0.0,0.0,0.0,0.0,0.0,0.0,0.0,0.0,-3.0339,-2.9287,0.0,0.0,0.0,0.0,0.0,0.0,0.0,0.0,0.0,0.0,0.0,-3.4887,-3.6831,0.0,0.0,0.0,0.0,0.0,0.0,0.0,0.0,0.0,0.0,0.0,0.0,-3.4502,-3.7616,-4.1319,-4.3834,-4.4903,-4.484,-4.469,-4.4549,-4.3117,-4.0608,-3.7033,0.0,0.0,0.0,0.0,0.0,0.0,0.0,0.0,0.0,0.0,0.0,0.0,0.0,0.0,0.0,0.0,0.0,0.0,0.0,0.0,0.0,0.0,0.0,0.0,0.0,-2.9437,0.0,0.0,0.0,0.0,0.0,0.0,0.0,0.0,0.0,0.0,0.0,-3.9194,-4.1439,-4.398,-4.6197,-4.7895,-4.9203,-5.0171,0.0,0.0,0.0,0.0,0.0,0.0,0.0,0.0,0.0,0.0,0.0,0.0,0.0,0.0,-4.6974,-4.116,-3.9788,-3.9804,-4.0693,0.0,0.0,0.0,0.0,0.0,0.0,0.0,0.0,0.0,0.0,0.0,0.0,0.0,0.0,-3.3816,0.0,-3.271,0.0,0.0,0.0,0.0,0.0,0.0,0.0,0.0,-3.7654,-3.8815,-3.8258,-3.989,-3.974,0.0,-3.7716,-3.5431,0.0,0.0,0.0,0.0,0.0,0.0,0.0,0.0,-3.5742,-3.9062,-4.1956,-4.3999,-4.52,-4.5114,-4.4964,-4.4768,-4.3137,-4.0539,-3.7001,-3.504,-3.3253,0.0,0.0,0.0,0.0,0.0,0.0,0.0,0.0,0.0,0.0,0.0,0.0,0.0,0.0,0.0,0.0,0.0,0.0,0.0,0.0,0.0,0.0,0.0,-3.0191,0.0,0.0,0.0,0.0,0.0,0.0,0.0,0.0,0.0,-3.6577,-3.9624,-4.2672,-4.4837,-4.6735,-4.8213,-4.9091,0.0,0.0,0.0,0.0,0.0,0.0,0.0,-4.8252,-4.8571,-4.8225,-4.8176,-4.9124,-5.0854,-5.207,-5.1768,0.0,0.0,-4.5772,-4.4339,-4.4492,-4.5833,-4.7252,-4.8511,-4.9321,-5.0971,-5.2141,0.0,0.0,0.0,0.0,0.0,0.0,0.0,0.0,-3.6479,-3.7037,0.0,-3.6245,0.0,0.0,0.0,0.0,0.0,0.0,0.0,0.0,-4.0763,-4.2048,-4.2633,-4.2709,-4.2371,-4.1786,-4.2494,-4.1124,-3.7746,-3.3443,0.0,0.0,0.0,0.0,0.0,0.0,-3.7152,-4.0287,-4.2406,-4.3944,-4.4902,-4.5129,-4.498,-4.4571,-4.2663,-4.0401,-3.7784,-3.711,-3.5592,-3.3076,-3.1123,0.0,0.0,0.0,0.0,0.0,0.0,0.0,0.0,0.0,0.0,0.0,0.0,0.0,0.0,0.0,0.0,0.0,0.0,0.0,0.0,-3.0239,0.0,0.0,0.0,0.0,0.0,0.0,0.0,0.0,0.0,0.0,-4.1509,-4.382,-4.6389,-4.8528,0.0,0.0,0.0,0.0,-5.1183,-5.12,-5.12,-5.1252,-5.1235,-5.12,-5.0942,-5.0321,0.0,0.0,-5.1784,-5.3565,-5.4677,-5.3554,-5.4595,-5.5104,-5.3528,-5.2113,-5.1897,-5.3081,-5.3207,-5.3621,-5.4828,-5.567,-5.6376,-3.8932,0.0,0.0,0.0,0.0,-3.7426,-3.8575,-4.0401,-4.1183,-4.0711,-3.9299,-3.9808,0.0,0.0,0.0,0.0,0.0,0.0,-3.9613,-4.0993,-4.3004,-4.4154,-4.4741,-4.5234,-4.5095,-4.4449,-4.4216,-4.3337,-4.1842,-3.9745,-3.6222,-3.1538,0.0,0.0,0.0,0.0,-3.9313,-4.1223,-4.3289,-4.4573,-4.5114,-4.5294,-4.4986,-4.4118,-4.2952,-4.1724,-4.0462,-3.9293,-3.8054,-3.6533,-3.4581,0.0,0.0,0.0,0.0,0.0,0.0,0.0,0.0,0.0,0.0,0.0,0.0,0.0,0.0,0.0,0.0,0.0,0.0,0.0,-3.0773,-3.0791,-3.1357,0.0,0.0,0.0,0.0,0.0,0.0,0.0,0.0,0.0,-4.8596,-4.9252,-4.9528,0.0,0.0,-5.1373,-5.0873,-5.1925,-5.2753,-5.2753,-5.3184,0.0,0.0,-5.308,-5.3028,-5.3873,-5.4885,-5.5629,-5.5608,-5.6352,-5.6772,-5.6465,-5.6842,-5.7,-5.6603,-5.5692,-5.5328,-5.5948,-5.6773,-5.7626,-5.8349,-5.9181,-5.9794,-4.2175,-3.962,-3.9605,-3.98,-4.031,-4.104,-4.2208,-4.3623,-4.4921,-4.4739,-4.363,-4.3899,-4.2587,-3.9982,-3.8821,0.0,0.0,0.0,-4.2147,-4.338,-4.4553,-4.5403,-4.5988,-4.6403,-4.6388,-4.5972,-4.565,-4.511,-4.4356,-4.3484,-4.0634,-3.6035,0.0,0.0,-3.6558,-3.8952,-4.1096,-4.2789,-4.3999,-4.4849,-4.5278,-4.5368,-4.4981,-4.4075,-4.3174,-4.2407,-4.1727,-4.0509,-3.955,-3.8919,-3.7124,-3.482,0.0,0.0,0.0,0.0,0.0,0.0,0.0,0.0,0.0,0.0,0.0,-2.9527,-2.7692,0.0,0.0,0.0,-2.9973,-3.111,-3.3345,-3.3534,0.0,0.0,0.0,0.0,0.0,0.0,0.0,-4.5303,-4.7355,-4.9597,-5.2321,-5.3097,-5.308,-5.2339,-5.2994,-5.3304,-5.2563,0.0,-5.4287,-5.427,-5.4925,-5.5426,-5.5408,-5.5046,-5.5063,-5.5973,-5.6898,-5.753,-5.7805,-5.8177,-5.8514,-5.8702,-5.8871,-5.9037,-5.9054,-5.8944,-5.8768,-5.8583,-5.9365,-6.0369,-6.1192,-6.18,-6.2153,-4.4501,-4.4034,-4.3807,-4.3272,-4.2663,-4.4967,-4.5638,-4.5184,-4.7558,-4.8644,-4.8521,-4.8019,-4.6744,-4.4892,-4.3164,0.0,0.0,-4.3778,-4.4692,-4.5741,-4.5803,-4.6157,-4.6757,-4.6773,-4.6757,-4.6757,-4.6933,-4.6515,-4.5741,-4.5278,-4.4099,-4.22,-4.1273,-4.099,-4.1307,-4.148,-4.2585,-4.4654,-4.4551,-4.484,-4.5499,-4.5309,-4.4923,-4.4284,-4.3422,-4.2581,-4.1914,-4.0978,-4.0504,-4.0316,-3.8904,-3.7011,-3.4652,0.0,0.0,0.0,0.0,0.0,0.0,0.0,0.0,0.0,0.0,0.0,0.0,0.0,0.0,0.0,-3.2967,0.0,-3.6231,-3.7538,0.0,0.0,0.0,-4.2054,-4.3476,-4.5113,-4.6652,-4.7993,0.0,0.0,-5.3753,-5.5598,-5.6615,-5.5891,-5.5753,-5.5443,-5.4701,-5.5184,-5.5701,-5.5667,-5.6374,-5.6874,-5.6805,-5.6857,-5.6992,-5.7209,-5.7811,-5.8376,-5.8736,-5.9254,-5.9809,-6.0001,-6.0556,-6.0909,-6.0945,-6.1625,-6.2256,-6.1004,-6.1309,-6.2111,-6.3159,-6.3453,-6.3453,-4.5953,-4.5894,-4.5866,-4.4864,-4.3616,-4.4908,-4.568,-4.6076,-4.8105,-4.8762,-4.8347,-4.8913,-4.805,-4.6174,-4.5681,-4.528,-4.5002,-4.6189,-4.6819,-4.7157,-4.7665,-4.7973,-4.8142,-4.8127,-4.8127,-4.8096,-4.7685,-4.7361,-4.708,-4.6528,-4.6036,-4.5711,-4.5597,-4.4163,-4.1496,-4.2893,-4.3985,-4.4701,-4.5182,-4.5561,-4.5735,-4.5368,-4.5216,-4.5191,-4.3728,-4.2869,-4.2794,-4.1419,-4.0857,-4.099,-3.972,-3.8339,-3.6785,-3.3419,0.0,0.0,0.0,0.0,0.0,0.0,0.0,0.0,0.0,-3.5426,-3.0871,0.0,-3.677,0.0,-3.5863,-3.6902,-3.8112,-3.9197,0.0,0.0,-4.4466,-4.5883,-4.7493,-4.9433,-5.0976,-5.1942,-5.3856,-5.5546,-5.6684,-5.7305,-5.7581,-5.7374,-5.6874,-5.6236,-5.5512,-5.6029,-5.6512,-5.6598,-5.7185,-5.7633,-5.7667,-5.8133,-5.8494,-5.8697,-5.9004,-5.9307,-5.9469,-5.9803,-6.0025,-6.0089,-6.0199,-6.0477,-6.0962,-6.1602,-6.2146,-6.2237,-6.2719,-6.3206,-6.3519,-6.3602,-6.3602,-4.7256,-4.7256,-4.7759,-4.7453,-4.6588,-4.6995,-4.7606,-4.8527,-5.0095,-5.036,-4.9738,-5.0042,-4.9497,-4.8435,-4.8419,-4.8204,-4.7942,-4.865,-4.8989,-4.9004,-4.9374,-4.9374,-4.9097,-4.9097,-4.8927,-4.8604,-4.8235,-4.8065,-4.8019,-4.7454,-4.7305,-4.7384,-4.731,-4.6169,-4.4275,-4.5264,-4.5746,-4.5649,-4.576,-4.5807,-4.5807,-4.5573,-4.53,-4.5028,-4.3778,-4.2989,-4.2817,-4.1579,-4.0946,-4.0949,-4.0226,-3.9188,-3.797,-3.5521,-3.3414,0.0,0.0,0.0,0.0,0.0,0.0,0.0,0.0,0.0,0.0,0.0,-3.9177,-3.8707,-3.9361,-4.0513,-4.2187,-4.315,-4.4549,-4.6777,-4.8236,-4.9727,-5.1264,-5.2808,-5.4046,-5.4822,-5.5926,-5.696,-5.7805,-5.8202,-5.8392,-5.8392,-5.8047,-5.7512,-5.6874,-5.7288,-5.7788,-5.7788,-5.8133,-5.8409,-5.8409,-5.8737,-5.9081,-5.9386,-5.9537,-5.9669,-5.9879,-6.0025,-6.0089,-6.0089,-6.0325,-6.0722,-6.1279,-6.1879,-6.2461,-6.2995,-6.3382,-6.3557,-6.3602,-6.3602,-6.3602,-4.8233,-4.8558,-4.9454,-5.0057,-5.0285,-5.0095,-5.0552,-5.1309,-5.2231,-5.2329,-5.1755,-5.1169,-5.082,-5.082,-5.0743,-5.0697,-5.0697,-5.0697,-5.0697,-5.0697,-5.0697,-5.0374,-4.982,-4.9728,-4.9358,-4.8758,-4.8666,-4.8604,-4.8589,-4.8295,-4.8112,-4.8081,-4.7761,-4.7684,-4.7854,-4.7839,-4.7599,-4.6945,-4.6376,-4.6029,-4.595,-4.5934,-4.5466,-4.4448,-4.3757,-4.3082,-4.2438,-4.1612,-4.1037,-4.0702,-4.0495,-3.9897,-3.8823,-3.737,-3.5947,0.0,-3.4334,0.0,0.0,0.0,0.0,0.0,0.0,0.0,0.0,-3.9975,-4.1459,-4.2474,-4.3023,-4.4347,-4.6717,-4.7734,-4.8957,-5.0421,-5.1849,-5.3236,-5.4638,-5.546,-5.6167,-5.6857,-5.7598,-5.8047,-5.8099,-5.8616,-5.8995,-5.8961,-5.8909,-5.865,-5.8219,-5.853,-5.8892,-5.9012,-5.9012,-5.8926,-5.8944,-5.8978,-5.9166,-5.9537,-5.9603,-5.9718,-6.0043,-6.0089,-6.0089,-6.0153,-6.0556,-6.118,-6.1805,-6.2287,-6.2861,-6.3428,-6.3557,-6.3602,-6.3602,-6.3602,-6.3639,-4.8747,-4.9546,-4.9862,-5.0886,-5.2595,-5.2554,-5.2263,-5.2072,-5.249,-5.2637,-5.2452,-5.179,-5.1528,-5.1467,-5.0928,-5.0697,-5.0697,-5.0697,-5.0697,-5.0697,-5.0697,-5.062,-5.0482,-4.9943,-4.9605,-4.9451,-4.8897,-4.8604,-4.8604,-4.8759,-4.881,-4.881,-4.9043,-4.922,-4.922,0.0,0.0,0.0,-4.7577,-4.7214,-4.6645,-4.6613,-4.6013,-4.4678,-4.3812,0.0,-4.2643,-4.1783,-4.1343,-4.1399,-4.0877,0.0,0.0,0.0,0.0,0.0,0.0,0.0,0.0,0.0,0.0,0.0,-4.2092,-4.1533,-3.9962,-4.3285,-4.541,-4.5045,-4.6143,-4.7394,-4.8512,-4.9817,-5.142,-5.3466,-5.4461,-5.5348,-5.6271,-5.7012,-5.7547,-5.7685,-5.834,-5.8788,-5.8788,-5.8944,-5.9012,-5.9012,-5.9012,-5.8961,-5.8806,-5.8909,-5.9012,-5.9012,-5.9012,-5.9012,-5.9012,-5.9166,-5.9319,-5.9537,-5.97,-5.9814,-6.0025,-6.0089,-6.0089,-6.0153,-6.0618,-6.118,-6.1787,-6.2339,-6.288,-6.3492,-6.362,-6.3602,-6.3602,-6.362,-6.3806,-4.9419,0.0,-5.0547,-5.1818,0.0,-5.3545,-5.3721,-5.3949,-5.3791,-5.3514,-5.3175,-5.2498,-5.2206,-5.219,-5.1852,-5.1682,-5.1682,-5.1698,-5.1682,-5.1698,-5.1682,-5.1482,-5.12,-5.082,-5.0466,-5.0136,-4.9435,-4.9143,-4.9127,-4.9135,-4.9144,-4.9144,-4.9533,-4.9757,-4.9773,-4.9836,-4.9426,-4.8399,-4.8067,-4.7719,-4.7356,-4.734,-4.6676,-4.5317,0.0,0.0,0.0,0.0,0.0,0.0,0.0,0.0,0.0,0.0,0.0,-4.0291,-4.0338,-4.0574,-4.1128,-4.1981,-4.3097,-4.4485,-4.5603,-4.5437,-4.352,-4.5857,-4.7607,-4.8359,-4.9373,-5.0473,-5.1671,-5.2395,-5.3394,-5.4938,-5.5792,-5.6491,-5.7256,-5.7995,-5.8426,-5.8478,-5.8771,-5.9012,-5.9012,-5.9012,-5.9012,-5.9012,-5.9012,-5.9012,-5.9012,-5.9012,-5.9012,-5.9012,-5.9012,-5.9012,-5.9012,-5.9166,-5.9386,-5.9537,-5.97,-5.9861,-6.0089,-6.0089,-6.0216,-6.0512,-6.0782,-6.1279,-6.2076,-6.2544,-6.299,-6.3929,-6.4196,-6.4382,-6.4679,-6.4512,-6.4456,-5.0754,-5.0962,-5.1906,-5.2963,-5.3994,-5.4406,-5.5068,-5.5838,0.0,0.0,0.0,-5.3191,-5.2898,-5.2883,-5.276,-5.2713,-5.2713,-5.2713,-5.2713,-5.2713,-5.2713,-5.2375,-5.1863,-5.1713,-5.1462,-5.0814,-5.0229,-4.9936,-4.992,-4.9626,-4.9462,-4.9528,-4.974,-4.9916,-4.9916,-4.9916,-4.9647,-4.9078,-4.8541,-4.8193,-4.8083,-4.8067,-4.7419,-4.6013,-4.5871,-4.4938,-4.3121,-4.2932,-4.2347,-4.1225,-4.1146,-4.1446,-4.2078,-4.2141,-4.2726,-4.399,-4.4606,-4.4954,-4.508,-4.5776,-4.6329,-4.6692,-4.8399,-4.8889,-4.764,-4.8209,-4.9387,-5.1166,-5.1993,-5.2976,-5.451,-5.4782,-5.5214,-5.6077,-5.6828,-5.7413,-5.8048,-5.8633,-5.8978,-5.9012,-5.8995,-5.9012,-5.9012,-5.9012,-5.9012,-5.9012,-5.9012,-5.9012,-5.9012,-5.9012,-5.9012,-5.9012,-5.9012,-5.9081,-5.9081,-5.9284,-5.9453,-5.9586,-5.9766,-5.9879,-6.0025,-6.0089,-6.0325,-6.0861,-6.1081,-6.1674,-6.2643,-6.3088,-6.3541,-6.4772,-6.5051,-6.5292,-6.6017,-6.5775,-6.5534,-5.3518,-5.4347,-5.4552,-5.5275,-5.6342,-5.6347,-5.6511,-5.6515,-5.5284,-5.4684,-5.4545,-5.3883,-5.3575,-5.3545,-5.2975,-5.2713,-5.2713,-5.2713,-5.2713,0.0,-5.2713,-5.2652,-5.2513,-5.1975,-5.1671,-5.1524,-5.0887,-5.0629,-5.0778,-5.0409,-5.0149,-5.0153,-4.9976,-4.9916,-4.9916,-4.9916,-4.9868,-4.9758,-4.9679,-4.9347,-4.8778,-4.8746,-4.8083,-4.6724,-4.6123,-4.5396,-4.448,-4.3895,-4.3485,-4.3279,-4.3279,-4.3579,-4.4227,-4.4259,-4.4654,-4.5444,-4.5618,-4.5918,-4.6471,-4.7198,-4.8383,-5.0089,-5.1069,-5.1227,-5.05,-5.1022,-5.1577,-5.1946,-5.281,-5.3726,-5.5206,-5.6096,-5.6995,-5.8239,-5.8617,-5.8703,-5.8806,-5.8909,-5.9012,-5.9012,-5.9012,-5.9012,-5.9012,-5.9012,-5.9012,-5.9012,-5.9012,-5.9012,-5.9012,-5.9012,-5.9012,-5.9012,-5.9149,-5.9234,-5.9301,-5.9551,-5.9666,-5.9731,-5.9879,-6.0089,-6.0153,-6.0153,-6.0432,-6.0945,-6.1505,-6.2368,-6.3525,-6.421,-6.4837,-6.5719,-6.5905,-6.6202,-6.6964,-6.6982,-6.6964,-5.3727,-5.4142,-5.4142,-5.4872,-5.5933,-5.6552,-5.6761,-5.6715,-5.6099,-5.5607,-5.5207,-5.456,-5.4268,-5.4206,-5.356,-5.3268,-5.3252,-5.2883,-5.2713,-5.2713,-5.2713,-5.2713,-5.2683,-5.239,-5.2267,-5.2429,-5.1734,-5.1552,-5.1678,-5.1293,-5.0861,-5.0567,-5.0103,-4.9916,-4.9916,-4.9916,-4.9916,-4.9916,-4.9916,-4.9773,-4.9457,-4.9442,-4.8968,-4.7956,-4.7624,-4.6961,-4.5886,-4.5555,-4.5223,-4.4859,-4.4843,-4.5144,-4.5792,-4.5839,-4.6171,-4.6898,-4.7277,-4.7782,-4.8446,-4.9521,-5.093,-5.2589,-5.3086,-5.3455,-5.3983,-5.352,-5.3631,-5.4492,-5.5263,-5.617,-5.7239,-5.7735,-5.8272,-5.8892,-5.9012,-5.9012,-5.9012,-5.9012,-5.9012,-5.9012,-5.9012,-5.9012,-5.9012,-5.9012,-5.9012,-5.9012,-5.9098,-5.9183,-5.9319,-5.9319,-5.9301,-5.9166,-5.9234,-5.9319,-5.9453,-5.9617,-5.9779,-5.9779,-5.9943,-6.0216,-6.0494,-6.0556,-6.0945,-6.1787,-6.2528,-6.335,-6.4346,-6.5012,-6.5765,-6.6518,-6.6741,-6.7075,-6.7707,-6.7967,-6.7967,-5.4142,-5.4142,-5.4142,-5.4654,-5.5506,-5.6439,-5.6761,-5.6761,-5.6761,-5.6453,-5.5884,-5.5238,-5.4961,-5.4884,-5.4253,-5.3868,-5.3668,-5.3175,-5.2852,-5.2713,-5.2713,-5.2713,-5.2713,-5.2713,-5.2831,-5.2942,-5.2539,-5.2337,-5.2551,-5.2166,-5.1643,-5.0998,-5.0594,-5.0405,-5.039,-5.039,-5.039,-5.039,-5.039,-5.0247,-4.9931,-4.9916,-4.9663,-4.9157,-4.8952,-4.8367,-4.734,-4.7119,-4.6803,-4.6313,-4.6281,-4.6582,-4.7214,-4.7419,-4.783,-4.8557,-4.922,-4.9821,-5.039,-5.169,-5.3004,-5.4164,-5.4598,-5.5382,-5.6541,-5.5776,-5.5523,-5.6656,-5.7207,-5.7997,-5.8458,-5.8841,-5.9012,-5.9012,-5.9012,-5.9012,-5.9012,-5.9012,-5.9012,-5.9012,-5.9012,-5.9012,-5.9012,-5.9012,-5.9081,-5.9166,-5.9301,-5.9386,-5.9537,-5.9621,-5.9537,-5.9436,-5.9418,-5.9502,-5.9652,-5.9766,-5.9861,-5.9861,-6.0008,-6.0325,-6.0818,-6.1069,-6.172,-6.2759,-6.3654,-6.4512,-6.5226,-6.5887,-6.6648,-6.7373,-6.7577,-6.7781,-6.8283,-6.845,-6.8487,-5.6454,-5.6454,-5.6342,-5.6552,-5.6649,-5.6761,-5.6761,-5.6761,-5.6761,-5.6746,-5.6561,-5.5915,-5.5607,-5.5515,-5.493,-5.433,-5.3791,-5.3668,-5.3314,-5.276,-5.2713,-5.2713,-5.2713,-5.2713,-5.2698,-5.2772,-5.2889,-5.3077,-5.3278,-5.2824,-5.2335,-5.1903,-5.1843,-5.1764,-5.178,-5.1796,-5.1796,-5.1812,-5.1812,-5.1195,-4.9995,-4.9916,-4.9884,-4.9821,-4.9236,-4.8841,-4.8731,-4.813,-4.7782,-4.7719,-4.7751,-4.8035,-4.8683,-4.9284,-4.9947,-5.0611,-5.1306,-5.178,-5.1925,-5.3214,-5.4164,-5.4404,-5.5702,-5.6794,-5.7645,-5.756,-5.718,-5.7114,-5.7429,-5.7954,-5.7959,-5.8631,-5.9168,-5.9219,-5.9168,-5.9012,-5.9116,-5.9012,-5.9012,-5.9012,-5.9185,-5.903,-5.9253,-5.9356,-5.9423,-5.9713,-5.9832,-5.9882,-5.9931,-5.9931,-5.9896,-5.9888,-5.9783,-5.9783,-5.9849,-5.9961,-6.0072,-6.0089,-6.0107,-6.0583,-6.1176,-6.1883,-6.2511,-6.3823,-6.4614,-6.5551,-6.6438,-6.7205,-6.7447,-6.7986,-6.8264,-6.8413,-6.8524,-6.8524,-6.8524,-5.6761,-5.6761,-5.6761,-5.6761,-5.6761,-5.6761,-5.6761,-5.6761,-5.6761,-5.6761,-5.673,-5.6453,-5.633,-5.6284,-5.5607,-5.513,-5.4837,-5.4083,-5.3591,-5.3283,-5.2914,-5.2713,-5.2713,-5.2893,-5.2982,-5.3144,-5.3424,-5.3599,-5.3734,-5.3222,-5.2834,-5.2633,-5.2238,-5.2017,-5.2017,-5.2017,-5.2017,-5.2017,-5.2017,-5.1733,-5.1243,-5.1164,-5.1148,-5.1132,-5.0879,-5.0737,-5.0706,-5.0469,-5.0326,-5.0342,-5.0342,-5.0453,-5.0706,-5.1006,-5.1274,-5.1688,-5.2683,-5.3391,-5.3391,-5.4838,-5.6023,-5.6977,-5.7582,-5.8477,-5.9703,-5.9898,-5.9682,-5.9468,-5.9289,-5.933,-5.9812,-6.0129,-6.0375,-6.0375,-6.0358,-6.0358,-6.0358,-6.041,-6.0566,-6.0566,-6.0635,-6.0704,-6.0721,-6.0807,-6.0943,-6.1113,-6.1096,-6.1093,-6.1177,-6.1261,-6.1261,-6.131,-6.1375,-6.0937,-6.0323,-6.0025,-6.0297,-6.06,-6.1069,-6.1622,-6.2582,-6.3403,-6.4274,-6.5103,-6.5835,-6.6488,-6.7083,-6.7763,-6.8171,-6.8506,-6.8524,-6.8524,-6.8524,-6.8524,-6.8524,-5.6761,-5.6761,-5.6761,-5.6761,-5.6761,-5.6761,-5.6761,-5.6761,-5.6761,-5.6761,-5.6761,-5.6761,-5.6761,-5.6684,-5.6207,-5.5884,-5.5576,-5.4699,-5.4052,-5.3714,-5.3191,-5.2898,-5.2744,-5.2893,-5.3082,-5.334,-5.3537,-5.386,-5.4055,-5.3645,-5.3376,-5.3297,-5.2839,-5.2586,-5.257,-5.257,-5.2586,-5.2602,-5.2586,-5.2586,-5.2586,-5.2586,-5.2412,-5.2065,-5.2017,-5.2017,-5.2017,-5.2017,-5.2017,-5.2017,-5.2248,-5.2394,-5.2394,-5.2716,-5.3054,-5.3278,-5.4276,-5.5063,-5.5243,-5.6536,-5.7825,-5.9025,-5.9366,-6.0062,-6.1008,-6.1306,-6.1427,-6.1565,-6.1134,-6.1047,-6.1203,-6.1306,-6.1306,-6.136,-6.1377,-6.1377,-6.1413,-6.1588,-6.1606,-6.171,-6.1658,-6.1952,-6.1952,-6.1899,-6.1933,-6.2136,-6.2171,-6.229,-6.2389,-6.2336,-6.2336,-6.2455,-6.2486,-6.2111,-6.0996,-6.1083,-6.1193,-6.1633,-6.232,-6.3098,-6.4174,-6.4989,-6.5727,-6.6174,-6.7072,-6.7595,-6.7781,-6.8246,-6.8487,-6.8506,-6.8524,-6.8524,-6.8524,-6.8524,-6.8524,-5.6761,-5.6761,-5.6761,-5.6761,-5.6761,-5.6761,-5.6761,-5.6761,-5.6761,-5.6761,-5.6761,-5.6761,-5.6761,-5.6761,-5.6669,-5.633,-5.5761,-5.5576,-5.4884,-5.3899,-5.3729,-5.3329,-5.2744,-5.2713,-5.2869,-5.3232,-5.3412,-5.3742,-5.4103,-5.4055,-5.4055,-5.4024,-5.3913,-5.3961,-5.3897,-5.3866,-5.3976,-5.385,-5.3866,-5.3945,-5.3945,-5.3945,-5.3313,-5.2254,-5.2065,-5.2128,-5.208,-5.2049,-5.2065,-5.2049,-5.2861,-5.3288,-5.3399,-5.4541,-5.549,-5.6228,-5.6454,-5.6801,-5.7503,-5.8362,-5.9201,-6.0011,-6.0716,-6.12,-6.1496,-6.153,-6.1806,-6.2358,-6.2358,-6.2065,-6.1565,-6.1599,-6.1584,-6.1674,-6.1675,-6.1779,-6.1884,-6.204,-6.19,-6.1987,-6.2161,-6.2299,-6.2313,-6.2191,-6.2398,-6.2515,-6.2477,-6.2529,-6.2635,-6.2547,-6.2564,-6.2763,-6.3052,-6.3093,-6.2529,-6.2523,-6.2985,-6.3364,-6.3721,-6.442,-6.5093,-6.579,-6.6519,-6.7142,-6.7777,-6.8227,-6.8394,-6.8487,-6.8506,-6.8524,-6.8524,-6.8524,-6.8524,-6.8524,-6.8524,-5.6761,-5.6761,-5.6761,-5.6761,-5.6761,-5.6761,-5.6761,-5.6761,-5.6761,-5.6761,-5.6761,-5.6761,-5.6761,-5.6761,-5.6761,-5.6623,-5.6346,-5.5915,-5.5422,-5.4945,-5.4746,-5.425,-5.3691,-5.3854,-5.3799,-5.3568,-5.3711,-5.3915,-5.4103,-5.4103,-5.4103,-5.4103,-5.4103,-5.4103,-5.4103,-5.4103,-5.4103,-5.4103,-5.4103,-5.4103,-5.4103,-5.4103,-5.3818,-5.3392,-5.3344,-5.3344,-5.3344,-5.3344,-5.3565,-5.4081,-5.4406,-5.487,-5.539,-5.5914,-5.6514,-5.7271,-5.7833,-5.8379,-5.9203,-6.003,-6.0754,-6.1547,-6.1903,-6.2272,-6.2651,-6.2772,-6.2893,-6.3117,-6.3186,-6.3013,-6.2875,-6.2772,-6.2755,-6.2827,-6.2972,-6.308,-6.3203,-6.3327,-6.352,-6.3537,-6.3607,-6.3693,-6.3674,-6.3762,-6.383,-6.3881,-6.3863,-6.3828,-6.3863,-6.3863,-6.3911,-6.4409,-6.4714,-6.4948,-6.5159,-6.4291,-6.4098,-6.4638,-6.5148,-6.5797,-6.6455,-6.7086,-6.7796,-6.7796,-6.8346,-6.8468,-6.8487,-6.8506,-6.8524,-6.8524,-6.8524,-6.8524,-6.8524,-6.8524,-6.8524,-5.6761,-5.6761,-5.6761,-5.6761,-5.6761,-5.6761,-5.6761,-5.6761,-5.6761,-5.6761,-5.6761,-5.6761,-5.6761,-5.6761,-5.6761,-5.6842,-5.6796,-5.6349,-5.601,-5.5858,-5.5534,-5.5131,-5.4707,-5.4914,-5.4747,-5.4206,-5.4096,-5.4103,-5.4103,-5.4103,-5.4103,-5.4103,-5.4103,-5.4103,-5.4103,-5.4103,-5.4103,-5.4103,-5.4103,-5.4103,-5.4103,-5.4103,-5.4103,-5.4189,-5.4311,-5.4327,-5.4103,-5.4311,-5.4701,-5.5312,-5.578,-5.6487,-5.7297,-5.7607,-5.7943,-5.8488,-5.9208,-5.9996,-6.0751,-6.138,-6.2013,-6.2755,-6.2841,-6.31,-6.3548,-6.36,-6.36,-6.36,-6.3673,-6.3673,-6.3673,-6.3729,-6.382,-6.382,-6.3965,-6.4109,-6.418,-6.4358,-6.4446,-6.4411,-6.4445,-6.4653,-6.4706,-6.4688,-6.4671,-6.4706,-6.4706,-6.4706,-6.4706,-6.4706,-6.4961,-6.5551,-6.5743,-6.6181,-6.6504,-6.6153,-6.5752,-6.6133,-6.6412,-6.7086,-6.7475,-6.816,-6.8487,-6.8506,-6.8524,-6.8524,-6.8524,-6.8524,-6.8524,-6.8524,-6.8524,-6.8524,-6.8524,-6.8524,-6.8524,-5.6761,-5.6761,-5.6761,-5.6761,-5.6761,-5.6761,-5.6761,-5.6761,-5.6761,-5.6761,-5.6761,-5.6761,-5.6761,-5.6761,-5.6761,-5.6939,-5.7004,-5.6846,-5.6522,-5.6201,-5.6217,-5.5938,-5.5546,-5.559,-5.5328,-5.4806,-5.4378,-5.415,-5.4198,-5.4134,-5.4103,-5.4103,-5.4103,-5.4103,-5.4103,-5.4103,-5.4103,-5.4103,-5.4103,-5.4103,-5.4103,-5.4173,-5.4258,-5.4258,-5.4918,-5.5033,-5.4306,-5.495,-5.5393,-5.5619,-5.6937,-5.8137,-5.8924,-5.9596,-6.015,-6.0232,-6.0873,-6.1668,-6.2268,-6.2479,-6.2789,-6.3324,-6.3531,-6.3513,-6.3565,-6.36,-6.36,-6.36,-6.3764,-6.391,-6.391,-6.4054,-6.418,-6.418,-6.4287,-6.4428,-6.4585,-6.4655,-6.4706,-6.4706,-6.4706,-6.4706,-6.4706,-6.4706,-6.4706,-6.4706,-6.4706,-6.4706,-6.4706,-6.4775,-6.5078,-6.5679,-6.6265,-6.6874,-6.7469,-6.7982,-6.7804,-6.7768,-6.7894,-6.8234,-6.8093,-6.8506,-6.8506,-6.8524,-6.8524,-6.8524,-6.8524,-6.8524,-6.8524,-6.8524,-6.8524,-6.8524,-6.8524,-6.8524,-6.8524,-5.6761,-5.6761,-5.6761,-5.6761,-5.6761,-5.6761,-5.6761,-5.6761,-5.6761,-5.6761,-5.6761,-5.6761,-5.6761,-5.6761,-5.6761,-5.6939,-5.71,-5.7004,-5.6976,-5.7089,-5.7246,-5.6934,-5.6544,-5.6555,-5.6399,-5.5787,-5.5067,-5.4814,-5.4719,-5.434,-5.4103,-5.4103,-5.4119,-5.4103,-5.4103,-5.4103,-5.4103,-5.4103,-5.4103,-5.4103,-5.4173,-5.4617,-5.4934,-5.5017,-5.5732,-5.6264,-5.6579,-5.6313,-5.6442,-5.6996,-5.7992,-5.9179,-6.0355,-6.0823,-6.1203,-6.172,-6.1979,-6.2444,-6.3117,-6.3238,-6.3307,-6.3548,-6.36,-6.36,-6.36,-6.36,-6.36,-6.36,-6.3764,-6.391,-6.3982,-6.4163,-6.4287,-6.4198,-6.4287,-6.4463,-6.455,-6.4655,-6.4706,-6.4706,-6.4706,-6.4706,-6.4706,-6.4706,-6.4775,-6.4706,-6.4706,-6.4775,-6.4775,-6.5145,-6.5615,-6.6247,-6.6855,-6.7415,-6.7948,-6.829,-6.824,-6.8121,-6.8358,-6.8524,-6.8524,-6.8524,-6.8524,-6.8524,-6.8524,-6.8524,-6.8524,-6.8524,-6.8524,-6.8524,-6.8524,-6.8524,-6.8524,-6.8524,-6.8524,-5.6761,-5.6761,-5.6761,-5.6761,-5.6761,-5.6761,-5.6761,-5.6761,-5.6761,-5.6761,-5.6761,-5.6761,-5.6761,-5.6761,-5.6761,-5.6923,-5.7084,-5.7195,-5.7385,-5.7684,-5.7778,-5.7684,-5.7324,-5.7223,-5.6994,-5.652,-5.5857,-5.5525,-5.5478,-5.4846,-5.4482,-5.4466,-5.4229,-5.4103,-5.4103,-5.4103,-5.4103,-5.4087,-5.4396,-5.4396,-5.4412,-5.5181,-5.5766,-5.5897,-5.6822,-5.784,-5.8518,-5.8429,-5.842,-5.8784,-5.9412,-6.0271,-6.12,-6.1565,-6.1979,-6.2393,-6.2772,-6.3117,-6.3531,-6.3548,-6.36,-6.36,-6.36,-6.36,-6.36,-6.36,-6.36,-6.36,-6.382,-6.3982,-6.4054,-6.4287,-6.4428,-6.4375,-6.4428,-6.4481,-6.455,-6.4637,-6.4706,-6.4706,-6.4706,-6.4706,-6.4706,-6.4944,-6.4876,-6.4825,-6.5127,-6.526,-6.5326,-6.5679,-6.6247,-6.6798,-6.7231,-6.7773,-6.8358,-6.8475,-6.8475,-6.8475,-6.8475,-6.8524,-6.8524,-6.8524,-6.8524,-6.8524,-6.8524,-6.8524,-6.8524,-6.8524,-6.8524,-6.8524,-6.8524,-6.8524,-6.8524,-6.8524,-6.8524,-5.6761,-5.6761,-5.6761,-5.6761,-5.6761,-5.6761,-5.6761,-5.6761,-5.6761,-5.6761,-5.6761,-5.6761,-5.6761,-5.6761,-5.6761,-5.6939,-5.71,-5.7385,-5.759,-5.7887,-5.798,-5.8042,-5.8024,-5.7579,-5.7401,-5.7184,-5.6568,-5.6252,-5.6204,-5.5541,-5.5177,-5.513,-5.4672,-5.4277,-5.4387,-5.4245,-5.4432,-5.473,-5.5194,-5.5162,-5.4804,-5.6057,-5.6859,-5.6907,-5.8284,-5.9394,-6.0129,-6.0852,-6.0926,-6.0432,-6.0874,-6.1355,-6.1599,-6.2151,-6.2582,-6.2668,-6.3238,-6.3462,-6.36,-6.36,-6.36,-6.36,-6.36,-6.36,-6.36,-6.36,-6.36,-6.36,-6.3965,-6.4198,-6.4269,-6.4446,-6.4637,-6.4706,-6.4637,-6.4637,-6.4706,-6.4724,-6.4706,-6.4706,-6.4706,-6.4706,-6.4706,-6.5194,-6.526,-6.5194,-6.5725,-6.602,-6.602,-6.6247,-6.6855,-6.7286,-6.7595,-6.8,-6.8475,-6.8524,-6.8524,-6.8524,-6.8524,-6.8524,-6.8524,-6.8524,-6.8524,-6.8524,-6.8524,-6.8524,-6.8524,-6.8524,-6.8524,-6.8524,-6.8524,-6.8524,-6.8524,-6.8524,-6.8524,-5.6761,-5.6761,-5.6761,-5.6761,-5.6761,-5.6761,-5.6761,-5.6761,-5.6761,-5.6761,-5.6761,-5.6761,-5.6761,-5.6761,-5.6761,-5.7035,-5.7306,-5.748,-5.7778,-5.8166,-5.8182,-5.8274,-5.8259,-5.8069,-5.7943,-5.7864,-5.7279,-5.6963,-5.69,-5.6252,-5.592,-5.5904,-5.5683,-5.5572,-5.5676,-5.5639,-5.6127,-5.6586,-5.689,-5.7244,-5.7575,-5.8514,-5.9161,-5.9218,-6.0132,-6.1015,-6.1826,-6.263,-6.2613,-6.1985,-6.2024,-6.2444,-6.2858,-6.3134,-6.3238,-6.3289,-6.3444,-6.36,-6.36,-6.36,-6.36,-6.36,-6.36,-6.36,-6.36,-6.36,-6.36,-6.3673,-6.3965,-6.4198,-6.4251,-6.4516,-6.4655,-6.4706,-6.4706,-6.4706,-6.4706,-6.4706,-6.4706,-6.4706,-6.4706,-6.4706,-6.4894,-6.5326,-6.5697,-6.5615,-6.6143,-6.6664,-6.6605,-6.6913,-6.7523,-6.7649,-6.7897,-6.8222,-6.8457,-6.8475,-6.8524,-6.8524,-6.8524,-6.8524,-6.8524,-6.8524,-6.8524,-6.8524,-6.8524,-6.8524,-6.8524,-6.8524,-6.8524,-6.8524,-6.8524,-6.8524,-6.8524,-6.8524,-6.8524,-5.6761,-5.6761,-5.6761,-5.6761,-5.6761,-5.6761,-5.6761,-5.6761,-5.6761,-5.6761,-5.6761,-5.6761,-5.6761,-5.6761,-5.6858,-5.7115,-5.729,-5.759,-5.7871,-5.8058,-5.8274,-5.8274,-5.8259,-5.8259,-5.8259,-5.8243,-5.7864,-5.769,-5.7532,-5.6963,-5.6663,-5.6536,-5.6331,-5.6204,-5.6167,-5.6649,-5.7045,-5.7556,-5.816,-5.8842,-5.886,-6.003,-6.051,-6.0721,-6.1319,-6.2168,-6.291,-6.3375,-6.3358,-6.3031,-6.2962,-6.3169,-6.3531,-6.36,-6.36,-6.36,-6.36,-6.36,-6.36,-6.36,-6.36,-6.36,-6.36,-6.36,-6.36,-6.36,-6.36,-6.3764,-6.4054,-6.418,-6.4305,-6.4516,-6.4637,-6.4706,-6.4706,-6.4706,-6.4706,-6.4706,-6.4706,-6.4706,-6.4706,-6.4825,-6.5078,-6.5661,-6.5976,-6.6265,-6.6895,-6.7139,-6.7157,-6.7649,-6.7948,-6.807,-6.8121,-6.8358,-6.8475,-6.8524,-6.8524,-6.8524,-6.8524,-6.8524,-6.8524,-6.8524,-6.8524,-6.8524,-6.8524,-6.8524,-6.8524,-6.8524,-6.8524,-6.8524,-6.8524,-6.8524,-6.8524,-6.8524,-6.8524,-5.6761,-5.6761,-5.6761,-5.6761,-5.6761,-5.6761,-5.6761,-5.6761,-5.6761,-5.6761,-5.6761,-5.6761,-5.6761,-5.6873,-5.7035,-5.71,-5.718,-5.7684,-5.7871,-5.8058,-5.8166,-5.8259,-5.8259,-5.8259,-5.8259,-5.8259,-5.8259,-5.8211,-5.8022,-5.7548,-5.7358,-5.7231,-5.6757,-5.6505,-5.682,-5.7367,-5.7781,-5.8362,-5.9633,-6.0148,-6.0085,-6.1023,-6.161,-6.1746,-6.2164,-6.2858,-6.3341,-6.36,-6.3548,-6.3582,-6.36,-6.3565,-6.36,-6.36,-6.36,-6.36,-6.36,-6.36,-6.36,-6.36,-6.36,-6.36,-6.36,-6.36,-6.36,-6.36,-6.3673,-6.3837,-6.4072,-6.4251,-6.4428,-6.4619,-6.4706,-6.4706,-6.4706,-6.4706,-6.4706,-6.4706,-6.4706,-6.4706,-6.4706,-6.5127,-6.5597,-6.6247,-6.674,-6.6816,-6.7451,-6.7736,-6.7807,-6.8051,-6.824,-6.8358,-6.8408,-6.8475,-6.8524,-6.8524,-6.8524,-6.8524,-6.8524,-6.8524,-6.8524,-6.8524,-6.8524,-6.8524,-6.8524,-6.8524,-6.8524,-6.8524,-6.8524,-6.8524,-6.8524,-6.8524,-6.8524,-6.8524,-6.8524,-5.6761,-5.6761,-5.6761,-5.6761,-5.6761,-5.6761,-5.6761,-5.6761,-5.6761,-5.6761,-5.6761,-5.6761,-5.6761,-5.6858,-5.7019,-5.7195,-5.748,-5.7793,-5.798,-5.8182,-5.8259,-5.8259,-5.8259,-5.8259,-5.8259,-5.8259,-5.8259,-5.8259,-5.818,-5.8101,-5.8037,-5.7943,-5.7769,-5.78,-5.7931,-5.869,-5.9597,-6.0241,-6.1324,-6.2039,-6.2323,-6.2616,-6.2957,-6.2942,-6.3216,-6.3393,-6.3531,-6.36,-6.36,-6.36,-6.36,-6.36,-6.36,-6.36,-6.36,-6.36,-6.36,-6.36,-6.36,-6.36,-6.36,-6.36,-6.36,-6.36,-6.36,-6.36,-6.3673,-6.391,-6.4054,-6.4305,-6.4568,-6.4655,-6.4724,-6.4706,-6.4706,-6.4706,-6.4706,-6.4706,-6.4706,-6.4775,-6.5145,-6.5568,-6.5742,-6.6758,-6.7231,-6.7415,-6.7826,-6.834,-6.8408,-6.8389,-6.8457,-6.8524,-6.8524,-6.8524,-6.8524,-6.8524,-6.8524,-6.8524,-6.8524,-6.8524,-6.8524,-6.8524,-6.8524,-6.8524,-6.8524,-6.8524,-6.8524,-6.8524,-6.8524,-6.8524,-6.8524,-6.8524,-6.8524,-6.8524,-6.8524,-5.6761,-5.6761,-5.6761,-5.6761,-5.6761,-5.6761,-5.6761,-5.6761,-5.6761,-5.6761,-5.6761,-5.6761,-5.6842,-5.6923,-5.7195,-5.7385,-5.7684,-5.798,-5.8166,-5.8274,-5.8259,-5.8259,-5.8259,-5.8259,-5.8259,-5.8259,-5.8259,-5.8259,-5.8259,-5.8259,-5.8227,-5.8259,-5.8259,-5.818,-5.8518,-5.9614,-6.039,-6.0985,-6.2327,-6.322,-6.3531,-6.36,-6.36,-6.36,-6.36,-6.36,-6.36,-6.36,-6.36,-6.36,-6.36,-6.36,-6.36,-6.36,-6.36,-6.36,-6.36,-6.36,-6.36,-6.36,-6.36,-6.36,-6.36,-6.36,-6.36,-6.3673,-6.3837,-6.4037,-6.4163,-6.4428,-6.4637,-6.4706,-6.4706,-6.4706,-6.4706,-6.4706,-6.4706,-6.4706,-6.4706,-6.4825,-6.526,-6.5742,-6.6344,-6.7063,-6.7649,-6.7878,-6.8051,-6.8457,-6.8475,-6.8457,-6.8475,-6.8524,-6.8524,-6.8524,-6.8524,-6.8524,-6.8524,-6.8524,-6.8524,-6.8524,-6.8524,-6.8524,-6.8524,-6.8524,-6.8524,-6.8524,-6.8524,-6.8524,-6.8524,-6.8524,-6.8524,-6.8524,-6.8524,-6.8524,-6.8524,-5.6761,-5.6761,-5.6761,-5.6761,-5.6761,-5.6761,-5.6761,-5.6761,-5.6761,-5.6761,-5.6761,-5.6761,-5.6939,-5.71,-5.7385,-5.7668,-5.7965,-5.8166,-5.8259,-5.8259,-5.8259,-5.8259,-5.8259,-5.8259,-5.8259,-5.8259,-5.8259,-5.8259,-5.8259,-5.8259,-5.8259,-5.8259,-5.8259,-5.8427,-5.885,-6.0005,-6.0953,-6.1397,-6.2693,-6.3496,-6.3582,-6.36,-6.36,-6.36,-6.36,-6.36,-6.36,-6.36,-6.36,-6.36,-6.36,-6.36,-6.36,-6.36,-6.36,-6.36,-6.36,-6.36,-6.36,-6.36,-6.36,-6.36,-6.36,-6.36,-6.36,-6.3747,-6.3982,-6.418,-6.4305,-6.4481,-6.4706,-6.4706,-6.4706,-6.4706,-6.4706,-6.4706,-6.4706,-6.4706,-6.4706,-6.4775,-6.526,-6.5806,-6.6386,-6.6988,-6.7702,-6.8222,-6.8408,-6.8524,-6.8524,-6.8524,-6.8524,-6.8524,-6.8524,-6.8524,-6.8524,-6.8524,-6.8524,-6.8524,-6.8524,-6.8524,-6.8524,-6.8524,-6.8524,-6.8524,-6.8524,-6.8524,-6.8524,-6.8524,-6.8524,-6.8524,-6.8524,-6.8524,-6.8524,-6.8524,-6.8524,-5.6761,-5.6761,-5.6761,-5.6761,-5.6761,-5.6761,-5.6761,-5.6761,-5.6761,-5.6761,-5.6761,-5.6761,-5.6923,-5.71,-5.7385,-5.7778,-5.8166,-5.8259,-5.8259,-5.8259,-5.8259,-5.8259,-5.8259,-5.8259,-5.8259,-5.8259,-5.8351,-5.8443,-5.8274,-5.8259,-5.8351,-5.8351,-5.8351,-5.8594,-5.9515,-6.0433,-6.1348,-6.1929,-6.3025,-6.36,-6.36,-6.36,-6.36,-6.36,-6.36,-6.36,-6.36,-6.36,-6.36,-6.36,-6.36,-6.36,-6.36,-6.36,-6.36,-6.36,-6.36,-6.36,-6.36,-6.36,-6.36,-6.36,-6.36,-6.36,-6.3673,-6.382,-6.4054,-6.4251,-6.4446,-6.4637,-6.4706,-6.4706,-6.4706,-6.4706,-6.4706,-6.4706,-6.4706,-6.4706,-6.4706,-6.4775,-6.526,-6.5869,-6.6386,-6.6988,-6.7649,-6.8121,-6.834,-6.8475,-6.8524,-6.8524,-6.8524,-6.8524,-6.8524,-6.8524,-6.8524,-6.8524,-6.8524,-6.8524,-6.8524,-6.8524,-6.8524,-6.8524,-6.8524,-6.8524,-6.8524,-6.8524,-6.8524,-6.8524,-6.8524,-6.8524,-6.8524,-6.8524,-6.8524,-6.8524,-6.8524,-5.6761,-5.6761,-5.6761,-5.6761,-5.6761,-5.6761,-5.6761,-5.6761,-5.6761,-5.6761,-5.6761,-5.6858,-5.7035,-5.7306,-5.7385,-5.7778,-5.8166,-5.8259,-5.8259,-5.8259,-5.8259,-5.8259,-5.8259,-5.8259,-5.8259,-5.8443,-5.8685,-5.8685,-5.8367,-5.8259,-5.861,-5.894,-5.894,-5.9443,-6.0263,-6.1185,-6.177,-6.2436,-6.31,-6.36,-6.36,-6.36,-6.36,-6.36,-6.36,-6.36,-6.36,-6.36,-6.36,-6.36,-6.36,-6.36,-6.36,-6.36,-6.36,-6.36,-6.36,-6.36,-6.36,-6.36,-6.36,-6.36,-6.36,-6.36,-6.3673,-6.3892,-6.4126,-6.4393,-6.4516,-6.4706,-6.4706,-6.4706,-6.4706,-6.4706,-6.4706,-6.4706,-6.4706,-6.4706,-6.4706,-6.4775,-6.5326,-6.5851,-6.6386,-6.6988,-6.7649,-6.8,-6.829,-6.8408,-6.8524,-6.8524,-6.8524,-6.8524,-6.8524,-6.8524,-6.8524,-6.8524,-6.8524,-6.8524,-6.8524,-6.8524,-6.8524,-6.8524,-6.8524,-6.8524,-6.8524,-6.8524,-6.8524,-6.8524,-6.8524,-6.8524,-6.8524,-6.8524,-6.8524,-6.8524,-6.8524,-5.6761,-5.6761,-5.6761,-5.6761,-5.6761,-5.6761,-5.6761,-5.6761,-5.6761,-5.6761,-5.6761,-5.6858,-5.7131,-5.7401,-5.7684,-5.7871,-5.8259,-5.8259,-5.8259,-5.8259,-5.8259,-5.8259,-5.8259,-5.8259,-5.8259,-5.8443,-5.9104,-5.9266,-5.885,-5.8924,-5.9266,-5.9691,-5.9849,-6.0263,-6.1185,-6.1833,-6.2262,-6.2762,-6.3176,-6.36,-6.36,-6.36,-6.36,-6.36,-6.36,-6.36,-6.36,-6.36,-6.36,-6.36,-6.36,-6.36,-6.36,-6.36,-6.36,-6.36,-6.36,-6.36,-6.36,-6.36,-6.36,-6.36,-6.36,-6.36,-6.3747,-6.402,-6.4393,-6.4655,-6.4706,-6.4706,-6.4706,-6.4706,-6.4706,-6.4706,-6.4706,-6.4706,-6.4706,-6.4706,-6.4706,-6.4961,-6.5391,-6.5806,-6.6265,-6.674,-6.7286,-6.7878,-6.8222,-6.8457,-6.8524,-6.8524,-6.8524,-6.8524,-6.8524,-6.8524,-6.8524,-6.8524,-6.8524,-6.8524,-6.8524,-6.8524,-6.8524,-6.8524,-6.8524,-6.8524,-6.8524,-6.8524,-6.8524,-6.8524,-6.8524,-6.8524,-6.8524,-6.8524,-6.8524,-6.8524,-6.8524,-5.6761,-5.6761,-5.6761,-5.6761,-5.6761,-5.6761,-5.6761,-5.6761,-5.6761,-5.6761,-5.6858,-5.7019,-5.729,-5.7746,-5.8135,-5.8243,-5.8351,-5.8443,-5.8351,-5.8351,-5.8259,-5.8259,-5.8259,-5.8259,-5.8259,-5.8534,-5.9266,-5.9515,-5.9603,-6.0092,-6.0501,-6.067,-6.0837,-6.1168,-6.2105,-6.2341,-6.2685,-6.3268,-6.3509,-6.36,-6.36,-6.36,-6.36,-6.36,-6.36,-6.36,-6.36,-6.36,-6.36,-6.36,-6.36,-6.36,-6.36,-6.36,-6.36,-6.36,-6.36,-6.36,-6.36,-6.36,-6.36,-6.36,-6.3582,-6.3673,-6.3875,-6.4145,-6.4411,-6.4637,-6.4706,-6.4706,-6.4706,-6.4706,-6.4706,-6.4706,-6.4706,-6.4706,-6.4706,-6.4944,-6.4961,-6.5127,-6.5551,-6.5806,-6.61,-6.6505,-6.6913,-6.7559,-6.8102,-6.834,-6.8524,-6.8524,-6.8524,-6.8524,-6.8524,-6.8524,-6.8524,-6.8524,-6.8524,-6.8524,-6.8524,-6.8524,-6.8524,-6.8524,-6.8524,-6.8524,-6.8524,-6.8524,-6.8524,-6.8524,-6.8524,-6.8524,-6.8524,-6.8524,-6.8524,-6.8524,-6.8524,-5.6761,-5.6761,-5.6761,-5.6761,-5.6761,-5.6761,-5.6761,-5.6761,-5.6761,-5.6858,-5.71,-5.7621,-5.8316,-5.9129,-5.9674,-5.9531,-5.9193,-5.903,-5.8685,-5.8443,-5.8351,-5.8351,-5.8259,-5.8259,-5.8259,-5.8776,-5.9603,-6.0348,-6.0518,-6.0754,-6.1086,-6.1673,-6.177,-6.2184,-6.2855,-6.3025,-6.3251,-6.3509,-6.36,-6.36,-6.36,-6.36,-6.36,-6.36,-6.36,-6.36,-6.36,-6.36,-6.36,-6.36,-6.36,-6.36,-6.36,-6.36,-6.36,-6.36,-6.36,-6.36,-6.36,-6.36,-6.3673,-6.3747,-6.3747,-6.3875,-6.4145,-6.427,-6.4481,-6.4724,-6.4706,-6.4706,-6.4706,-6.4706,-6.4706,-6.4706,-6.4706,-6.4706,-6.4843,-6.5194,-6.5374,-6.5551,-6.5788,-6.6161,-6.6464,-6.6931,-6.7396,-6.793,-6.829,-6.8408,-6.8524,-6.8524,-6.8524,-6.8524,-6.8524,-6.8524,-6.8524,-6.8524,-6.8524,-6.8524,-6.8524,-6.8524,-6.8524,-6.8524,-6.8524,-6.8524,-6.8524,-6.8524,-6.8524,-6.8524,-6.8524,-6.8524,-6.8524,-6.8524,-6.8524,-6.8524,-6.8524,-5.6761,-5.6761,-5.6761,-5.6761,-5.6858,-5.7035,-5.7131,-5.7211,-5.7559,-5.7715,-5.7963,-5.8664,-5.9642,-6.0501,-6.067,-6.0417,-5.9935,-5.9935,-5.9515,-5.9104,-5.894,-5.9014,-5.9193,-5.9014,-5.9104,-5.894,-6.0602,-6.1185,-6.1332,-6.1575,-6.2088,-6.2608,-6.2608,-6.2931,-6.336,-6.3509,-6.3582,-6.36,-6.36,-6.36,-6.36,-6.36,-6.36,-6.36,-6.36,-6.36,-6.36,-6.36,-6.36,-6.36,-6.36,-6.36,-6.36,-6.36,-6.36,-6.36,-6.36,-6.36,-6.36,-6.36,-6.3673,-6.382,-6.3982,-6.4037,-6.4287,-6.4411,-6.4498,-6.4724,-6.4706,-6.4706,-6.4706,-6.4706,-6.4706,-6.4706,-6.4706,-6.4706,-6.4825,-6.5308,-6.5615,-6.5806,-6.6161,-6.6931,-6.7231,-6.7595,-6.8,-6.8358,-6.8524,-6.8524,-6.8524,-6.8524,-6.8524,-6.8524,-6.8524,-6.8524,-6.8524,-6.8524,-6.8524,-6.8524,-6.8524,-6.8524,-6.8524,-6.8524,-6.8524,-6.8524,-6.8524,-6.8524,-6.8524,-6.8524,-6.8524,-6.8524,-6.8524,-6.8524,-6.8524,-6.8524,-6.8524,-5.6761,-5.6761,-5.6761,-5.6858,-5.6939,-5.7762,-5.8119,-5.8195,-5.9113,-5.9538,-5.9697,-6.0247,-6.0569,-6.1003,-6.1168,-6.1086,-6.0854,-6.082,-6.0586,-6.0586,-6.067,-6.0466,-6.0397,-6.0397,-6.0485,-6.0637,-6.1494,-6.1929,-6.2341,-6.2668,-6.3158,-6.3491,-6.3268,-6.3434,-6.36,-6.36,-6.36,-6.36,-6.36,-6.36,-6.36,-6.36,-6.36,-6.36,-6.36,-6.36,-6.36,-6.36,-6.36,-6.36,-6.36,-6.36,-6.36,-6.36,-6.36,-6.36,-6.3673,-6.3673,-6.36,-6.36,-6.36,-6.3747,-6.3965,-6.418,-6.4305,-6.4585,-6.4655,-6.4724,-6.4706,-6.4706,-6.4706,-6.4706,-6.4706,-6.4706,-6.4706,-6.4843,-6.5078,-6.5551,-6.5851,-6.5994,-6.6582,-6.7415,-6.7755,-6.8,-6.8121,-6.8475,-6.8524,-6.8524,-6.8524,-6.8524,-6.8524,-6.8524,-6.8524,-6.8524,-6.8524,-6.8524,-6.8524,-6.8524,-6.8524,-6.8524,-6.8524,-6.8524,-6.8524,-6.8524,-6.8524,-6.8524,-6.8524,-6.8524,-6.8524,-6.8524,-6.8524,-6.8524,-6.8524,-6.8524,-6.8524,-5.6761,-5.6761,-5.6761,-5.7131,-5.7668,-5.8026,-5.8546,-5.9072,-5.9642,-6.0384,-6.1118,-6.1494,-6.2009,-6.2419,-6.2513,-6.2262,-6.185,-6.177,-6.143,-6.1003,-6.0937,-6.0919,-6.0884,-6.1003,-6.0904,-6.1179,-6.1857,-6.2262,-6.2341,-6.3176,-6.3509,-6.36,-6.36,-6.36,-6.36,-6.36,-6.36,-6.36,-6.36,-6.36,-6.36,-6.36,-6.36,-6.36,-6.36,-6.36,-6.36,-6.36,-6.36,-6.36,-6.36,-6.36,-6.36,-6.36,-6.36,-6.36,-6.3673,-6.3673,-6.36,-6.36,-6.3673,-6.3965,-6.4163,-6.4358,-6.4446,-6.4655,-6.4724,-6.4706,-6.4706,-6.4706,-6.4706,-6.4706,-6.4706,-6.4706,-6.4775,-6.4961,-6.5326,-6.5851,-6.6325,-6.6641,-6.7305,-6.8121,-6.8222,-6.834,-6.8408,-6.8524,-6.8524,-6.8524,-6.8524,-6.8524,-6.8524,-6.8524,-6.8524,-6.8524,-6.8524,-6.8524,-6.8524,-6.8524,-6.8524,-6.8524,-6.8524,-6.8524,-6.8524,-6.8524,-6.8524,-6.8524,-6.8524,-6.8524,-6.8524,-6.8524,-6.8524,-6.8524,-6.8524,-6.8573,-6.8573,-5.6761,-5.6858,-5.7131,-5.7574,-5.8195,-5.8471,-5.9161,-6.0038,-6.0602,-6.1267,-6.2324,-6.2591,-6.3007,-6.3509,-6.3509,-6.3251,-6.2762,-6.2591,-6.2262,-6.2009,-6.1883,-6.1695,-6.168,-6.1759,-6.197,-6.1829,-6.2215,-6.2762,-6.2838,-6.3343,-6.3509,-6.36,-6.36,-6.36,-6.36,-6.36,-6.36,-6.36,-6.36,-6.36,-6.36,-6.36,-6.36,-6.36,-6.36,-6.36,-6.36,-6.36,-6.36,-6.36,-6.36,-6.36,-6.36,-6.36,-6.36,-6.3673,-6.3673,-6.3747,-6.3673,-6.3673,-6.382,-6.3982,-6.4287,-6.4428,-6.4568,-6.4655,-6.4706,-6.4706,-6.4706,-6.4706,-6.4706,-6.4706,-6.4706,-6.4706,-6.5061,-6.5308,-6.5788,-6.6265,-6.6874,-6.736,-6.8,-6.8426,-6.8408,-6.8457,-6.8457,-6.8524,-6.8524,-6.8524,-6.8524,-6.8524,-6.8524,-6.8524,-6.8524,-6.8524,-6.8524,-6.8524,-6.8524,-6.8524,-6.8524,-6.8524,-6.8524,-6.8524,-6.8524,-6.8524,-6.8524,-6.8524,-6.8524,-6.8524,-6.8524,-6.8524,-6.8524,-6.8524,-6.8524,-6.8573,-6.8668,-5.6761,-5.6939,-5.7762,-5.8211,-5.8379,-5.9161,-6.0124,-6.0986,-6.1934,-6.2676,-6.3134,-6.336,-6.3417,-6.36,-6.36,-6.3509,-6.3434,-6.3434,-6.3343,-6.3176,-6.3007,-6.3285,-6.3302,-6.3176,-6.2956,-6.3417,-6.3434,-6.3343,-6.3434,-6.3509,-6.36,-6.36,-6.36,-6.36,-6.36,-6.36,-6.36,-6.36,-6.36,-6.36,-6.36,-6.36,-6.36,-6.36,-6.36,-6.36,-6.36,-6.36,-6.36,-6.36,-6.36,-6.36,-6.36,-6.36,-6.36,-6.36,-6.36,-6.3673,-6.3673,-6.3837,-6.391,-6.4054,-6.4287,-6.4411,-6.4481,-6.4568,-6.4706,-6.4706,-6.4706,-6.4706,-6.4706,-6.4706,-6.4706,-6.4944,-6.5308,-6.5788,-6.6265,-6.6682,-6.7286,-6.7773,-6.8171,-6.8524,-6.8524,-6.8524,-6.8524,-6.8524,-6.8524,-6.8524,-6.8524,-6.8524,-6.8524,-6.8524,-6.8524,-6.8524,-6.8524,-6.8524,-6.8524,-6.8524,-6.8524,-6.8524,-6.8524,-6.8524,-6.8524,-6.8524,-6.8524,-6.8524,-6.8524,-6.8524,-6.8524,-6.8524,-6.8524,-6.8524,-6.8573,-6.8621,-6.8716,-5.6761,-5.6858,-5.7856,-5.8546,-5.925,-6.0124,-6.1086,-6.1934,-6.2459,-6.2941,-6.3244,-6.3377,-6.3452,-6.3526,-6.36,-6.36,-6.36,-6.36,-6.36,-6.36,-6.36,-6.36,-6.36,-6.36,-6.36,-6.36,-6.36,-6.36,-6.36,-6.36,-6.36,-6.36,-6.36,-6.36,-6.36,-6.36,-6.36,-6.36,-6.36,-6.36,-6.36,-6.36,-6.36,-6.36,-6.36,-6.36,-6.36,-6.36,-6.36,-6.36,-6.36,-6.36,-6.36,-6.36,-6.36,-6.3673,-6.3673,-6.3892,-6.3965,-6.4091,-6.4145,-6.4234,-6.4287,-6.4481,-6.4568,-6.4655,-6.4724,-6.4706,-6.4706,-6.4706,-6.4706,-6.4724,-6.4843,-6.5308,-6.5725,-6.6325,-6.6798,-6.7175,-6.7667,-6.8051,-6.8457,-6.8524,-6.8524,-6.8524,-6.8524,-6.8524,-6.8524,-6.8524,-6.8524,-6.8524,-6.8524,-6.8524,-6.8524,-6.8524,-6.8524,-6.8524,-6.8524,-6.8524,-6.8524,-6.8524,-6.8524,-6.8524,-6.8524,-6.8524,-6.8524,-6.8524,-6.8524,-6.8524,-6.8524,-6.8524,-6.8524,-6.8573,-6.8621,-6.8716,-6.8856,-5.6761,-5.6939,-5.8195,-5.8982,-5.9674,-6.0635,-6.1513,-6.2302,-6.2632,-6.2864,-6.3076,-6.3152,-6.3302,-6.3452,-6.3526,-6.36,-6.36,-6.36,-6.36,-6.36,-6.36,-6.36,-6.36,-6.36,-6.36,-6.36,-6.36,-6.36,-6.36,-6.36,-6.36,-6.36,-6.36,-6.36,-6.36,-6.36,-6.36,-6.36,-6.36,-6.36,-6.36,-6.36,-6.36,-6.36,-6.36,-6.36,-6.36,-6.36,-6.36,-6.36,-6.36,-6.36,-6.36,-6.36,-6.36,-6.3673,-6.382,-6.3982,-6.4109,-6.427,-6.427,-6.4287,-6.4411,-6.4568,-6.4655,-6.4724,-6.4706,-6.4706,-6.4706,-6.4706,-6.4775,-6.4775,-6.526,-6.5742,-6.6325,-6.6874,-6.7231,-6.7649,-6.7948,-6.8408,-6.8524,-6.8524,-6.8524,-6.8524,-6.8524,-6.8524,-6.8524,-6.8524,-6.8524,-6.8524,-6.8524,-6.8524,-6.8524,-6.8524,-6.8524,-6.8524,-6.8524,-6.8524,-6.8524,-6.8524,-6.8524,-6.8524,-6.8524,-6.8524,-6.8524,-6.8524,-6.8524,-6.8524,-6.8524,-6.8506,-6.8554,-6.8602,-6.8716,-6.8838,-6.902,-5.6761,-5.7019,-5.8802,-5.9603,-5.9778,-6.0719,-6.1595,-6.2381,-6.2632,-6.271,-6.271,-6.2941,-6.3152,-6.3302,-6.3319,-6.3452,-6.36,-6.36,-6.36,-6.36,-6.36,-6.36,-6.36,-6.36,-6.36,-6.36,-6.36,-6.36,-6.36,-6.36,-6.36,-6.36,-6.36,-6.36,-6.36,-6.36,-6.36,-6.36,-6.36,-6.36,-6.36,-6.36,-6.36,-6.36,-6.36,-6.36,-6.36,-6.36,-6.36,-6.36,-6.36,-6.36,-6.36,-6.36,-6.36,-6.3673,-6.382,-6.4054,-6.418,-6.434,-6.4393,-6.4411,-6.4568,-6.4655,-6.4724,-6.4706,-6.4706,-6.4775,-6.4825,-6.4825,-6.4825,-6.5326,-6.5806,-6.6344,-6.6931,-6.7341,-6.7649,-6.8,-6.829,-6.8524,-6.8524,-6.8524,-6.8524,-6.8524,-6.8524,-6.8524,-6.8524,-6.8524,-6.8524,-6.8524,-6.8524,-6.8524,-6.8524,-6.8524,-6.8524,-6.8524,-6.8524,-6.8524,-6.8524,-6.8524,-6.8524,-6.8524,-6.8524,-6.8524,-6.8524,-6.8524,-6.8573,-6.8573,-6.8554,-6.8602,-6.8726,-6.8828,-6.8945,-6.9027,-6.9184,-5.6761,-5.7035,-5.8818,-5.9603,-5.9865,-6.1333,-6.2127,-6.2398,-6.2476,-6.2527,-6.2707,-6.2881,-6.3076,-6.3319,-6.3452,-6.3509,-6.36,-6.36,-6.36,-6.36,-6.36,-6.36,-6.36,-6.36,-6.36,-6.36,-6.36,-6.36,-6.36,-6.36,-6.36,-6.36,-6.36,-6.36,-6.36,-6.36,-6.36,-6.36,-6.36,-6.36,-6.36,-6.36,-6.36,-6.36,-6.36,-6.36,-6.36,-6.36,-6.36,-6.36,-6.36,-6.36,-6.36,-6.36,-6.3617,-6.3837,-6.3982,-6.4198,-6.4358,-6.4481,-6.4619,-6.455,-6.4637,-6.4706,-6.4706,-6.4706,-6.4706,-6.4775,-6.5078,-6.5194,-6.5439,-6.5851,-6.6404,-6.6949,-6.7415,-6.7755,-6.8,-6.824,-6.8524,-6.8524,-6.8524,-6.8524,-6.8524,-6.8524,-6.8524,-6.8524,-6.8524,-6.8524,-6.8524,-6.8524,-6.8524,-6.8524,-6.8524,-6.8524,-6.8524,-6.8524,-6.8524,-6.8524,-6.8524,-6.8524,-6.8524,-6.8524,-6.8524,-6.8524,-6.8524,-6.8573,-6.8668,-6.865,-6.865,-6.8846,-6.9009,-6.9128,-6.9238,-6.9321,-6.9525,-5.6761,-5.7035,-5.8802,-6.0022,-6.082,-6.1951,-6.2398,-6.2398,-6.2398,-6.2465,-6.2595,-6.2727,-6.2923,-6.3152,-6.3285,-6.3452,-6.36,-6.36,-6.36,-6.36,-6.36,-6.36,-6.36,-6.36,-6.36,-6.36,-6.36,-6.36,-6.36,-6.36,-6.36,-6.36,-6.36,-6.36,-6.36,-6.36,-6.36,-6.36,-6.36,-6.36,-6.36,-6.36,-6.36,-6.36,-6.36,-6.36,-6.36,-6.36,-6.36,-6.36,-6.36,-6.36,-6.36,-6.36,-6.3764,-6.3982,-6.4126,-6.4322,-6.4498,-6.4637,-6.4706,-6.4706,-6.4706,-6.4706,-6.4706,-6.4706,-6.4706,-6.4775,-6.526,-6.5742,-6.6038,-6.6445,-6.7006,-6.756,-6.7826,-6.8102,-6.829,-6.8475,-6.8524,-6.8524,-6.8524,-6.8524,-6.8524,-6.8524,-6.8524,-6.8524,-6.8524,-6.8524,-6.8524,-6.8524,-6.8524,-6.8524,-6.8524,-6.8524,-6.8524,-6.8524,-6.8524,-6.8524,-6.8524,-6.8524,-6.8524,-6.8524,-6.8524,-6.8573,-6.8621,-6.8668,-6.8744,-6.8791,-6.8838,-6.9053,-6.9321,-6.9567,-6.9683,-6.9776,-7.0045,-5.6669,-5.6846,-5.877,-6.0635,-6.2223,-6.2398,-6.2398,-6.2398,-6.2398,-6.2398,-6.2398,-6.2476,-6.2693,-6.2983,-6.3134,-6.336,-6.3526,-6.36,-6.36,-6.36,-6.36,-6.36,-6.36,-6.36,-6.36,-6.36,-6.36,-6.36,-6.36,-6.36,-6.36,-6.36,-6.36,-6.36,-6.36,-6.36,-6.36,-6.36,-6.36,-6.36,-6.36,-6.36,-6.36,-6.36,-6.36,-6.36,-6.36,-6.36,-6.36,-6.36,-6.36,-6.36,-6.36,-6.3673,-6.3892,-6.4037,-6.418,-6.4393,-6.4585,-6.4706,-6.4706,-6.4706,-6.4706,-6.4706,-6.4706,-6.4706,-6.4706,-6.5061,-6.5615,-6.6161,-6.6505,-6.7101,-6.7702,-6.7948,-6.8121,-6.829,-6.8408,-6.8524,-6.8524,-6.8524,-6.8524,-6.8524,-6.8524,-6.8524,-6.8524,-6.8524,-6.8524,-6.8524,-6.8524,-6.8524,-6.8524,-6.8524,-6.8524,-6.8524,-6.8524,-6.8524,-6.8524,-6.8524,-6.8524,-6.8524,-6.8524,-6.8524,-6.8573,-6.8621,-6.8668,-6.8744,-6.8838,-6.8956,-6.9122,-6.9382,-6.9683,-7.0011,-7.0162,-7.026,-7.0467,-5.5961,-5.6167,-5.8563,-6.0652,-6.2302,-6.2398,-6.2398,-6.2398,-6.2398,-6.2398,-6.2398,-6.2537,-6.277,-6.2983,-6.3152,-6.3377,-6.3526,-6.36,-6.36,-6.36,-6.36,-6.36,-6.36,-6.36,-6.36,-6.36,-6.36,-6.36,-6.36,-6.36,-6.36,-6.36,-6.36,-6.36,-6.36,-6.36,-6.36,-6.36,-6.36,-6.36,-6.36,-6.36,-6.36,-6.36,-6.36,-6.36,-6.36,-6.36,-6.36,-6.36,-6.36,-6.36,-6.36,-6.3747,-6.3892,-6.418,-6.4305,-6.4428,-6.4655,-6.4706,-6.4706,-6.4706,-6.4706,-6.4706,-6.4706,-6.4706,-6.4944,-6.5421,-6.5958,-6.6445,-6.7045,-6.7702,-6.8222,-6.829,-6.8389,-6.8457,-6.8524,-6.8524,-6.8524,-6.8524,-6.8524,-6.8524,-6.8524,-6.8524,-6.8524,-6.8524,-6.8524,-6.8524,-6.8524,-6.8524,-6.8524,-6.8524,-6.8524,-6.8524,-6.8524,-6.8524,-6.8524,-6.8524,-6.8524,-6.8524,-6.8524,-6.8573,-6.865,-6.8697,-6.8744,-6.8911,-6.9097,-6.9317,-6.9485,-6.9759,-7.003,-7.0394,-7.0652,-7.0764,-7.0959,-5.5704,-5.6651,-5.9104,-6.1086,-6.2223,-6.2398,-6.2398,-6.2398,-6.2398,-6.2398,-6.2398,-6.2554,-6.2693,-6.2983,-6.3152,-6.3377,-6.3509,-6.36,-6.36,-6.36,-6.36,-6.36,-6.36,-6.36,-6.36,-6.36,-6.36,-6.36,-6.36,-6.36,-6.36,-6.36,-6.36,-6.36,-6.36,-6.36,-6.36,-6.36,-6.36,-6.36,-6.36,-6.36,-6.36,-6.36,-6.36,-6.36,-6.36,-6.36,-6.36,-6.36,-6.36,-6.3691,-6.3764,-6.3837,-6.4037,-6.4217,-6.434,-6.4481,-6.4637,-6.4706,-6.4706,-6.4706,-6.4706,-6.4706,-6.4706,-6.4706,-6.5029,-6.5486,-6.6125,-6.6664,-6.7341,-6.8,-6.829,-6.8457,-6.8457,-6.8475,-6.8524,-6.8524,-6.8524,-6.8524,-6.8524,-6.8524,-6.8524,-6.8524,-6.8524,-6.8524,-6.8524,-6.8524,-6.8524,-6.8524,-6.8524,-6.8524,-6.8524,-6.8524,-6.8524,-6.8524,-6.8524,-6.8524,-6.8524,-6.8573,-6.8621,-6.865,-6.8697,-6.8772,-6.8892,-6.9097,-6.9317,-6.9525,-6.9942,-7.0285,-7.0535,-7.0802,-7.0998,-7.1139,-7.1205,-5.5579,-5.737,-5.9837,-6.138,-6.2184,-6.2364,-6.2398,-6.2398,-6.2398,-6.2398,-6.2398,-6.2398,-6.2615,-6.2847,-6.2983,-6.3285,-6.3434,-6.36,-6.36,-6.36,-6.36,-6.36,-6.36,-6.36,-6.36,-6.36,-6.36,-6.36,-6.36,-6.36,-6.36,-6.36,-6.36,-6.36,-6.36,-6.36,-6.36,-6.36,-6.36,-6.36,-6.36,-6.36,-6.36,-6.36,-6.36,-6.36,-6.36,-6.36,-6.36,-6.36,-6.36,-6.3691,-6.3837,-6.391,-6.4037,-6.4234,-6.4411,-6.4481,-6.4637,-6.4637,-6.4706,-6.4706,-6.4706,-6.4706,-6.4706,-6.4843,-6.5145,-6.5615,-6.6247,-6.6895,-6.7577,-6.8051,-6.8358,-6.8524,-6.8524,-6.8524,-6.8524,-6.8524,-6.8524,-6.8524,-6.8524,-6.8524,-6.8524,-6.8524,-6.8524,-6.8524,-6.8524,-6.8524,-6.8524,-6.8524,-6.8524,-6.8524,-6.8524,-6.8524,-6.8524,-6.8524,-6.8524,-6.8524,-6.8554,-6.8621,-6.8716,-6.8791,-6.8865,-6.8937,-6.9053,-6.9251,-6.9504,-6.9797,-7.0238,-7.0643,-7.0875,-7.1023,-7.1116,-7.1228,-7.125,-5.5207,-5.749,-5.9383,-6.0645,-6.1525,-6.211,-6.2398,-6.2398,-6.2398,-6.2398,-6.2398,-6.2398,-6.2554,-6.2787,-6.2923,-6.3134,-6.3377,-6.3526,-6.36,-6.36,-6.36,-6.36,-6.36,-6.36,-6.36,-6.36,-6.36,-6.36,-6.36,-6.36,-6.36,-6.36,-6.36,-6.36,-6.36,-6.36,-6.36,-6.36,-6.36,-6.36,-6.36,-6.36,-6.36,-6.36,-6.36,-6.36,-6.36,-6.36,-6.36,-6.36,-6.36,-6.3673,-6.382,-6.3965,-6.4109,-6.4234,-6.4428,-6.455,-6.4637,-6.4637,-6.4706,-6.4706,-6.4706,-6.4706,-6.4706,-6.4706,-6.5078,-6.5615,-6.6325,-6.7139,-6.7807,-6.8222,-6.8506,-6.8524,-6.8524,-6.8524,-6.8524,-6.8524,-6.8524,-6.8524,-6.8524,-6.8524,-6.8524,-6.8524,-6.8524,-6.8524,-6.8524,-6.8524,-6.8524,-6.8524,-6.8524,-6.8524,-6.8524,-6.8524,-6.8524,-6.8524,-6.8506,-6.8554,-6.8602,-6.8697,-6.8791,-6.8911,-6.8983,-6.9027,-6.9184,-6.9378,-6.9681,-7.0052,-7.04,-7.0775,-7.1067,-7.1247,-7.1291,-7.1291,-7.1291]}]]